<?xml version='1.0' encoding='UTF-8'?><gpx version="1.1" creator="JPX - https://github.com/jenetics/jpx" xmlns="http://www.topografix.com/GPX/1/1"><trk><trkseg><trkpt lat="46.0721012" lon="13.2382289"><ele>114.99999999999999</ele><time>2026-04-26T16:07:33.405Z</time></trkpt><trkpt lat="46.0720682" lon="13.2381371"><ele>115.0</ele><time>2026-04-26T16:07:36.405Z</time></trkpt><trkpt lat="46.0719849" lon="13.2380858"><ele>114.99999999999999</ele><time>2026-04-26T16:07:59.406Z</time></trkpt><trkpt lat="46.0719571" lon="13.2381679"><ele>114.99999999999999</ele><time>2026-04-26T16:11:15.405Z</time></trkpt><trkpt lat="46.0719704" lon="13.2382729"><ele>115.0</ele><time>2026-04-26T16:11:20.405Z</time></trkpt><trkpt lat="46.0719959" lon="13.238361"><ele>114.99999999999999</ele><time>2026-04-26T16:11:25.406Z</time></trkpt><trkpt lat="46.0719891" lon="13.2384524"><ele>114.99999999999999</ele><time>2026-04-26T16:12:05.404Z</time></trkpt><trkpt lat="46.0719276" lon="13.2384752"><ele>115.0</ele><time>2026-04-26T16:12:08.405Z</time></trkpt><trkpt lat="46.0718453" lon="13.2385091"><ele>115.0</ele><time>2026-04-26T16:13:02.404Z</time></trkpt><trkpt lat="46.0717485" lon="13.2385572"><ele>115.0</ele><time>2026-04-26T16:13:04.404Z</time></trkpt><trkpt lat="46.0716446" lon="13.238594"><ele>115.0</ele><time>2026-04-26T16:13:06.404Z</time></trkpt><trkpt lat="46.0715366" lon="13.2386358"><ele>115.0</ele><time>2026-04-26T16:13:08.404Z</time></trkpt><trkpt lat="46.0714699" lon="13.238656"><ele>114.99999999999999</ele><time>2026-04-26T16:13:10.405Z</time></trkpt><trkpt lat="46.0714017" lon="13.2386217"><ele>115.0</ele><time>2026-04-26T16:13:20.404Z</time></trkpt><trkpt lat="46.0713559" lon="13.2385551"><ele>114.99999999999999</ele><time>2026-04-26T16:13:22.404Z</time></trkpt><trkpt lat="46.0713462" lon="13.2384579"><ele>114.99999999999999</ele><time>2026-04-26T16:13:23.403Z</time></trkpt><trkpt lat="46.0713483" lon="13.2383555"><ele>115.0</ele><time>2026-04-26T16:13:24.404Z</time></trkpt><trkpt lat="46.0713467" lon="13.2382535"><ele>114.99999999999999</ele><time>2026-04-26T16:13:25.404Z</time></trkpt><trkpt lat="46.0713422" lon="13.2381485"><ele>114.99999999999999</ele><time>2026-04-26T16:13:26.404Z</time></trkpt><trkpt lat="46.0713389" lon="13.2380235"><ele>115.0</ele><time>2026-04-26T16:13:27.404Z</time></trkpt><trkpt lat="46.07133" lon="13.2378998"><ele>115.0</ele><time>2026-04-26T16:13:28.405Z</time></trkpt><trkpt lat="46.0713103" lon="13.2377786"><ele>115.0</ele><time>2026-04-26T16:13:29.405Z</time></trkpt><trkpt lat="46.0713015" lon="13.2376444"><ele>115.0</ele><time>2026-04-26T16:13:30.404Z</time></trkpt><trkpt lat="46.0712958" lon="13.2374984"><ele>115.0</ele><time>2026-04-26T16:13:31.404Z</time></trkpt><trkpt lat="46.0712806" lon="13.2373501"><ele>115.16666666666667</ele><time>2026-04-26T16:13:32.404Z</time></trkpt><trkpt lat="46.0712707" lon="13.2372089"><ele>115.33333333333334</ele><time>2026-04-26T16:13:33.403Z</time></trkpt><trkpt lat="46.0712643" lon="13.2370669"><ele>115.5</ele><time>2026-04-26T16:13:34.405Z</time></trkpt><trkpt lat="46.0712535" lon="13.2369383"><ele>115.66666666666666</ele><time>2026-04-26T16:13:35.404Z</time></trkpt><trkpt lat="46.0712459" lon="13.2368187"><ele>115.83333333333333</ele><time>2026-04-26T16:13:36.405Z</time></trkpt><trkpt lat="46.0712453" lon="13.2367125"><ele>116.0</ele><time>2026-04-26T16:13:37.403Z</time></trkpt><trkpt lat="46.0712363" lon="13.2366071"><ele>115.99999999999999</ele><time>2026-04-26T16:13:38.404Z</time></trkpt><trkpt lat="46.0712284" lon="13.2365132"><ele>116.0</ele><time>2026-04-26T16:13:39.404Z</time></trkpt><trkpt lat="46.0712244" lon="13.2363665"><ele>116.0</ele><time>2026-04-26T16:13:41.403Z</time></trkpt><trkpt lat="46.0712186" lon="13.2362394"><ele>116.0</ele><time>2026-04-26T16:13:43.404Z</time></trkpt><trkpt lat="46.0712255" lon="13.2361296"><ele>115.99999999999999</ele><time>2026-04-26T16:13:46.404Z</time></trkpt><trkpt lat="46.0712199" lon="13.2360356"><ele>116.0</ele><time>2026-04-26T16:13:51.404Z</time></trkpt><trkpt lat="46.0712226" lon="13.2359205"><ele>116.0</ele><time>2026-04-26T16:14:25.404Z</time></trkpt><trkpt lat="46.0711985" lon="13.2357736"><ele>116.0</ele><time>2026-04-26T16:14:27.404Z</time></trkpt><trkpt lat="46.0712003" lon="13.2355976"><ele>116.0</ele><time>2026-04-26T16:14:29.404Z</time></trkpt><trkpt lat="46.0711795" lon="13.2354248"><ele>116.0</ele><time>2026-04-26T16:14:31.405Z</time></trkpt><trkpt lat="46.0711643" lon="13.2352649"><ele>115.99999999999999</ele><time>2026-04-26T16:14:33.404Z</time></trkpt><trkpt lat="46.0711526" lon="13.2350869"><ele>116.0</ele><time>2026-04-26T16:14:35.403Z</time></trkpt><trkpt lat="46.0711478" lon="13.234977"><ele>116.0</ele><time>2026-04-26T16:14:36.404Z</time></trkpt><trkpt lat="46.0711419" lon="13.2348768"><ele>116.0</ele><time>2026-04-26T16:14:37.404Z</time></trkpt><trkpt lat="46.0711308" lon="13.2347733"><ele>115.99999999999999</ele><time>2026-04-26T16:14:38.405Z</time></trkpt><trkpt lat="46.0711223" lon="13.2346647"><ele>116.0</ele><time>2026-04-26T16:14:39.404Z</time></trkpt><trkpt lat="46.0711002" lon="13.2345645"><ele>116.33333333333333</ele><time>2026-04-26T16:14:40.405Z</time></trkpt><trkpt lat="46.0710933" lon="13.234457"><ele>116.66666666666666</ele><time>2026-04-26T16:14:41.405Z</time></trkpt><trkpt lat="46.0710903" lon="13.2343483"><ele>117.0</ele><time>2026-04-26T16:14:42.404Z</time></trkpt><trkpt lat="46.0710838" lon="13.2342331"><ele>117.33333333333334</ele><time>2026-04-26T16:14:43.405Z</time></trkpt><trkpt lat="46.0710755" lon="13.2341125"><ele>117.66666666666667</ele><time>2026-04-26T16:14:44.404Z</time></trkpt><trkpt lat="46.071063" lon="13.2339832"><ele>118.0</ele><time>2026-04-26T16:14:45.404Z</time></trkpt><trkpt lat="46.0710455" lon="13.2338352"><ele>118.4</ele><time>2026-04-26T16:14:46.404Z</time></trkpt><trkpt lat="46.0710325" lon="13.2336753"><ele>118.80000000000001</ele><time>2026-04-26T16:14:47.404Z</time></trkpt><trkpt lat="46.0710203" lon="13.2335176"><ele>119.2</ele><time>2026-04-26T16:14:48.404Z</time></trkpt><trkpt lat="46.0710101" lon="13.2333608"><ele>119.6</ele><time>2026-04-26T16:14:49.403Z</time></trkpt><trkpt lat="46.0710016" lon="13.2331991"><ele>120.0</ele><time>2026-04-26T16:14:50.403Z</time></trkpt><trkpt lat="46.0709948" lon="13.2330385"><ele>120.0</ele><time>2026-04-26T16:14:51.404Z</time></trkpt><trkpt lat="46.0709869" lon="13.2328887"><ele>120.0</ele><time>2026-04-26T16:14:52.403Z</time></trkpt><trkpt lat="46.0709814" lon="13.2327449"><ele>120.0</ele><time>2026-04-26T16:14:53.405Z</time></trkpt><trkpt lat="46.0709726" lon="13.2326103"><ele>120.0</ele><time>2026-04-26T16:14:54.403Z</time></trkpt><trkpt lat="46.0709666" lon="13.2324695"><ele>120.0</ele><time>2026-04-26T16:14:55.403Z</time></trkpt><trkpt lat="46.0709606" lon="13.2323229"><ele>120.0</ele><time>2026-04-26T16:14:56.404Z</time></trkpt><trkpt lat="46.0709563" lon="13.232164"><ele>120.0</ele><time>2026-04-26T16:14:57.405Z</time></trkpt><trkpt lat="46.0709479" lon="13.232002"><ele>120.0</ele><time>2026-04-26T16:14:58.404Z</time></trkpt><trkpt lat="46.0709433" lon="13.2318349"><ele>120.0</ele><time>2026-04-26T16:14:59.405Z</time></trkpt><trkpt lat="46.0709387" lon="13.2316564"><ele>119.75</ele><time>2026-04-26T16:15:00.404Z</time></trkpt><trkpt lat="46.0709353" lon="13.2314728"><ele>119.5</ele><time>2026-04-26T16:15:01.404Z</time></trkpt><trkpt lat="46.0709323" lon="13.2312945"><ele>119.25</ele><time>2026-04-26T16:15:02.404Z</time></trkpt><trkpt lat="46.0709276" lon="13.2311176"><ele>119.0</ele><time>2026-04-26T16:15:03.404Z</time></trkpt><trkpt lat="46.0709206" lon="13.2309476"><ele>119.0</ele><time>2026-04-26T16:15:04.405Z</time></trkpt><trkpt lat="46.0709128" lon="13.2307832"><ele>119.0</ele><time>2026-04-26T16:15:05.403Z</time></trkpt><trkpt lat="46.0709042" lon="13.2306251"><ele>119.0</ele><time>2026-04-26T16:15:06.404Z</time></trkpt><trkpt lat="46.0708954" lon="13.2304668"><ele>119.0</ele><time>2026-04-26T16:15:07.403Z</time></trkpt><trkpt lat="46.0708851" lon="13.2303124"><ele>119.0</ele><time>2026-04-26T16:15:08.405Z</time></trkpt><trkpt lat="46.0708715" lon="13.2301581"><ele>118.4</ele><time>2026-04-26T16:15:09.405Z</time></trkpt><trkpt lat="46.070851" lon="13.2300134"><ele>117.80000000000001</ele><time>2026-04-26T16:15:10.404Z</time></trkpt><trkpt lat="46.0708254" lon="13.2298756"><ele>117.19999999999999</ele><time>2026-04-26T16:15:11.404Z</time></trkpt><trkpt lat="46.0707971" lon="13.2297488"><ele>116.6</ele><time>2026-04-26T16:15:12.404Z</time></trkpt><trkpt lat="46.0707661" lon="13.22963"><ele>116.0</ele><time>2026-04-26T16:15:13.405Z</time></trkpt><trkpt lat="46.0707349" lon="13.2295169"><ele>115.83333333333333</ele><time>2026-04-26T16:15:14.404Z</time></trkpt><trkpt lat="46.0707043" lon="13.2294098"><ele>115.66666666666666</ele><time>2026-04-26T16:15:15.405Z</time></trkpt><trkpt lat="46.0706758" lon="13.229311"><ele>115.5</ele><time>2026-04-26T16:15:16.404Z</time></trkpt><trkpt lat="46.0706501" lon="13.2292169"><ele>115.33333333333334</ele><time>2026-04-26T16:15:17.404Z</time></trkpt><trkpt lat="46.0706282" lon="13.2291257"><ele>115.16666666666667</ele><time>2026-04-26T16:15:18.404Z</time></trkpt><trkpt lat="46.070611" lon="13.2290375"><ele>115.0</ele><time>2026-04-26T16:15:19.404Z</time></trkpt><trkpt lat="46.070592" lon="13.2288626"><ele>115.0</ele><time>2026-04-26T16:15:21.404Z</time></trkpt><trkpt lat="46.0705917" lon="13.2286977"><ele>115.0</ele><time>2026-04-26T16:15:23.405Z</time></trkpt><trkpt lat="46.0706023" lon="13.2285453"><ele>115.0</ele><time>2026-04-26T16:15:25.404Z</time></trkpt><trkpt lat="46.0706179" lon="13.2284118"><ele>115.0</ele><time>2026-04-26T16:15:27.405Z</time></trkpt><trkpt lat="46.0706555" lon="13.2282494"><ele>115.0</ele><time>2026-04-26T16:15:29.404Z</time></trkpt><trkpt lat="46.0706925" lon="13.228142"><ele>114.6</ele><time>2026-04-26T16:15:30.404Z</time></trkpt><trkpt lat="46.0707437" lon="13.2280252"><ele>114.2</ele><time>2026-04-26T16:15:31.404Z</time></trkpt><trkpt lat="46.0708206" lon="13.2279303"><ele>113.80000000000001</ele><time>2026-04-26T16:15:32.403Z</time></trkpt><trkpt lat="46.0708962" lon="13.2278334"><ele>113.4</ele><time>2026-04-26T16:15:33.403Z</time></trkpt><trkpt lat="46.0709734" lon="13.2277343"><ele>113.0</ele><time>2026-04-26T16:15:34.404Z</time></trkpt><trkpt lat="46.0710522" lon="13.2276299"><ele>113.0</ele><time>2026-04-26T16:15:35.403Z</time></trkpt><trkpt lat="46.0711332" lon="13.2275242"><ele>113.00000000000001</ele><time>2026-04-26T16:15:36.403Z</time></trkpt><trkpt lat="46.0712154" lon="13.2274133"><ele>113.00000000000001</ele><time>2026-04-26T16:15:37.404Z</time></trkpt><trkpt lat="46.071296" lon="13.2273034"><ele>113.0</ele><time>2026-04-26T16:15:38.404Z</time></trkpt><trkpt lat="46.071377" lon="13.2271939"><ele>113.0</ele><time>2026-04-26T16:15:39.403Z</time></trkpt><trkpt lat="46.0714579" lon="13.2270842"><ele>113.0</ele><time>2026-04-26T16:15:40.404Z</time></trkpt><trkpt lat="46.0715342" lon="13.2269758"><ele>113.00000000000001</ele><time>2026-04-26T16:15:41.404Z</time></trkpt><trkpt lat="46.0716044" lon="13.2268685"><ele>113.00000000000001</ele><time>2026-04-26T16:15:42.403Z</time></trkpt><trkpt lat="46.0716661" lon="13.2267642"><ele>113.0</ele><time>2026-04-26T16:15:43.404Z</time></trkpt><trkpt lat="46.0717286" lon="13.2266669"><ele>113.0</ele><time>2026-04-26T16:15:44.405Z</time></trkpt><trkpt lat="46.0717833" lon="13.2265706"><ele>112.99999999999999</ele><time>2026-04-26T16:15:45.404Z</time></trkpt><trkpt lat="46.0718389" lon="13.2264872"><ele>113.0</ele><time>2026-04-26T16:15:46.404Z</time></trkpt><trkpt lat="46.0718874" lon="13.2264113"><ele>113.0</ele><time>2026-04-26T16:15:47.405Z</time></trkpt><trkpt lat="46.0719337" lon="13.2263309"><ele>113.0</ele><time>2026-04-26T16:15:48.403Z</time></trkpt><trkpt lat="46.0719791" lon="13.2262497"><ele>112.99999999999999</ele><time>2026-04-26T16:15:49.404Z</time></trkpt><trkpt lat="46.0720289" lon="13.2261651"><ele>113.0</ele><time>2026-04-26T16:15:50.404Z</time></trkpt><trkpt lat="46.0720882" lon="13.2260721"><ele>113.0</ele><time>2026-04-26T16:15:51.405Z</time></trkpt><trkpt lat="46.0721476" lon="13.2259676"><ele>113.00000000000001</ele><time>2026-04-26T16:15:52.405Z</time></trkpt><trkpt lat="46.0722115" lon="13.2258569"><ele>113.00000000000001</ele><time>2026-04-26T16:15:53.404Z</time></trkpt><trkpt lat="46.0722739" lon="13.2257413"><ele>113.0</ele><time>2026-04-26T16:15:54.404Z</time></trkpt><trkpt lat="46.0723423" lon="13.2256168"><ele>113.0</ele><time>2026-04-26T16:15:55.404Z</time></trkpt><trkpt lat="46.0724101" lon="13.2254903"><ele>113.2</ele><time>2026-04-26T16:15:56.404Z</time></trkpt><trkpt lat="46.0724743" lon="13.2253631"><ele>113.4</ele><time>2026-04-26T16:15:57.404Z</time></trkpt><trkpt lat="46.07253" lon="13.225237"><ele>113.60000000000001</ele><time>2026-04-26T16:15:58.404Z</time></trkpt><trkpt lat="46.0725871" lon="13.2251194"><ele>113.80000000000001</ele><time>2026-04-26T16:15:59.405Z</time></trkpt><trkpt lat="46.072627" lon="13.2250207"><ele>114.0</ele><time>2026-04-26T16:16:00.404Z</time></trkpt><trkpt lat="46.0726768" lon="13.224931"><ele>114.0</ele><time>2026-04-26T16:16:01.405Z</time></trkpt><trkpt lat="46.0727296" lon="13.2248471"><ele>114.0</ele><time>2026-04-26T16:16:02.404Z</time></trkpt><trkpt lat="46.072791" lon="13.2247606"><ele>114.0</ele><time>2026-04-26T16:16:03.405Z</time></trkpt><trkpt lat="46.0728544" lon="13.2246771"><ele>114.0</ele><time>2026-04-26T16:16:04.404Z</time></trkpt><trkpt lat="46.0729221" lon="13.224589"><ele>114.0</ele><time>2026-04-26T16:16:05.404Z</time></trkpt><trkpt lat="46.0729937" lon="13.2245004"><ele>114.0</ele><time>2026-04-26T16:16:06.404Z</time></trkpt><trkpt lat="46.073066" lon="13.2244056"><ele>114.2</ele><time>2026-04-26T16:16:07.404Z</time></trkpt><trkpt lat="46.0731407" lon="13.2243009"><ele>114.4</ele><time>2026-04-26T16:16:08.405Z</time></trkpt><trkpt lat="46.0732179" lon="13.2241978"><ele>114.6</ele><time>2026-04-26T16:16:09.404Z</time></trkpt><trkpt lat="46.0732947" lon="13.2240911"><ele>114.8</ele><time>2026-04-26T16:16:10.405Z</time></trkpt><trkpt lat="46.0733713" lon="13.2239795"><ele>115.0</ele><time>2026-04-26T16:16:11.403Z</time></trkpt><trkpt lat="46.0734496" lon="13.2238712"><ele>115.0</ele><time>2026-04-26T16:16:12.405Z</time></trkpt><trkpt lat="46.0735261" lon="13.2237756"><ele>115.0</ele><time>2026-04-26T16:16:13.403Z</time></trkpt><trkpt lat="46.0735979" lon="13.2236903"><ele>115.0</ele><time>2026-04-26T16:16:14.404Z</time></trkpt><trkpt lat="46.0736673" lon="13.2236106"><ele>115.0</ele><time>2026-04-26T16:16:15.404Z</time></trkpt><trkpt lat="46.073736" lon="13.2235374"><ele>115.0</ele><time>2026-04-26T16:16:16.405Z</time></trkpt><trkpt lat="46.0738036" lon="13.2234567"><ele>115.0</ele><time>2026-04-26T16:16:17.404Z</time></trkpt><trkpt lat="46.0738723" lon="13.2233657"><ele>115.0</ele><time>2026-04-26T16:16:18.404Z</time></trkpt><trkpt lat="46.0739481" lon="13.223282"><ele>115.0</ele><time>2026-04-26T16:16:19.404Z</time></trkpt><trkpt lat="46.074059" lon="13.2232068"><ele>115.0</ele><time>2026-04-26T16:16:20.404Z</time></trkpt><trkpt lat="46.0741699" lon="13.2231395"><ele>115.0</ele><time>2026-04-26T16:16:21.404Z</time></trkpt><trkpt lat="46.0742728" lon="13.2230779"><ele>115.0</ele><time>2026-04-26T16:16:22.404Z</time></trkpt><trkpt lat="46.0743799" lon="13.2230138"><ele>115.0</ele><time>2026-04-26T16:16:23.404Z</time></trkpt><trkpt lat="46.0744843" lon="13.2229516"><ele>115.0</ele><time>2026-04-26T16:16:24.404Z</time></trkpt><trkpt lat="46.0745915" lon="13.222889"><ele>115.0</ele><time>2026-04-26T16:16:25.403Z</time></trkpt><trkpt lat="46.0747005" lon="13.2228165"><ele>115.0</ele><time>2026-04-26T16:16:26.403Z</time></trkpt><trkpt lat="46.0748075" lon="13.2227209"><ele>115.0</ele><time>2026-04-26T16:16:27.405Z</time></trkpt><trkpt lat="46.0749162" lon="13.2226163"><ele>115.0</ele><time>2026-04-26T16:16:28.404Z</time></trkpt><trkpt lat="46.0750189" lon="13.2225117"><ele>115.0</ele><time>2026-04-26T16:16:29.404Z</time></trkpt><trkpt lat="46.0751254" lon="13.2224065"><ele>114.5</ele><time>2026-04-26T16:16:30.403Z</time></trkpt><trkpt lat="46.0752302" lon="13.2222959"><ele>114.0</ele><time>2026-04-26T16:16:31.404Z</time></trkpt><trkpt lat="46.075335" lon="13.2221865"><ele>113.5</ele><time>2026-04-26T16:16:32.404Z</time></trkpt><trkpt lat="46.0754397" lon="13.2220782"><ele>113.0</ele><time>2026-04-26T16:16:33.404Z</time></trkpt><trkpt lat="46.0755475" lon="13.2219704"><ele>113.0</ele><time>2026-04-26T16:16:34.404Z</time></trkpt><trkpt lat="46.0756552" lon="13.2218592"><ele>113.0</ele><time>2026-04-26T16:16:35.404Z</time></trkpt><trkpt lat="46.0757633" lon="13.2217466"><ele>113.0</ele><time>2026-04-26T16:16:36.404Z</time></trkpt><trkpt lat="46.0758707" lon="13.2216319"><ele>113.0</ele><time>2026-04-26T16:16:37.403Z</time></trkpt><trkpt lat="46.0759805" lon="13.2215176"><ele>113.25</ele><time>2026-04-26T16:16:38.404Z</time></trkpt><trkpt lat="46.0760907" lon="13.2214027"><ele>113.5</ele><time>2026-04-26T16:16:39.404Z</time></trkpt><trkpt lat="46.0762016" lon="13.2212863"><ele>113.75</ele><time>2026-04-26T16:16:40.404Z</time></trkpt><trkpt lat="46.0763143" lon="13.2211694"><ele>114.0</ele><time>2026-04-26T16:16:41.404Z</time></trkpt><trkpt lat="46.0764319" lon="13.2210541"><ele>114.0</ele><time>2026-04-26T16:16:42.403Z</time></trkpt><trkpt lat="46.0765496" lon="13.220944"><ele>114.0</ele><time>2026-04-26T16:16:43.405Z</time></trkpt><trkpt lat="46.0766664" lon="13.2208405"><ele>114.0</ele><time>2026-04-26T16:16:44.404Z</time></trkpt><trkpt lat="46.0767835" lon="13.2207375"><ele>114.0</ele><time>2026-04-26T16:16:45.404Z</time></trkpt><trkpt lat="46.0768951" lon="13.220637"><ele>114.5</ele><time>2026-04-26T16:16:46.404Z</time></trkpt><trkpt lat="46.077006" lon="13.2205406"><ele>115.0</ele><time>2026-04-26T16:16:47.404Z</time></trkpt><trkpt lat="46.0771211" lon="13.2204417"><ele>115.5</ele><time>2026-04-26T16:16:48.404Z</time></trkpt><trkpt lat="46.0772424" lon="13.2203416"><ele>116.0</ele><time>2026-04-26T16:16:49.404Z</time></trkpt><trkpt lat="46.0773663" lon="13.2202346"><ele>115.75</ele><time>2026-04-26T16:16:50.404Z</time></trkpt><trkpt lat="46.0774902" lon="13.220123"><ele>115.5</ele><time>2026-04-26T16:16:51.404Z</time></trkpt><trkpt lat="46.0776159" lon="13.2200131"><ele>115.25</ele><time>2026-04-26T16:16:52.404Z</time></trkpt><trkpt lat="46.0777334" lon="13.2199151"><ele>115.0</ele><time>2026-04-26T16:16:53.404Z</time></trkpt><trkpt lat="46.0778514" lon="13.2198199"><ele>114.75</ele><time>2026-04-26T16:16:54.403Z</time></trkpt><trkpt lat="46.0779632" lon="13.2197272"><ele>114.5</ele><time>2026-04-26T16:16:55.403Z</time></trkpt><trkpt lat="46.0780778" lon="13.219633"><ele>114.25</ele><time>2026-04-26T16:16:56.403Z</time></trkpt><trkpt lat="46.0781899" lon="13.2195424"><ele>114.0</ele><time>2026-04-26T16:16:57.404Z</time></trkpt><trkpt lat="46.0782966" lon="13.2194518"><ele>114.0</ele><time>2026-04-26T16:16:58.402Z</time></trkpt><trkpt lat="46.0783976" lon="13.219361"><ele>114.0</ele><time>2026-04-26T16:16:59.404Z</time></trkpt><trkpt lat="46.0784939" lon="13.2192811"><ele>114.0</ele><time>2026-04-26T16:17:00.403Z</time></trkpt><trkpt lat="46.0785828" lon="13.2192009"><ele>114.0</ele><time>2026-04-26T16:17:01.404Z</time></trkpt><trkpt lat="46.0786652" lon="13.2191236"><ele>114.0</ele><time>2026-04-26T16:17:02.402Z</time></trkpt><trkpt lat="46.0787372" lon="13.2190601"><ele>114.0</ele><time>2026-04-26T16:17:03.403Z</time></trkpt><trkpt lat="46.0788075" lon="13.2190107"><ele>114.0</ele><time>2026-04-26T16:17:04.402Z</time></trkpt><trkpt lat="46.0788869" lon="13.2189677"><ele>114.0</ele><time>2026-04-26T16:17:05.403Z</time></trkpt><trkpt lat="46.0789759" lon="13.2189064"><ele>114.0</ele><time>2026-04-26T16:17:06.403Z</time></trkpt><trkpt lat="46.0790821" lon="13.2188363"><ele>114.0</ele><time>2026-04-26T16:17:07.403Z</time></trkpt><trkpt lat="46.0792028" lon="13.2187684"><ele>114.5</ele><time>2026-04-26T16:17:08.403Z</time></trkpt><trkpt lat="46.0793261" lon="13.218701"><ele>115.0</ele><time>2026-04-26T16:17:09.402Z</time></trkpt><trkpt lat="46.0794464" lon="13.2186405"><ele>115.5</ele><time>2026-04-26T16:17:10.403Z</time></trkpt><trkpt lat="46.0795652" lon="13.2185803"><ele>116.0</ele><time>2026-04-26T16:17:11.403Z</time></trkpt><trkpt lat="46.0796839" lon="13.2185226"><ele>116.0</ele><time>2026-04-26T16:17:12.403Z</time></trkpt><trkpt lat="46.079803" lon="13.2184684"><ele>116.0</ele><time>2026-04-26T16:17:13.403Z</time></trkpt><trkpt lat="46.0799202" lon="13.2184129"><ele>116.0</ele><time>2026-04-26T16:17:14.403Z</time></trkpt><trkpt lat="46.0800385" lon="13.2183588"><ele>116.0</ele><time>2026-04-26T16:17:15.402Z</time></trkpt><trkpt lat="46.0801626" lon="13.2182989"><ele>116.5</ele><time>2026-04-26T16:17:16.404Z</time></trkpt><trkpt lat="46.0802889" lon="13.2182409"><ele>117.0</ele><time>2026-04-26T16:17:17.403Z</time></trkpt><trkpt lat="46.0804183" lon="13.2181834"><ele>117.5</ele><time>2026-04-26T16:17:18.403Z</time></trkpt><trkpt lat="46.0805464" lon="13.218123"><ele>118.0</ele><time>2026-04-26T16:17:19.403Z</time></trkpt><trkpt lat="46.080676" lon="13.2180606"><ele>117.75</ele><time>2026-04-26T16:17:20.402Z</time></trkpt><trkpt lat="46.0808032" lon="13.2179982"><ele>117.5</ele><time>2026-04-26T16:17:21.404Z</time></trkpt><trkpt lat="46.0809314" lon="13.217939"><ele>117.25</ele><time>2026-04-26T16:17:22.402Z</time></trkpt><trkpt lat="46.0810597" lon="13.2178786"><ele>117.0</ele><time>2026-04-26T16:17:23.403Z</time></trkpt><trkpt lat="46.0811916" lon="13.21782"><ele>117.0</ele><time>2026-04-26T16:17:24.402Z</time></trkpt><trkpt lat="46.0813217" lon="13.2177578"><ele>117.0</ele><time>2026-04-26T16:17:25.404Z</time></trkpt><trkpt lat="46.081452" lon="13.2176949"><ele>117.0</ele><time>2026-04-26T16:17:26.403Z</time></trkpt><trkpt lat="46.0815803" lon="13.2176334"><ele>117.0</ele><time>2026-04-26T16:17:27.403Z</time></trkpt><trkpt lat="46.0817056" lon="13.2175739"><ele>117.0</ele><time>2026-04-26T16:17:28.402Z</time></trkpt><trkpt lat="46.081829" lon="13.2175154"><ele>117.0</ele><time>2026-04-26T16:17:29.404Z</time></trkpt><trkpt lat="46.0819488" lon="13.2174572"><ele>117.0</ele><time>2026-04-26T16:17:30.404Z</time></trkpt><trkpt lat="46.082066" lon="13.2173978"><ele>117.0</ele><time>2026-04-26T16:17:31.403Z</time></trkpt><trkpt lat="46.0821833" lon="13.2173376"><ele>116.75</ele><time>2026-04-26T16:17:32.404Z</time></trkpt><trkpt lat="46.0823038" lon="13.2172789"><ele>116.5</ele><time>2026-04-26T16:17:33.403Z</time></trkpt><trkpt lat="46.0824247" lon="13.2172197"><ele>116.25</ele><time>2026-04-26T16:17:34.402Z</time></trkpt><trkpt lat="46.0825467" lon="13.2171613"><ele>116.0</ele><time>2026-04-26T16:17:35.404Z</time></trkpt><trkpt lat="46.0826715" lon="13.2171094"><ele>116.5</ele><time>2026-04-26T16:17:36.402Z</time></trkpt><trkpt lat="46.082797" lon="13.2170569"><ele>117.0</ele><time>2026-04-26T16:17:37.402Z</time></trkpt><trkpt lat="46.0829259" lon="13.2170017"><ele>117.5</ele><time>2026-04-26T16:17:38.403Z</time></trkpt><trkpt lat="46.0830668" lon="13.2169418"><ele>118.0</ele><time>2026-04-26T16:17:39.403Z</time></trkpt><trkpt lat="46.0832109" lon="13.2168772"><ele>117.66666666666667</ele><time>2026-04-26T16:17:40.404Z</time></trkpt><trkpt lat="46.0833612" lon="13.2168082"><ele>117.33333333333334</ele><time>2026-04-26T16:17:41.403Z</time></trkpt><trkpt lat="46.083516" lon="13.2167356"><ele>117.0</ele><time>2026-04-26T16:17:42.404Z</time></trkpt><trkpt lat="46.0836665" lon="13.2166655"><ele>117.0</ele><time>2026-04-26T16:17:43.404Z</time></trkpt><trkpt lat="46.0838099" lon="13.2165998"><ele>117.0</ele><time>2026-04-26T16:17:44.403Z</time></trkpt><trkpt lat="46.0839445" lon="13.2165368"><ele>117.0</ele><time>2026-04-26T16:17:45.403Z</time></trkpt><trkpt lat="46.0840748" lon="13.2164734"><ele>117.0</ele><time>2026-04-26T16:17:46.403Z</time></trkpt><trkpt lat="46.084203" lon="13.2164139"><ele>118.25</ele><time>2026-04-26T16:17:47.403Z</time></trkpt><trkpt lat="46.084331" lon="13.2163593"><ele>119.5</ele><time>2026-04-26T16:17:48.403Z</time></trkpt><trkpt lat="46.0844607" lon="13.2163029"><ele>120.75</ele><time>2026-04-26T16:17:49.404Z</time></trkpt><trkpt lat="46.0845917" lon="13.2162483"><ele>122.0</ele><time>2026-04-26T16:17:50.403Z</time></trkpt><trkpt lat="46.0847194" lon="13.2161938"><ele>122.0</ele><time>2026-04-26T16:17:51.402Z</time></trkpt><trkpt lat="46.0848505" lon="13.2161435"><ele>122.0</ele><time>2026-04-26T16:17:52.402Z</time></trkpt><trkpt lat="46.0849814" lon="13.2160868"><ele>122.0</ele><time>2026-04-26T16:17:53.403Z</time></trkpt><trkpt lat="46.0851119" lon="13.2160304"><ele>122.0</ele><time>2026-04-26T16:17:54.402Z</time></trkpt><trkpt lat="46.0852401" lon="13.2159788"><ele>121.39999999999999</ele><time>2026-04-26T16:17:55.404Z</time></trkpt><trkpt lat="46.0853595" lon="13.2159291"><ele>120.79999999999998</ele><time>2026-04-26T16:17:56.403Z</time></trkpt><trkpt lat="46.0854686" lon="13.2158837"><ele>120.2</ele><time>2026-04-26T16:17:57.402Z</time></trkpt><trkpt lat="46.085568" lon="13.2158403"><ele>119.6</ele><time>2026-04-26T16:17:58.402Z</time></trkpt><trkpt lat="46.0856547" lon="13.2157864"><ele>119.0</ele><time>2026-04-26T16:17:59.403Z</time></trkpt><trkpt lat="46.0857285" lon="13.2157164"><ele>118.83333333333333</ele><time>2026-04-26T16:18:00.403Z</time></trkpt><trkpt lat="46.0857965" lon="13.2156322"><ele>118.66666666666666</ele><time>2026-04-26T16:18:01.402Z</time></trkpt><trkpt lat="46.0858645" lon="13.2155472"><ele>118.5</ele><time>2026-04-26T16:18:02.403Z</time></trkpt><trkpt lat="46.0859324" lon="13.2154747"><ele>118.33333333333334</ele><time>2026-04-26T16:18:03.403Z</time></trkpt><trkpt lat="46.0860001" lon="13.215419"><ele>118.16666666666667</ele><time>2026-04-26T16:18:04.403Z</time></trkpt><trkpt lat="46.0860678" lon="13.2153756"><ele>118.0</ele><time>2026-04-26T16:18:05.403Z</time></trkpt><trkpt lat="46.0861353" lon="13.2153627"><ele>118.00000000000001</ele><time>2026-04-26T16:18:06.403Z</time></trkpt><trkpt lat="46.0862023" lon="13.2153859"><ele>118.0</ele><time>2026-04-26T16:18:07.403Z</time></trkpt><trkpt lat="46.0862737" lon="13.2154304"><ele>118.0</ele><time>2026-04-26T16:18:08.403Z</time></trkpt><trkpt lat="46.0863634" lon="13.2154508"><ele>118.0</ele><time>2026-04-26T16:18:09.403Z</time></trkpt><trkpt lat="46.0864558" lon="13.2154256"><ele>118.00000000000001</ele><time>2026-04-26T16:18:10.402Z</time></trkpt><trkpt lat="46.0865481" lon="13.2153905"><ele>118.0</ele><time>2026-04-26T16:18:11.403Z</time></trkpt><trkpt lat="46.0866459" lon="13.2153689"><ele>119.0</ele><time>2026-04-26T16:18:12.403Z</time></trkpt><trkpt lat="46.0867547" lon="13.2153526"><ele>120.0</ele><time>2026-04-26T16:18:13.403Z</time></trkpt><trkpt lat="46.08687" lon="13.2153141"><ele>121.0</ele><time>2026-04-26T16:18:14.403Z</time></trkpt><trkpt lat="46.0869848" lon="13.215273"><ele>122.0</ele><time>2026-04-26T16:18:15.403Z</time></trkpt><trkpt lat="46.0871029" lon="13.2152363"><ele>122.0</ele><time>2026-04-26T16:18:16.404Z</time></trkpt><trkpt lat="46.0872176" lon="13.2151975"><ele>122.0</ele><time>2026-04-26T16:18:17.403Z</time></trkpt><trkpt lat="46.0873353" lon="13.2151615"><ele>122.0</ele><time>2026-04-26T16:18:18.404Z</time></trkpt><trkpt lat="46.0874515" lon="13.2151251"><ele>122.0</ele><time>2026-04-26T16:18:19.404Z</time></trkpt><trkpt lat="46.0875681" lon="13.2150906"><ele>121.75</ele><time>2026-04-26T16:18:20.402Z</time></trkpt><trkpt lat="46.0876886" lon="13.2150549"><ele>121.5</ele><time>2026-04-26T16:18:21.403Z</time></trkpt><trkpt lat="46.0878131" lon="13.2150146"><ele>121.25</ele><time>2026-04-26T16:18:22.403Z</time></trkpt><trkpt lat="46.0879403" lon="13.2149752"><ele>121.0</ele><time>2026-04-26T16:18:23.402Z</time></trkpt><trkpt lat="46.088071" lon="13.2149342"><ele>121.0</ele><time>2026-04-26T16:18:24.403Z</time></trkpt><trkpt lat="46.0882037" lon="13.2148913"><ele>121.0</ele><time>2026-04-26T16:18:25.404Z</time></trkpt><trkpt lat="46.0883344" lon="13.2148469"><ele>121.0</ele><time>2026-04-26T16:18:26.403Z</time></trkpt><trkpt lat="46.0884664" lon="13.2147994"><ele>121.0</ele><time>2026-04-26T16:18:27.403Z</time></trkpt><trkpt lat="46.0885969" lon="13.2147514"><ele>121.5</ele><time>2026-04-26T16:18:28.404Z</time></trkpt><trkpt lat="46.0887242" lon="13.2147001"><ele>122.0</ele><time>2026-04-26T16:18:29.403Z</time></trkpt><trkpt lat="46.0888515" lon="13.2146488"><ele>122.5</ele><time>2026-04-26T16:18:30.402Z</time></trkpt><trkpt lat="46.0889808" lon="13.2145934"><ele>123.0</ele><time>2026-04-26T16:18:31.403Z</time></trkpt><trkpt lat="46.0891111" lon="13.2145343"><ele>123.25</ele><time>2026-04-26T16:18:32.403Z</time></trkpt><trkpt lat="46.0892398" lon="13.2144789"><ele>123.5</ele><time>2026-04-26T16:18:33.402Z</time></trkpt><trkpt lat="46.0893682" lon="13.2144255"><ele>123.75</ele><time>2026-04-26T16:18:34.404Z</time></trkpt><trkpt lat="46.0894994" lon="13.2143724"><ele>124.0</ele><time>2026-04-26T16:18:35.402Z</time></trkpt><trkpt lat="46.0896362" lon="13.2143328"><ele>124.0</ele><time>2026-04-26T16:18:36.403Z</time></trkpt><trkpt lat="46.0897793" lon="13.2143086"><ele>124.0</ele><time>2026-04-26T16:18:37.404Z</time></trkpt><trkpt lat="46.0899267" lon="13.2142927"><ele>124.0</ele><time>2026-04-26T16:18:38.403Z</time></trkpt><trkpt lat="46.0900723" lon="13.2142781"><ele>124.0</ele><time>2026-04-26T16:18:39.403Z</time></trkpt><trkpt lat="46.0902171" lon="13.2142653"><ele>123.5</ele><time>2026-04-26T16:18:40.404Z</time></trkpt><trkpt lat="46.0903603" lon="13.2142526"><ele>123.0</ele><time>2026-04-26T16:18:41.402Z</time></trkpt><trkpt lat="46.0904984" lon="13.2142396"><ele>122.5</ele><time>2026-04-26T16:18:42.403Z</time></trkpt><trkpt lat="46.0906316" lon="13.2142245"><ele>122.0</ele><time>2026-04-26T16:18:43.404Z</time></trkpt><trkpt lat="46.0907666" lon="13.2142092"><ele>121.75</ele><time>2026-04-26T16:18:44.403Z</time></trkpt><trkpt lat="46.0909033" lon="13.2141977"><ele>121.5</ele><time>2026-04-26T16:18:45.403Z</time></trkpt><trkpt lat="46.0910438" lon="13.2141923"><ele>121.25</ele><time>2026-04-26T16:18:46.402Z</time></trkpt><trkpt lat="46.0911909" lon="13.2142057"><ele>121.0</ele><time>2026-04-26T16:18:47.403Z</time></trkpt><trkpt lat="46.0913394" lon="13.2142371"><ele>121.0</ele><time>2026-04-26T16:18:48.404Z</time></trkpt><trkpt lat="46.0914817" lon="13.2142778"><ele>121.0</ele><time>2026-04-26T16:18:49.402Z</time></trkpt><trkpt lat="46.091619" lon="13.2143198"><ele>121.0</ele><time>2026-04-26T16:18:50.402Z</time></trkpt><trkpt lat="46.0917534" lon="13.2143592"><ele>121.0</ele><time>2026-04-26T16:18:51.404Z</time></trkpt><trkpt lat="46.0918825" lon="13.2143967"><ele>121.25</ele><time>2026-04-26T16:18:52.402Z</time></trkpt><trkpt lat="46.0920047" lon="13.2144312"><ele>121.5</ele><time>2026-04-26T16:18:53.403Z</time></trkpt><trkpt lat="46.0921209" lon="13.2144661"><ele>121.75</ele><time>2026-04-26T16:18:54.404Z</time></trkpt><trkpt lat="46.0922283" lon="13.214499"><ele>122.0</ele><time>2026-04-26T16:18:55.403Z</time></trkpt><trkpt lat="46.0923277" lon="13.2145352"><ele>121.99999999999999</ele><time>2026-04-26T16:18:56.404Z</time></trkpt><trkpt lat="46.0924122" lon="13.214585"><ele>122.0</ele><time>2026-04-26T16:18:57.403Z</time></trkpt><trkpt lat="46.0924807" lon="13.2146539"><ele>122.0</ele><time>2026-04-26T16:18:58.403Z</time></trkpt><trkpt lat="46.0925328" lon="13.2147418"><ele>122.0</ele><time>2026-04-26T16:18:59.403Z</time></trkpt><trkpt lat="46.0925653" lon="13.2148527"><ele>121.99999999999999</ele><time>2026-04-26T16:19:00.402Z</time></trkpt><trkpt lat="46.0925809" lon="13.2149932"><ele>122.0</ele><time>2026-04-26T16:19:01.403Z</time></trkpt><trkpt lat="46.0925945" lon="13.2151495"><ele>122.19999999999999</ele><time>2026-04-26T16:19:02.403Z</time></trkpt><trkpt lat="46.0926251" lon="13.215308"><ele>122.39999999999999</ele><time>2026-04-26T16:19:03.403Z</time></trkpt><trkpt lat="46.0926753" lon="13.2154538"><ele>122.60000000000001</ele><time>2026-04-26T16:19:04.403Z</time></trkpt><trkpt lat="46.0927449" lon="13.2155783"><ele>122.80000000000001</ele><time>2026-04-26T16:19:05.403Z</time></trkpt><trkpt lat="46.0928288" lon="13.2156747"><ele>123.0</ele><time>2026-04-26T16:19:06.404Z</time></trkpt><trkpt lat="46.0929274" lon="13.2157473"><ele>123.0</ele><time>2026-04-26T16:19:07.403Z</time></trkpt><trkpt lat="46.0930301" lon="13.2157846"><ele>123.00000000000001</ele><time>2026-04-26T16:19:08.404Z</time></trkpt><trkpt lat="46.0931329" lon="13.2157806"><ele>123.00000000000001</ele><time>2026-04-26T16:19:09.402Z</time></trkpt><trkpt lat="46.093232" lon="13.2157485"><ele>123.0</ele><time>2026-04-26T16:19:10.403Z</time></trkpt><trkpt lat="46.0933224" lon="13.2156821"><ele>123.0</ele><time>2026-04-26T16:19:11.403Z</time></trkpt><trkpt lat="46.093402" lon="13.2155889"><ele>123.0</ele><time>2026-04-26T16:19:12.402Z</time></trkpt><trkpt lat="46.0934634" lon="13.2154689"><ele>123.00000000000001</ele><time>2026-04-26T16:19:13.403Z</time></trkpt><trkpt lat="46.0935136" lon="13.2153288"><ele>123.00000000000001</ele><time>2026-04-26T16:19:14.403Z</time></trkpt><trkpt lat="46.0935567" lon="13.21518"><ele>123.0</ele><time>2026-04-26T16:19:15.403Z</time></trkpt><trkpt lat="46.0936103" lon="13.2150294"><ele>123.0</ele><time>2026-04-26T16:19:16.403Z</time></trkpt><trkpt lat="46.0936817" lon="13.2148822"><ele>123.25</ele><time>2026-04-26T16:19:17.402Z</time></trkpt><trkpt lat="46.0937628" lon="13.2147448"><ele>123.5</ele><time>2026-04-26T16:19:18.403Z</time></trkpt><trkpt lat="46.0938486" lon="13.2146197"><ele>123.75</ele><time>2026-04-26T16:19:19.402Z</time></trkpt><trkpt lat="46.0939371" lon="13.2144985"><ele>124.0</ele><time>2026-04-26T16:19:20.403Z</time></trkpt><trkpt lat="46.0940295" lon="13.214382"><ele>124.25</ele><time>2026-04-26T16:19:21.403Z</time></trkpt><trkpt lat="46.0941278" lon="13.2142627"><ele>124.5</ele><time>2026-04-26T16:19:22.403Z</time></trkpt><trkpt lat="46.0942321" lon="13.2141364"><ele>124.75</ele><time>2026-04-26T16:19:23.403Z</time></trkpt><trkpt lat="46.0943378" lon="13.2140101"><ele>125.0</ele><time>2026-04-26T16:19:24.403Z</time></trkpt><trkpt lat="46.0944473" lon="13.2138901"><ele>125.0</ele><time>2026-04-26T16:19:25.403Z</time></trkpt><trkpt lat="46.0945583" lon="13.2137708"><ele>125.0</ele><time>2026-04-26T16:19:26.403Z</time></trkpt><trkpt lat="46.0946654" lon="13.2136494"><ele>125.0</ele><time>2026-04-26T16:19:27.403Z</time></trkpt><trkpt lat="46.0947732" lon="13.2135234"><ele>125.0</ele><time>2026-04-26T16:19:28.403Z</time></trkpt><trkpt lat="46.0948812" lon="13.2133919"><ele>125.0</ele><time>2026-04-26T16:19:29.404Z</time></trkpt><trkpt lat="46.0949886" lon="13.2132589"><ele>125.0</ele><time>2026-04-26T16:19:30.402Z</time></trkpt><trkpt lat="46.0950981" lon="13.2131214"><ele>125.0</ele><time>2026-04-26T16:19:31.403Z</time></trkpt><trkpt lat="46.0952108" lon="13.2129769"><ele>125.0</ele><time>2026-04-26T16:19:32.403Z</time></trkpt><trkpt lat="46.0953251" lon="13.212829"><ele>125.33333333333333</ele><time>2026-04-26T16:19:33.403Z</time></trkpt><trkpt lat="46.095445" lon="13.2126761"><ele>125.66666666666666</ele><time>2026-04-26T16:19:34.402Z</time></trkpt><trkpt lat="46.0955743" lon="13.2125129"><ele>126.0</ele><time>2026-04-26T16:19:35.404Z</time></trkpt><trkpt lat="46.0957045" lon="13.2123475"><ele>125.33333333333334</ele><time>2026-04-26T16:19:36.403Z</time></trkpt><trkpt lat="46.0958343" lon="13.2121829"><ele>124.66666666666667</ele><time>2026-04-26T16:19:37.403Z</time></trkpt><trkpt lat="46.0959646" lon="13.2120169"><ele>124.0</ele><time>2026-04-26T16:19:38.403Z</time></trkpt><trkpt lat="46.0960921" lon="13.2118511"><ele>124.0</ele><time>2026-04-26T16:19:39.404Z</time></trkpt><trkpt lat="46.0962215" lon="13.2116884"><ele>124.0</ele><time>2026-04-26T16:19:40.402Z</time></trkpt><trkpt lat="46.0963554" lon="13.2115201"><ele>124.0</ele><time>2026-04-26T16:19:41.403Z</time></trkpt><trkpt lat="46.0964907" lon="13.2113471"><ele>125.33333333333334</ele><time>2026-04-26T16:19:42.403Z</time></trkpt><trkpt lat="46.0966244" lon="13.2111779"><ele>126.66666666666666</ele><time>2026-04-26T16:19:43.403Z</time></trkpt><trkpt lat="46.0967574" lon="13.2110089"><ele>128.0</ele><time>2026-04-26T16:19:44.402Z</time></trkpt><trkpt lat="46.0968888" lon="13.2108402"><ele>128.0</ele><time>2026-04-26T16:19:45.403Z</time></trkpt><trkpt lat="46.0970183" lon="13.210672"><ele>128.0</ele><time>2026-04-26T16:19:46.403Z</time></trkpt><trkpt lat="46.0971485" lon="13.2105066"><ele>128.0</ele><time>2026-04-26T16:19:47.403Z</time></trkpt><trkpt lat="46.0972783" lon="13.2103417"><ele>128.0</ele><time>2026-04-26T16:19:48.403Z</time></trkpt><trkpt lat="46.0974079" lon="13.2101783"><ele>128.0</ele><time>2026-04-26T16:19:49.404Z</time></trkpt><trkpt lat="46.0975366" lon="13.2100147"><ele>128.0</ele><time>2026-04-26T16:19:50.403Z</time></trkpt><trkpt lat="46.0976652" lon="13.2098519"><ele>127.33333333333333</ele><time>2026-04-26T16:19:51.403Z</time></trkpt><trkpt lat="46.0977933" lon="13.2096902"><ele>126.66666666666666</ele><time>2026-04-26T16:19:52.404Z</time></trkpt><trkpt lat="46.0979203" lon="13.209525"><ele>126.0</ele><time>2026-04-26T16:19:53.402Z</time></trkpt><trkpt lat="46.0980485" lon="13.20936"><ele>126.0</ele><time>2026-04-26T16:19:54.404Z</time></trkpt><trkpt lat="46.0981772" lon="13.2091908"><ele>126.0</ele><time>2026-04-26T16:19:55.403Z</time></trkpt><trkpt lat="46.0983096" lon="13.2090229"><ele>126.0</ele><time>2026-04-26T16:19:56.403Z</time></trkpt><trkpt lat="46.0984452" lon="13.2088508"><ele>127.0</ele><time>2026-04-26T16:19:57.403Z</time></trkpt><trkpt lat="46.0985841" lon="13.2086763"><ele>128.0</ele><time>2026-04-26T16:19:58.403Z</time></trkpt><trkpt lat="46.0987212" lon="13.2085009"><ele>129.0</ele><time>2026-04-26T16:19:59.404Z</time></trkpt><trkpt lat="46.0988596" lon="13.2083248"><ele>129.0</ele><time>2026-04-26T16:20:00.403Z</time></trkpt><trkpt lat="46.0989986" lon="13.2081461"><ele>129.0</ele><time>2026-04-26T16:20:01.403Z</time></trkpt><trkpt lat="46.0991407" lon="13.2079645"><ele>129.0</ele><time>2026-04-26T16:20:02.403Z</time></trkpt><trkpt lat="46.0992824" lon="13.2077822"><ele>128.66666666666666</ele><time>2026-04-26T16:20:03.403Z</time></trkpt><trkpt lat="46.0994242" lon="13.2076046"><ele>128.33333333333331</ele><time>2026-04-26T16:20:04.402Z</time></trkpt><trkpt lat="46.0995599" lon="13.2074294"><ele>128.0</ele><time>2026-04-26T16:20:05.403Z</time></trkpt><trkpt lat="46.099695" lon="13.2072535"><ele>128.0</ele><time>2026-04-26T16:20:06.403Z</time></trkpt><trkpt lat="46.0998303" lon="13.2070825"><ele>128.0</ele><time>2026-04-26T16:20:07.402Z</time></trkpt><trkpt lat="46.0999637" lon="13.2069135"><ele>128.0</ele><time>2026-04-26T16:20:08.403Z</time></trkpt><trkpt lat="46.1000945" lon="13.2067456"><ele>128.0</ele><time>2026-04-26T16:20:09.403Z</time></trkpt><trkpt lat="46.100229" lon="13.2065797"><ele>128.0</ele><time>2026-04-26T16:20:10.403Z</time></trkpt><trkpt lat="46.1003621" lon="13.2064104"><ele>128.0</ele><time>2026-04-26T16:20:11.403Z</time></trkpt><trkpt lat="46.1004969" lon="13.2062363"><ele>128.0</ele><time>2026-04-26T16:20:12.403Z</time></trkpt><trkpt lat="46.1006316" lon="13.2060631"><ele>128.0</ele><time>2026-04-26T16:20:13.403Z</time></trkpt><trkpt lat="46.1007686" lon="13.2058874"><ele>128.0</ele><time>2026-04-26T16:20:14.403Z</time></trkpt><trkpt lat="46.1009062" lon="13.2057108"><ele>128.0</ele><time>2026-04-26T16:20:15.402Z</time></trkpt><trkpt lat="46.1010424" lon="13.2055388"><ele>128.0</ele><time>2026-04-26T16:20:16.402Z</time></trkpt><trkpt lat="46.1011737" lon="13.20537"><ele>128.0</ele><time>2026-04-26T16:20:17.404Z</time></trkpt><trkpt lat="46.1013031" lon="13.205206"><ele>128.0</ele><time>2026-04-26T16:20:18.402Z</time></trkpt><trkpt lat="46.1014325" lon="13.2050464"><ele>128.0</ele><time>2026-04-26T16:20:19.403Z</time></trkpt><trkpt lat="46.1015599" lon="13.2048888"><ele>128.0</ele><time>2026-04-26T16:20:20.402Z</time></trkpt><trkpt lat="46.1016866" lon="13.2047249"><ele>128.0</ele><time>2026-04-26T16:20:21.403Z</time></trkpt><trkpt lat="46.1018188" lon="13.2045539"><ele>128.0</ele><time>2026-04-26T16:20:22.403Z</time></trkpt><trkpt lat="46.1019548" lon="13.2043798"><ele>128.0</ele><time>2026-04-26T16:20:23.404Z</time></trkpt><trkpt lat="46.1020929" lon="13.2042019"><ele>128.0</ele><time>2026-04-26T16:20:24.402Z</time></trkpt><trkpt lat="46.1022315" lon="13.2040236"><ele>128.0</ele><time>2026-04-26T16:20:25.403Z</time></trkpt><trkpt lat="46.1023729" lon="13.2038485"><ele>128.0</ele><time>2026-04-26T16:20:26.403Z</time></trkpt><trkpt lat="46.1025139" lon="13.2036701"><ele>127.66666666666666</ele><time>2026-04-26T16:20:27.403Z</time></trkpt><trkpt lat="46.1026527" lon="13.2034937"><ele>127.33333333333334</ele><time>2026-04-26T16:20:28.403Z</time></trkpt><trkpt lat="46.1027903" lon="13.2033179"><ele>127.0</ele><time>2026-04-26T16:20:29.403Z</time></trkpt><trkpt lat="46.1029261" lon="13.2031421"><ele>126.66666666666667</ele><time>2026-04-26T16:20:30.403Z</time></trkpt><trkpt lat="46.1030634" lon="13.2029664"><ele>126.33333333333334</ele><time>2026-04-26T16:20:31.402Z</time></trkpt><trkpt lat="46.1032" lon="13.2027923"><ele>126.0</ele><time>2026-04-26T16:20:32.403Z</time></trkpt><trkpt lat="46.1033365" lon="13.2026205"><ele>126.0</ele><time>2026-04-26T16:20:33.403Z</time></trkpt><trkpt lat="46.1034698" lon="13.2024521"><ele>126.0</ele><time>2026-04-26T16:20:34.403Z</time></trkpt><trkpt lat="46.103601" lon="13.202289"><ele>126.0</ele><time>2026-04-26T16:20:35.402Z</time></trkpt><trkpt lat="46.1037306" lon="13.2021262"><ele>126.0</ele><time>2026-04-26T16:20:36.403Z</time></trkpt><trkpt lat="46.1038561" lon="13.2019665"><ele>126.0</ele><time>2026-04-26T16:20:37.403Z</time></trkpt><trkpt lat="46.1039791" lon="13.2018072"><ele>126.0</ele><time>2026-04-26T16:20:38.402Z</time></trkpt><trkpt lat="46.1041026" lon="13.2016479"><ele>126.33333333333334</ele><time>2026-04-26T16:20:39.403Z</time></trkpt><trkpt lat="46.1042271" lon="13.20149"><ele>126.66666666666667</ele><time>2026-04-26T16:20:40.403Z</time></trkpt><trkpt lat="46.1043526" lon="13.2013325"><ele>127.0</ele><time>2026-04-26T16:20:41.403Z</time></trkpt><trkpt lat="46.10448" lon="13.2011754"><ele>127.0</ele><time>2026-04-26T16:20:42.403Z</time></trkpt><trkpt lat="46.1046058" lon="13.201016"><ele>127.0</ele><time>2026-04-26T16:20:43.403Z</time></trkpt><trkpt lat="46.104735" lon="13.2008576"><ele>127.0</ele><time>2026-04-26T16:20:44.403Z</time></trkpt><trkpt lat="46.104864" lon="13.2006996"><ele>127.66666666666667</ele><time>2026-04-26T16:20:45.402Z</time></trkpt><trkpt lat="46.1049912" lon="13.2005417"><ele>128.33333333333334</ele><time>2026-04-26T16:20:46.403Z</time></trkpt><trkpt lat="46.1051154" lon="13.2003866"><ele>129.0</ele><time>2026-04-26T16:20:47.403Z</time></trkpt><trkpt lat="46.1052366" lon="13.2002336"><ele>129.0</ele><time>2026-04-26T16:20:48.403Z</time></trkpt><trkpt lat="46.1053552" lon="13.2000832"><ele>129.0</ele><time>2026-04-26T16:20:49.404Z</time></trkpt><trkpt lat="46.1054731" lon="13.1999341"><ele>129.0</ele><time>2026-04-26T16:20:50.403Z</time></trkpt><trkpt lat="46.1055963" lon="13.1997815"><ele>128.66666666666666</ele><time>2026-04-26T16:20:51.402Z</time></trkpt><trkpt lat="46.1057258" lon="13.1996176"><ele>128.33333333333331</ele><time>2026-04-26T16:20:52.402Z</time></trkpt><trkpt lat="46.1058576" lon="13.199442"><ele>128.0</ele><time>2026-04-26T16:20:53.402Z</time></trkpt><trkpt lat="46.1059921" lon="13.1992643"><ele>128.0</ele><time>2026-04-26T16:20:54.403Z</time></trkpt><trkpt lat="46.1061292" lon="13.1990882"><ele>128.0</ele><time>2026-04-26T16:20:55.404Z</time></trkpt><trkpt lat="46.1062662" lon="13.1989131"><ele>128.0</ele><time>2026-04-26T16:20:56.402Z</time></trkpt><trkpt lat="46.106401" lon="13.1987383"><ele>128.0</ele><time>2026-04-26T16:20:57.404Z</time></trkpt><trkpt lat="46.1065367" lon="13.1985624"><ele>128.0</ele><time>2026-04-26T16:20:58.403Z</time></trkpt><trkpt lat="46.1066712" lon="13.1983872"><ele>128.0</ele><time>2026-04-26T16:20:59.404Z</time></trkpt><trkpt lat="46.1068056" lon="13.1982154"><ele>128.0</ele><time>2026-04-26T16:21:00.403Z</time></trkpt><trkpt lat="46.1069389" lon="13.1980419"><ele>128.0</ele><time>2026-04-26T16:21:01.404Z</time></trkpt><trkpt lat="46.1070736" lon="13.1978646"><ele>128.0</ele><time>2026-04-26T16:21:02.403Z</time></trkpt><trkpt lat="46.1072063" lon="13.1976912"><ele>128.0</ele><time>2026-04-26T16:21:03.403Z</time></trkpt><trkpt lat="46.10734" lon="13.1975256"><ele>128.0</ele><time>2026-04-26T16:21:04.403Z</time></trkpt><trkpt lat="46.1074772" lon="13.1973683"><ele>128.0</ele><time>2026-04-26T16:21:05.403Z</time></trkpt><trkpt lat="46.1076185" lon="13.1972265"><ele>128.0</ele><time>2026-04-26T16:21:06.404Z</time></trkpt><trkpt lat="46.1077657" lon="13.1971035"><ele>128.0</ele><time>2026-04-26T16:21:07.403Z</time></trkpt><trkpt lat="46.1079167" lon="13.1970006"><ele>128.0</ele><time>2026-04-26T16:21:08.403Z</time></trkpt><trkpt lat="46.1080739" lon="13.1969142"><ele>128.0</ele><time>2026-04-26T16:21:09.403Z</time></trkpt><trkpt lat="46.1082309" lon="13.1968401"><ele>128.0</ele><time>2026-04-26T16:21:10.403Z</time></trkpt><trkpt lat="46.1083915" lon="13.1967858"><ele>128.0</ele><time>2026-04-26T16:21:11.403Z</time></trkpt><trkpt lat="46.1085511" lon="13.1967509"><ele>128.66666666666666</ele><time>2026-04-26T16:21:12.404Z</time></trkpt><trkpt lat="46.1087129" lon="13.1967321"><ele>129.33333333333334</ele><time>2026-04-26T16:21:13.403Z</time></trkpt><trkpt lat="46.1088756" lon="13.1967301"><ele>130.0</ele><time>2026-04-26T16:21:14.403Z</time></trkpt><trkpt lat="46.1090406" lon="13.1967445"><ele>129.66666666666669</ele><time>2026-04-26T16:21:15.402Z</time></trkpt><trkpt lat="46.1092044" lon="13.1967791"><ele>129.33333333333334</ele><time>2026-04-26T16:21:16.404Z</time></trkpt><trkpt lat="46.1093658" lon="13.1968286"><ele>129.0</ele><time>2026-04-26T16:21:17.403Z</time></trkpt><trkpt lat="46.1095289" lon="13.1968841"><ele>129.0</ele><time>2026-04-26T16:21:18.403Z</time></trkpt><trkpt lat="46.1096944" lon="13.1969448"><ele>129.0</ele><time>2026-04-26T16:21:19.403Z</time></trkpt><trkpt lat="46.1098607" lon="13.1969998"><ele>129.0</ele><time>2026-04-26T16:21:20.404Z</time></trkpt><trkpt lat="46.1100289" lon="13.1970573"><ele>128.66666666666666</ele><time>2026-04-26T16:21:21.403Z</time></trkpt><trkpt lat="46.1101991" lon="13.197117"><ele>128.33333333333331</ele><time>2026-04-26T16:21:22.403Z</time></trkpt><trkpt lat="46.110369" lon="13.1971777"><ele>128.0</ele><time>2026-04-26T16:21:23.403Z</time></trkpt><trkpt lat="46.1105414" lon="13.1972375"><ele>128.0</ele><time>2026-04-26T16:21:24.403Z</time></trkpt><trkpt lat="46.1107141" lon="13.1973006"><ele>128.0</ele><time>2026-04-26T16:21:25.403Z</time></trkpt><trkpt lat="46.1108891" lon="13.197364"><ele>128.0</ele><time>2026-04-26T16:21:26.404Z</time></trkpt><trkpt lat="46.1110665" lon="13.197427"><ele>128.66666666666666</ele><time>2026-04-26T16:21:27.403Z</time></trkpt><trkpt lat="46.1112452" lon="13.1974921"><ele>129.33333333333334</ele><time>2026-04-26T16:21:28.404Z</time></trkpt><trkpt lat="46.1114262" lon="13.1975564"><ele>130.0</ele><time>2026-04-26T16:21:29.403Z</time></trkpt><trkpt lat="46.1116095" lon="13.1976206"><ele>130.0</ele><time>2026-04-26T16:21:30.404Z</time></trkpt><trkpt lat="46.1117905" lon="13.1976751"><ele>130.0</ele><time>2026-04-26T16:21:31.403Z</time></trkpt><trkpt lat="46.111967" lon="13.1977143"><ele>130.0</ele><time>2026-04-26T16:21:32.403Z</time></trkpt><trkpt lat="46.1121441" lon="13.1977343"><ele>130.0</ele><time>2026-04-26T16:21:33.403Z</time></trkpt><trkpt lat="46.1123167" lon="13.197739"><ele>130.0</ele><time>2026-04-26T16:21:34.404Z</time></trkpt><trkpt lat="46.1124884" lon="13.1977221"><ele>130.0</ele><time>2026-04-26T16:21:35.403Z</time></trkpt><trkpt lat="46.1126537" lon="13.1976838"><ele>129.66666666666669</ele><time>2026-04-26T16:21:36.403Z</time></trkpt><trkpt lat="46.1128151" lon="13.1976303"><ele>129.33333333333334</ele><time>2026-04-26T16:21:37.403Z</time></trkpt><trkpt lat="46.1129673" lon="13.1975543"><ele>129.0</ele><time>2026-04-26T16:21:38.403Z</time></trkpt><trkpt lat="46.1131127" lon="13.1974646"><ele>128.66666666666666</ele><time>2026-04-26T16:21:39.404Z</time></trkpt><trkpt lat="46.1132515" lon="13.1973595"><ele>128.33333333333331</ele><time>2026-04-26T16:21:40.404Z</time></trkpt><trkpt lat="46.1133848" lon="13.1972391"><ele>128.0</ele><time>2026-04-26T16:21:41.402Z</time></trkpt><trkpt lat="46.1135137" lon="13.197108"><ele>128.66666666666666</ele><time>2026-04-26T16:21:42.404Z</time></trkpt><trkpt lat="46.1136388" lon="13.1969691"><ele>129.33333333333334</ele><time>2026-04-26T16:21:43.403Z</time></trkpt><trkpt lat="46.1137632" lon="13.1968316"><ele>130.0</ele><time>2026-04-26T16:21:44.403Z</time></trkpt><trkpt lat="46.1138926" lon="13.1966959"><ele>130.0</ele><time>2026-04-26T16:21:45.402Z</time></trkpt><trkpt lat="46.1140229" lon="13.1965615"><ele>130.0</ele><time>2026-04-26T16:21:46.404Z</time></trkpt><trkpt lat="46.1141565" lon="13.1964244"><ele>130.0</ele><time>2026-04-26T16:21:47.402Z</time></trkpt><trkpt lat="46.1142911" lon="13.1962883"><ele>128.33333333333334</ele><time>2026-04-26T16:21:48.402Z</time></trkpt><trkpt lat="46.1144308" lon="13.1961505"><ele>126.66666666666666</ele><time>2026-04-26T16:21:49.403Z</time></trkpt><trkpt lat="46.1145742" lon="13.1960058"><ele>125.0</ele><time>2026-04-26T16:21:50.403Z</time></trkpt><trkpt lat="46.1147184" lon="13.1958605"><ele>125.0</ele><time>2026-04-26T16:21:51.403Z</time></trkpt><trkpt lat="46.1148642" lon="13.1957145"><ele>125.0</ele><time>2026-04-26T16:21:52.402Z</time></trkpt><trkpt lat="46.1150103" lon="13.1955657"><ele>125.0</ele><time>2026-04-26T16:21:53.403Z</time></trkpt><trkpt lat="46.1151581" lon="13.1954168"><ele>125.0</ele><time>2026-04-26T16:21:54.403Z</time></trkpt><trkpt lat="46.115308" lon="13.1952631"><ele>125.0</ele><time>2026-04-26T16:21:55.403Z</time></trkpt><trkpt lat="46.1154569" lon="13.1951111"><ele>125.0</ele><time>2026-04-26T16:21:56.403Z</time></trkpt><trkpt lat="46.115608" lon="13.1949579"><ele>130.33333333333331</ele><time>2026-04-26T16:21:57.402Z</time></trkpt><trkpt lat="46.1157583" lon="13.1948059"><ele>135.66666666666666</ele><time>2026-04-26T16:21:58.402Z</time></trkpt><trkpt lat="46.1159116" lon="13.1946509"><ele>141.0</ele><time>2026-04-26T16:21:59.403Z</time></trkpt><trkpt lat="46.1160621" lon="13.1945002"><ele>141.0</ele><time>2026-04-26T16:22:00.402Z</time></trkpt><trkpt lat="46.1162113" lon="13.1943527"><ele>141.0</ele><time>2026-04-26T16:22:01.402Z</time></trkpt><trkpt lat="46.1163567" lon="13.1942103"><ele>141.0</ele><time>2026-04-26T16:22:02.403Z</time></trkpt><trkpt lat="46.1165006" lon="13.1940823"><ele>143.0</ele><time>2026-04-26T16:22:03.403Z</time></trkpt><trkpt lat="46.1166459" lon="13.1939627"><ele>145.0</ele><time>2026-04-26T16:22:04.403Z</time></trkpt><trkpt lat="46.1167914" lon="13.1938505"><ele>147.0</ele><time>2026-04-26T16:22:05.404Z</time></trkpt><trkpt lat="46.1169407" lon="13.1937444"><ele>147.0</ele><time>2026-04-26T16:22:06.403Z</time></trkpt><trkpt lat="46.1170919" lon="13.1936335"><ele>147.0</ele><time>2026-04-26T16:22:07.403Z</time></trkpt><trkpt lat="46.1172449" lon="13.1935217"><ele>147.0</ele><time>2026-04-26T16:22:08.403Z</time></trkpt><trkpt lat="46.1174007" lon="13.1934098"><ele>146.33333333333334</ele><time>2026-04-26T16:22:09.402Z</time></trkpt><trkpt lat="46.1175587" lon="13.1932946"><ele>145.66666666666669</ele><time>2026-04-26T16:22:10.404Z</time></trkpt><trkpt lat="46.1177184" lon="13.1931815"><ele>145.0</ele><time>2026-04-26T16:22:11.402Z</time></trkpt><trkpt lat="46.1178789" lon="13.1930678"><ele>145.33333333333334</ele><time>2026-04-26T16:22:12.404Z</time></trkpt><trkpt lat="46.1180396" lon="13.1929542"><ele>145.66666666666666</ele><time>2026-04-26T16:22:13.403Z</time></trkpt><trkpt lat="46.1182008" lon="13.192842"><ele>146.0</ele><time>2026-04-26T16:22:14.402Z</time></trkpt><trkpt lat="46.1183621" lon="13.1927301"><ele>146.0</ele><time>2026-04-26T16:22:15.403Z</time></trkpt><trkpt lat="46.1185215" lon="13.1926155"><ele>146.0</ele><time>2026-04-26T16:22:16.404Z</time></trkpt><trkpt lat="46.1186794" lon="13.1925034"><ele>146.0</ele><time>2026-04-26T16:22:17.403Z</time></trkpt><trkpt lat="46.1188409" lon="13.1923889"><ele>148.0</ele><time>2026-04-26T16:22:18.404Z</time></trkpt><trkpt lat="46.119007" lon="13.1922703"><ele>150.0</ele><time>2026-04-26T16:22:19.403Z</time></trkpt><trkpt lat="46.1191743" lon="13.1921508"><ele>152.0</ele><time>2026-04-26T16:22:20.403Z</time></trkpt><trkpt lat="46.1193385" lon="13.192034"><ele>154.33333333333331</ele><time>2026-04-26T16:22:21.403Z</time></trkpt><trkpt lat="46.1194991" lon="13.1919158"><ele>156.66666666666666</ele><time>2026-04-26T16:22:22.403Z</time></trkpt><trkpt lat="46.1196563" lon="13.1917958"><ele>159.0</ele><time>2026-04-26T16:22:23.404Z</time></trkpt><trkpt lat="46.119802" lon="13.1916721"><ele>158.33333333333334</ele><time>2026-04-26T16:22:24.402Z</time></trkpt><trkpt lat="46.1199409" lon="13.1915361"><ele>157.66666666666669</ele><time>2026-04-26T16:22:25.404Z</time></trkpt><trkpt lat="46.1200732" lon="13.1913921"><ele>157.0</ele><time>2026-04-26T16:22:26.403Z</time></trkpt><trkpt lat="46.1201988" lon="13.1912498"><ele>157.0</ele><time>2026-04-26T16:22:27.403Z</time></trkpt><trkpt lat="46.1203175" lon="13.191109"><ele>157.0</ele><time>2026-04-26T16:22:28.404Z</time></trkpt><trkpt lat="46.1204315" lon="13.1909766"><ele>157.0</ele><time>2026-04-26T16:22:29.403Z</time></trkpt><trkpt lat="46.1205345" lon="13.1908521"><ele>157.0</ele><time>2026-04-26T16:22:30.404Z</time></trkpt><trkpt lat="46.1206283" lon="13.1907388"><ele>157.2</ele><time>2026-04-26T16:22:31.403Z</time></trkpt><trkpt lat="46.1207088" lon="13.1906443"><ele>157.39999999999998</ele><time>2026-04-26T16:22:32.403Z</time></trkpt><trkpt lat="46.1207807" lon="13.1905657"><ele>157.60000000000002</ele><time>2026-04-26T16:22:33.402Z</time></trkpt><trkpt lat="46.1208413" lon="13.1904941"><ele>157.8</ele><time>2026-04-26T16:22:34.403Z</time></trkpt><trkpt lat="46.1208907" lon="13.1904331"><ele>158.0</ele><time>2026-04-26T16:22:35.404Z</time></trkpt><trkpt lat="46.1209777" lon="13.1903204"><ele>158.0</ele><time>2026-04-26T16:22:37.403Z</time></trkpt><trkpt lat="46.121069" lon="13.1902046"><ele>158.0</ele><time>2026-04-26T16:22:39.403Z</time></trkpt><trkpt lat="46.1211632" lon="13.190081"><ele>158.0</ele><time>2026-04-26T16:22:41.403Z</time></trkpt><trkpt lat="46.1212193" lon="13.1900029"><ele>158.0</ele><time>2026-04-26T16:22:42.403Z</time></trkpt><trkpt lat="46.1212753" lon="13.1899277"><ele>158.0</ele><time>2026-04-26T16:22:43.403Z</time></trkpt><trkpt lat="46.1213291" lon="13.1898617"><ele>158.00000000000003</ele><time>2026-04-26T16:22:44.403Z</time></trkpt><trkpt lat="46.1213813" lon="13.1898016"><ele>158.0</ele><time>2026-04-26T16:22:45.402Z</time></trkpt><trkpt lat="46.1214369" lon="13.1897475"><ele>158.0</ele><time>2026-04-26T16:22:46.404Z</time></trkpt><trkpt lat="46.1214977" lon="13.18969"><ele>158.0</ele><time>2026-04-26T16:22:47.403Z</time></trkpt><trkpt lat="46.1215588" lon="13.1896228"><ele>158.0</ele><time>2026-04-26T16:22:48.404Z</time></trkpt><trkpt lat="46.121617" lon="13.189552"><ele>158.00000000000003</ele><time>2026-04-26T16:22:49.402Z</time></trkpt><trkpt lat="46.1216754" lon="13.1894782"><ele>158.0</ele><time>2026-04-26T16:22:50.403Z</time></trkpt><trkpt lat="46.1217321" lon="13.1894018"><ele>158.33333333333331</ele><time>2026-04-26T16:22:51.402Z</time></trkpt><trkpt lat="46.1217867" lon="13.1893308"><ele>158.66666666666666</ele><time>2026-04-26T16:22:52.403Z</time></trkpt><trkpt lat="46.1218371" lon="13.1892668"><ele>159.0</ele><time>2026-04-26T16:22:53.402Z</time></trkpt><trkpt lat="46.1219253" lon="13.1891263"><ele>159.33333333333334</ele><time>2026-04-26T16:22:55.403Z</time></trkpt><trkpt lat="46.1219636" lon="13.1890442"><ele>159.66666666666669</ele><time>2026-04-26T16:22:56.402Z</time></trkpt><trkpt lat="46.1220123" lon="13.1889412"><ele>160.0</ele><time>2026-04-26T16:22:58.404Z</time></trkpt><trkpt lat="46.1220324" lon="13.1888495"><ele>160.0</ele><time>2026-04-26T16:23:01.403Z</time></trkpt><trkpt lat="46.1220711" lon="13.1887524"><ele>160.0</ele><time>2026-04-26T16:23:12.403Z</time></trkpt><trkpt lat="46.1221529" lon="13.1887442"><ele>160.0</ele><time>2026-04-26T16:28:17.402Z</time></trkpt><trkpt lat="46.1222602" lon="13.1887237"><ele>160.0</ele><time>2026-04-26T16:28:27.402Z</time></trkpt><trkpt lat="46.1223183" lon="13.1886792"><ele>160.0</ele><time>2026-04-26T16:28:28.403Z</time></trkpt><trkpt lat="46.1223848" lon="13.1886058"><ele>160.0</ele><time>2026-04-26T16:28:29.402Z</time></trkpt><trkpt lat="46.1224559" lon="13.1885214"><ele>160.4</ele><time>2026-04-26T16:28:30.401Z</time></trkpt><trkpt lat="46.1225309" lon="13.188433"><ele>160.8</ele><time>2026-04-26T16:28:31.402Z</time></trkpt><trkpt lat="46.1226113" lon="13.1883373"><ele>161.2</ele><time>2026-04-26T16:28:32.402Z</time></trkpt><trkpt lat="46.1226929" lon="13.1882364"><ele>161.6</ele><time>2026-04-26T16:28:33.403Z</time></trkpt><trkpt lat="46.1227699" lon="13.1881393"><ele>162.0</ele><time>2026-04-26T16:28:34.402Z</time></trkpt><trkpt lat="46.1228526" lon="13.1880393"><ele>162.2</ele><time>2026-04-26T16:28:35.402Z</time></trkpt><trkpt lat="46.12293" lon="13.1879472"><ele>162.39999999999998</ele><time>2026-04-26T16:28:36.402Z</time></trkpt><trkpt lat="46.1230067" lon="13.1878597"><ele>162.60000000000002</ele><time>2026-04-26T16:28:37.402Z</time></trkpt><trkpt lat="46.1230866" lon="13.1877725"><ele>162.8</ele><time>2026-04-26T16:28:38.401Z</time></trkpt><trkpt lat="46.1231696" lon="13.1876893"><ele>163.0</ele><time>2026-04-26T16:28:39.403Z</time></trkpt><trkpt lat="46.1232524" lon="13.1876093"><ele>163.2</ele><time>2026-04-26T16:28:40.402Z</time></trkpt><trkpt lat="46.1233362" lon="13.1875444"><ele>163.4</ele><time>2026-04-26T16:28:41.401Z</time></trkpt><trkpt lat="46.1234262" lon="13.1874915"><ele>163.6</ele><time>2026-04-26T16:28:42.402Z</time></trkpt><trkpt lat="46.1235156" lon="13.1874462"><ele>163.79999999999998</ele><time>2026-04-26T16:28:43.402Z</time></trkpt><trkpt lat="46.123602" lon="13.187404"><ele>164.0</ele><time>2026-04-26T16:28:44.402Z</time></trkpt><trkpt lat="46.1236807" lon="13.1873651"><ele>163.99999999999997</ele><time>2026-04-26T16:28:45.403Z</time></trkpt><trkpt lat="46.1237529" lon="13.1873306"><ele>164.0</ele><time>2026-04-26T16:28:46.402Z</time></trkpt><trkpt lat="46.123815" lon="13.1873023"><ele>164.0</ele><time>2026-04-26T16:28:47.403Z</time></trkpt><trkpt lat="46.1238985" lon="13.187267"><ele>164.0</ele><time>2026-04-26T16:28:49.403Z</time></trkpt><trkpt lat="46.1239613" lon="13.1872386"><ele>164.0</ele><time>2026-04-26T16:28:51.401Z</time></trkpt><trkpt lat="46.1240311" lon="13.1871786"><ele>163.99999999999997</ele><time>2026-04-26T16:28:54.402Z</time></trkpt><trkpt lat="46.1240926" lon="13.1871428"><ele>164.0</ele><time>2026-04-26T16:28:56.402Z</time></trkpt><trkpt lat="46.1241817" lon="13.1871344"><ele>164.39999999999998</ele><time>2026-04-26T16:28:58.402Z</time></trkpt><trkpt lat="46.1242949" lon="13.1871023"><ele>164.8</ele><time>2026-04-26T16:29:00.401Z</time></trkpt><trkpt lat="46.1243581" lon="13.186979"><ele>165.2</ele><time>2026-04-26T16:29:02.403Z</time></trkpt><trkpt lat="46.1243373" lon="13.1868233"><ele>165.60000000000002</ele><time>2026-04-26T16:29:04.402Z</time></trkpt><trkpt lat="46.1243258" lon="13.1867157"><ele>166.0</ele><time>2026-04-26T16:29:05.402Z</time></trkpt><trkpt lat="46.1243178" lon="13.1866003"><ele>165.8</ele><time>2026-04-26T16:29:06.402Z</time></trkpt><trkpt lat="46.1243024" lon="13.1864752"><ele>165.60000000000002</ele><time>2026-04-26T16:29:07.402Z</time></trkpt><trkpt lat="46.1242911" lon="13.1863484"><ele>165.4</ele><time>2026-04-26T16:29:08.402Z</time></trkpt><trkpt lat="46.1242815" lon="13.1862086"><ele>165.2</ele><time>2026-04-26T16:29:09.401Z</time></trkpt><trkpt lat="46.1242731" lon="13.1860684"><ele>165.0</ele><time>2026-04-26T16:29:10.402Z</time></trkpt><trkpt lat="46.1242655" lon="13.1859201"><ele>165.0</ele><time>2026-04-26T16:29:11.401Z</time></trkpt><trkpt lat="46.124258" lon="13.1857642"><ele>165.0</ele><time>2026-04-26T16:29:12.402Z</time></trkpt><trkpt lat="46.1242488" lon="13.1856036"><ele>165.0</ele><time>2026-04-26T16:29:13.403Z</time></trkpt><trkpt lat="46.124241" lon="13.1854417"><ele>165.0</ele><time>2026-04-26T16:29:14.402Z</time></trkpt><trkpt lat="46.12423" lon="13.1852736"><ele>165.0</ele><time>2026-04-26T16:29:15.402Z</time></trkpt><trkpt lat="46.1242169" lon="13.1851037"><ele>164.75</ele><time>2026-04-26T16:29:16.402Z</time></trkpt><trkpt lat="46.1242051" lon="13.1849291"><ele>164.5</ele><time>2026-04-26T16:29:17.402Z</time></trkpt><trkpt lat="46.1241915" lon="13.1847517"><ele>164.25</ele><time>2026-04-26T16:29:18.403Z</time></trkpt><trkpt lat="46.1241761" lon="13.1845618"><ele>164.0</ele><time>2026-04-26T16:29:19.402Z</time></trkpt><trkpt lat="46.1241579" lon="13.1843682"><ele>164.0</ele><time>2026-04-26T16:29:20.401Z</time></trkpt><trkpt lat="46.1241384" lon="13.1841707"><ele>164.0</ele><time>2026-04-26T16:29:21.403Z</time></trkpt><trkpt lat="46.1241154" lon="13.1839656"><ele>164.0</ele><time>2026-04-26T16:29:22.403Z</time></trkpt><trkpt lat="46.1240908" lon="13.1837647"><ele>164.0</ele><time>2026-04-26T16:29:23.402Z</time></trkpt><trkpt lat="46.1240625" lon="13.1835648"><ele>163.25</ele><time>2026-04-26T16:29:24.403Z</time></trkpt><trkpt lat="46.1240341" lon="13.1833621"><ele>162.5</ele><time>2026-04-26T16:29:25.402Z</time></trkpt><trkpt lat="46.1240079" lon="13.1831633"><ele>161.75</ele><time>2026-04-26T16:29:26.402Z</time></trkpt><trkpt lat="46.1239807" lon="13.1829692"><ele>161.0</ele><time>2026-04-26T16:29:27.403Z</time></trkpt><trkpt lat="46.1239526" lon="13.1827819"><ele>160.75</ele><time>2026-04-26T16:29:28.401Z</time></trkpt><trkpt lat="46.1239245" lon="13.1825963"><ele>160.5</ele><time>2026-04-26T16:29:29.402Z</time></trkpt><trkpt lat="46.1238971" lon="13.1824098"><ele>160.25</ele><time>2026-04-26T16:29:30.401Z</time></trkpt><trkpt lat="46.1238708" lon="13.1822226"><ele>160.0</ele><time>2026-04-26T16:29:31.402Z</time></trkpt><trkpt lat="46.1238457" lon="13.1820388"><ele>160.5</ele><time>2026-04-26T16:29:32.403Z</time></trkpt><trkpt lat="46.1238211" lon="13.1818573"><ele>161.0</ele><time>2026-04-26T16:29:33.401Z</time></trkpt><trkpt lat="46.123795" lon="13.1816781"><ele>161.5</ele><time>2026-04-26T16:29:34.4Z</time></trkpt><trkpt lat="46.1237678" lon="13.181501"><ele>162.0</ele><time>2026-04-26T16:29:35.402Z</time></trkpt><trkpt lat="46.1237421" lon="13.1813303"><ele>162.0</ele><time>2026-04-26T16:29:36.401Z</time></trkpt><trkpt lat="46.1237181" lon="13.1811641"><ele>162.0</ele><time>2026-04-26T16:29:37.4Z</time></trkpt><trkpt lat="46.1236934" lon="13.1810118"><ele>162.0</ele><time>2026-04-26T16:29:38.401Z</time></trkpt><trkpt lat="46.1236719" lon="13.1808778"><ele>162.0</ele><time>2026-04-26T16:29:39.402Z</time></trkpt><trkpt lat="46.1236594" lon="13.1807602"><ele>162.0</ele><time>2026-04-26T16:29:40.401Z</time></trkpt><trkpt lat="46.1236649" lon="13.1806578"><ele>162.16666666666666</ele><time>2026-04-26T16:29:41.401Z</time></trkpt><trkpt lat="46.1236907" lon="13.1805686"><ele>162.33333333333334</ele><time>2026-04-26T16:29:42.402Z</time></trkpt><trkpt lat="46.1237397" lon="13.1804888"><ele>162.5</ele><time>2026-04-26T16:29:43.401Z</time></trkpt><trkpt lat="46.1238065" lon="13.1804133"><ele>162.66666666666669</ele><time>2026-04-26T16:29:44.401Z</time></trkpt><trkpt lat="46.1238661" lon="13.1803265"><ele>162.83333333333334</ele><time>2026-04-26T16:29:45.401Z</time></trkpt><trkpt lat="46.1239017" lon="13.1802177"><ele>163.0</ele><time>2026-04-26T16:29:46.402Z</time></trkpt><trkpt lat="46.123911" lon="13.1800931"><ele>163.0</ele><time>2026-04-26T16:29:47.401Z</time></trkpt><trkpt lat="46.1238926" lon="13.17996"><ele>163.0</ele><time>2026-04-26T16:29:48.401Z</time></trkpt><trkpt lat="46.1238416" lon="13.1798446"><ele>163.0</ele><time>2026-04-26T16:29:49.402Z</time></trkpt><trkpt lat="46.1237649" lon="13.1797589"><ele>163.0</ele><time>2026-04-26T16:29:50.401Z</time></trkpt><trkpt lat="46.1236759" lon="13.1796953"><ele>163.0</ele><time>2026-04-26T16:29:51.402Z</time></trkpt><trkpt lat="46.1235823" lon="13.1796319"><ele>163.8</ele><time>2026-04-26T16:29:52.401Z</time></trkpt><trkpt lat="46.1235147" lon="13.1795395"><ele>164.60000000000002</ele><time>2026-04-26T16:29:53.401Z</time></trkpt><trkpt lat="46.1234719" lon="13.1794225"><ele>165.39999999999998</ele><time>2026-04-26T16:29:54.401Z</time></trkpt><trkpt lat="46.1234463" lon="13.1792916"><ele>166.2</ele><time>2026-04-26T16:29:55.402Z</time></trkpt><trkpt lat="46.1234212" lon="13.1791452"><ele>167.0</ele><time>2026-04-26T16:29:56.401Z</time></trkpt><trkpt lat="46.1233984" lon="13.1789735"><ele>167.25</ele><time>2026-04-26T16:29:57.401Z</time></trkpt><trkpt lat="46.1233725" lon="13.1787859"><ele>167.5</ele><time>2026-04-26T16:29:58.401Z</time></trkpt><trkpt lat="46.1233466" lon="13.178597"><ele>167.75</ele><time>2026-04-26T16:29:59.401Z</time></trkpt><trkpt lat="46.12332" lon="13.1784068"><ele>168.0</ele><time>2026-04-26T16:30:00.401Z</time></trkpt><trkpt lat="46.1232949" lon="13.1782133"><ele>167.75</ele><time>2026-04-26T16:30:01.401Z</time></trkpt><trkpt lat="46.1232715" lon="13.1780178"><ele>167.5</ele><time>2026-04-26T16:30:02.401Z</time></trkpt><trkpt lat="46.1232512" lon="13.1778189"><ele>167.25</ele><time>2026-04-26T16:30:03.401Z</time></trkpt><trkpt lat="46.1232387" lon="13.1776143"><ele>167.0</ele><time>2026-04-26T16:30:04.402Z</time></trkpt><trkpt lat="46.1232314" lon="13.1774075"><ele>167.0</ele><time>2026-04-26T16:30:05.402Z</time></trkpt><trkpt lat="46.1232296" lon="13.1772003"><ele>167.0</ele><time>2026-04-26T16:30:06.401Z</time></trkpt><trkpt lat="46.1232332" lon="13.1769928"><ele>167.0</ele><time>2026-04-26T16:30:07.4Z</time></trkpt><trkpt lat="46.123239" lon="13.1767874"><ele>167.0</ele><time>2026-04-26T16:30:08.402Z</time></trkpt><trkpt lat="46.1232475" lon="13.1765834"><ele>167.5</ele><time>2026-04-26T16:30:09.401Z</time></trkpt><trkpt lat="46.123258" lon="13.1763834"><ele>168.0</ele><time>2026-04-26T16:30:10.401Z</time></trkpt><trkpt lat="46.1232678" lon="13.1761857"><ele>168.5</ele><time>2026-04-26T16:30:11.401Z</time></trkpt><trkpt lat="46.1232783" lon="13.1759851"><ele>169.0</ele><time>2026-04-26T16:30:12.401Z</time></trkpt><trkpt lat="46.1232876" lon="13.175782"><ele>169.5</ele><time>2026-04-26T16:30:13.401Z</time></trkpt><trkpt lat="46.1232965" lon="13.1755755"><ele>170.0</ele><time>2026-04-26T16:30:14.4Z</time></trkpt><trkpt lat="46.1233049" lon="13.1753709"><ele>170.5</ele><time>2026-04-26T16:30:15.401Z</time></trkpt><trkpt lat="46.1233162" lon="13.1751656"><ele>171.0</ele><time>2026-04-26T16:30:16.401Z</time></trkpt><trkpt lat="46.1233269" lon="13.1749611"><ele>171.75</ele><time>2026-04-26T16:30:17.402Z</time></trkpt><trkpt lat="46.1233398" lon="13.1747608"><ele>172.5</ele><time>2026-04-26T16:30:18.402Z</time></trkpt><trkpt lat="46.1233511" lon="13.174567"><ele>173.25</ele><time>2026-04-26T16:30:19.402Z</time></trkpt><trkpt lat="46.1233605" lon="13.1743731"><ele>174.0</ele><time>2026-04-26T16:30:20.402Z</time></trkpt><trkpt lat="46.1233716" lon="13.1741857"><ele>175.0</ele><time>2026-04-26T16:30:21.401Z</time></trkpt><trkpt lat="46.1233832" lon="13.1739996"><ele>176.0</ele><time>2026-04-26T16:30:22.402Z</time></trkpt><trkpt lat="46.1233952" lon="13.1738152"><ele>177.0</ele><time>2026-04-26T16:30:23.401Z</time></trkpt><trkpt lat="46.1234061" lon="13.1736285"><ele>178.0</ele><time>2026-04-26T16:30:24.401Z</time></trkpt><trkpt lat="46.1234212" lon="13.1734454"><ele>178.0</ele><time>2026-04-26T16:30:25.4Z</time></trkpt><trkpt lat="46.1234447" lon="13.1732579"><ele>178.0</ele><time>2026-04-26T16:30:26.401Z</time></trkpt><trkpt lat="46.123481" lon="13.1730696"><ele>178.0</ele><time>2026-04-26T16:30:27.401Z</time></trkpt><trkpt lat="46.1235313" lon="13.1728884"><ele>178.0</ele><time>2026-04-26T16:30:28.4Z</time></trkpt><trkpt lat="46.1235909" lon="13.1727172"><ele>178.75</ele><time>2026-04-26T16:30:29.4Z</time></trkpt><trkpt lat="46.1236593" lon="13.1725606"><ele>179.5</ele><time>2026-04-26T16:30:30.402Z</time></trkpt><trkpt lat="46.1237418" lon="13.172418"><ele>180.25</ele><time>2026-04-26T16:30:31.402Z</time></trkpt><trkpt lat="46.1238285" lon="13.1722918"><ele>181.0</ele><time>2026-04-26T16:30:32.401Z</time></trkpt><trkpt lat="46.1239249" lon="13.172179"><ele>181.60000000000002</ele><time>2026-04-26T16:30:33.401Z</time></trkpt><trkpt lat="46.1240261" lon="13.1720876"><ele>182.2</ele><time>2026-04-26T16:30:34.4Z</time></trkpt><trkpt lat="46.124121" lon="13.1720115"><ele>182.8</ele><time>2026-04-26T16:30:35.402Z</time></trkpt><trkpt lat="46.1242129" lon="13.171943"><ele>183.39999999999998</ele><time>2026-04-26T16:30:36.402Z</time></trkpt><trkpt lat="46.1243018" lon="13.1718771"><ele>184.0</ele><time>2026-04-26T16:30:37.401Z</time></trkpt><trkpt lat="46.1243991" lon="13.1718065"><ele>184.75</ele><time>2026-04-26T16:30:38.401Z</time></trkpt><trkpt lat="46.1245037" lon="13.1717344"><ele>185.5</ele><time>2026-04-26T16:30:39.402Z</time></trkpt><trkpt lat="46.1246126" lon="13.171646"><ele>186.25</ele><time>2026-04-26T16:30:40.4Z</time></trkpt><trkpt lat="46.1247169" lon="13.1715484"><ele>187.0</ele><time>2026-04-26T16:30:41.402Z</time></trkpt><trkpt lat="46.1248111" lon="13.1714482"><ele>187.5</ele><time>2026-04-26T16:30:42.401Z</time></trkpt><trkpt lat="46.1249045" lon="13.1713427"><ele>188.0</ele><time>2026-04-26T16:30:43.401Z</time></trkpt><trkpt lat="46.1249871" lon="13.171231"><ele>188.5</ele><time>2026-04-26T16:30:44.401Z</time></trkpt><trkpt lat="46.125059" lon="13.1711007"><ele>189.0</ele><time>2026-04-26T16:30:45.402Z</time></trkpt><trkpt lat="46.1251188" lon="13.1709505"><ele>189.0</ele><time>2026-04-26T16:30:46.401Z</time></trkpt><trkpt lat="46.1251648" lon="13.1707864"><ele>189.0</ele><time>2026-04-26T16:30:47.4Z</time></trkpt><trkpt lat="46.1251968" lon="13.1706133"><ele>189.0</ele><time>2026-04-26T16:30:48.402Z</time></trkpt><trkpt lat="46.125215" lon="13.1704363"><ele>189.0</ele><time>2026-04-26T16:30:49.4Z</time></trkpt><trkpt lat="46.1252215" lon="13.1702573"><ele>189.5</ele><time>2026-04-26T16:30:50.401Z</time></trkpt><trkpt lat="46.1252216" lon="13.1700815"><ele>190.0</ele><time>2026-04-26T16:30:51.4Z</time></trkpt><trkpt lat="46.125218" lon="13.1699025"><ele>190.5</ele><time>2026-04-26T16:30:52.401Z</time></trkpt><trkpt lat="46.1252125" lon="13.1697191"><ele>191.0</ele><time>2026-04-26T16:30:53.401Z</time></trkpt><trkpt lat="46.1252043" lon="13.1695389"><ele>191.5</ele><time>2026-04-26T16:30:54.401Z</time></trkpt><trkpt lat="46.1251906" lon="13.169358"><ele>192.0</ele><time>2026-04-26T16:30:55.401Z</time></trkpt><trkpt lat="46.1251649" lon="13.1691685"><ele>192.5</ele><time>2026-04-26T16:30:56.401Z</time></trkpt><trkpt lat="46.1251285" lon="13.1689778"><ele>193.0</ele><time>2026-04-26T16:30:57.401Z</time></trkpt><trkpt lat="46.1250826" lon="13.1687858"><ele>194.0</ele><time>2026-04-26T16:30:58.401Z</time></trkpt><trkpt lat="46.1250339" lon="13.168589"><ele>195.0</ele><time>2026-04-26T16:30:59.402Z</time></trkpt><trkpt lat="46.1249868" lon="13.1683984"><ele>196.0</ele><time>2026-04-26T16:31:00.401Z</time></trkpt><trkpt lat="46.1249419" lon="13.1682175"><ele>197.0</ele><time>2026-04-26T16:31:01.402Z</time></trkpt><trkpt lat="46.1248971" lon="13.1680428"><ele>197.25</ele><time>2026-04-26T16:31:02.401Z</time></trkpt><trkpt lat="46.1248469" lon="13.1678745"><ele>197.5</ele><time>2026-04-26T16:31:03.401Z</time></trkpt><trkpt lat="46.1247884" lon="13.1677173"><ele>197.75</ele><time>2026-04-26T16:31:04.401Z</time></trkpt><trkpt lat="46.1247214" lon="13.1675641"><ele>198.0</ele><time>2026-04-26T16:31:05.401Z</time></trkpt><trkpt lat="46.1246472" lon="13.1674134"><ele>198.25</ele><time>2026-04-26T16:31:06.402Z</time></trkpt><trkpt lat="46.1245685" lon="13.1672599"><ele>198.5</ele><time>2026-04-26T16:31:07.401Z</time></trkpt><trkpt lat="46.1244853" lon="13.167109"><ele>198.75</ele><time>2026-04-26T16:31:08.4Z</time></trkpt><trkpt lat="46.1244046" lon="13.1669551"><ele>199.0</ele><time>2026-04-26T16:31:09.4Z</time></trkpt><trkpt lat="46.1243247" lon="13.1667965"><ele>199.0</ele><time>2026-04-26T16:31:10.402Z</time></trkpt><trkpt lat="46.1242446" lon="13.1666349"><ele>199.0</ele><time>2026-04-26T16:31:11.4Z</time></trkpt><trkpt lat="46.1241635" lon="13.1664622"><ele>199.0</ele><time>2026-04-26T16:31:12.402Z</time></trkpt><trkpt lat="46.1240779" lon="13.1662745"><ele>199.0</ele><time>2026-04-26T16:31:13.401Z</time></trkpt><trkpt lat="46.1239897" lon="13.1660745"><ele>198.0</ele><time>2026-04-26T16:31:14.401Z</time></trkpt><trkpt lat="46.1239028" lon="13.1658745"><ele>197.0</ele><time>2026-04-26T16:31:15.402Z</time></trkpt><trkpt lat="46.1238141" lon="13.1656689"><ele>196.0</ele><time>2026-04-26T16:31:16.401Z</time></trkpt><trkpt lat="46.123723" lon="13.1654548"><ele>196.0</ele><time>2026-04-26T16:31:17.402Z</time></trkpt><trkpt lat="46.1236331" lon="13.1652437"><ele>196.0</ele><time>2026-04-26T16:31:18.401Z</time></trkpt><trkpt lat="46.1235428" lon="13.165035"><ele>196.0</ele><time>2026-04-26T16:31:19.401Z</time></trkpt><trkpt lat="46.1234528" lon="13.1648252"><ele>197.33333333333331</ele><time>2026-04-26T16:31:20.401Z</time></trkpt><trkpt lat="46.1233652" lon="13.1646162"><ele>198.66666666666669</ele><time>2026-04-26T16:31:21.401Z</time></trkpt><trkpt lat="46.1232772" lon="13.1644091"><ele>200.0</ele><time>2026-04-26T16:31:22.401Z</time></trkpt><trkpt lat="46.1231897" lon="13.164205"><ele>200.0</ele><time>2026-04-26T16:31:23.401Z</time></trkpt><trkpt lat="46.1231007" lon="13.1639974"><ele>200.0</ele><time>2026-04-26T16:31:24.401Z</time></trkpt><trkpt lat="46.1230125" lon="13.1637927"><ele>200.0</ele><time>2026-04-26T16:31:25.402Z</time></trkpt><trkpt lat="46.1229221" lon="13.1635858"><ele>200.0</ele><time>2026-04-26T16:31:26.401Z</time></trkpt><trkpt lat="46.1228296" lon="13.1633719"><ele>200.0</ele><time>2026-04-26T16:31:27.401Z</time></trkpt><trkpt lat="46.1227369" lon="13.1631584"><ele>200.0</ele><time>2026-04-26T16:31:28.402Z</time></trkpt><trkpt lat="46.1226461" lon="13.1629492"><ele>200.66666666666669</ele><time>2026-04-26T16:31:29.4Z</time></trkpt><trkpt lat="46.1225595" lon="13.1627463"><ele>201.33333333333331</ele><time>2026-04-26T16:31:30.402Z</time></trkpt><trkpt lat="46.1224801" lon="13.1625489"><ele>202.0</ele><time>2026-04-26T16:31:31.401Z</time></trkpt><trkpt lat="46.1224076" lon="13.1623541"><ele>201.25</ele><time>2026-04-26T16:31:32.401Z</time></trkpt><trkpt lat="46.1223412" lon="13.1621548"><ele>200.5</ele><time>2026-04-26T16:31:33.401Z</time></trkpt><trkpt lat="46.1222816" lon="13.1619555"><ele>199.75</ele><time>2026-04-26T16:31:34.401Z</time></trkpt><trkpt lat="46.1222312" lon="13.1617608"><ele>199.0</ele><time>2026-04-26T16:31:35.401Z</time></trkpt><trkpt lat="46.1221901" lon="13.1615662"><ele>200.25</ele><time>2026-04-26T16:31:36.401Z</time></trkpt><trkpt lat="46.1221549" lon="13.1613655"><ele>201.5</ele><time>2026-04-26T16:31:37.402Z</time></trkpt><trkpt lat="46.122125" lon="13.1611571"><ele>202.75</ele><time>2026-04-26T16:31:38.401Z</time></trkpt><trkpt lat="46.122096" lon="13.1609422"><ele>204.0</ele><time>2026-04-26T16:31:39.401Z</time></trkpt><trkpt lat="46.1220677" lon="13.1607321"><ele>205.25</ele><time>2026-04-26T16:31:40.402Z</time></trkpt><trkpt lat="46.122043" lon="13.1605321"><ele>206.5</ele><time>2026-04-26T16:31:41.4Z</time></trkpt><trkpt lat="46.1220205" lon="13.1603384"><ele>207.75</ele><time>2026-04-26T16:31:42.4Z</time></trkpt><trkpt lat="46.1219951" lon="13.1601453"><ele>209.0</ele><time>2026-04-26T16:31:43.401Z</time></trkpt><trkpt lat="46.1219669" lon="13.1599468"><ele>209.5</ele><time>2026-04-26T16:31:44.4Z</time></trkpt><trkpt lat="46.1219401" lon="13.1597552"><ele>210.0</ele><time>2026-04-26T16:31:45.4Z</time></trkpt><trkpt lat="46.1219173" lon="13.1595658"><ele>210.5</ele><time>2026-04-26T16:31:46.401Z</time></trkpt><trkpt lat="46.1218917" lon="13.1593738"><ele>211.0</ele><time>2026-04-26T16:31:47.401Z</time></trkpt><trkpt lat="46.1218679" lon="13.1591824"><ele>211.75</ele><time>2026-04-26T16:31:48.4Z</time></trkpt><trkpt lat="46.1218506" lon="13.1589886"><ele>212.5</ele><time>2026-04-26T16:31:49.401Z</time></trkpt><trkpt lat="46.1218418" lon="13.1587923"><ele>213.25</ele><time>2026-04-26T16:31:50.401Z</time></trkpt><trkpt lat="46.1218394" lon="13.1585958"><ele>214.0</ele><time>2026-04-26T16:31:51.401Z</time></trkpt><trkpt lat="46.1218456" lon="13.158398"><ele>214.0</ele><time>2026-04-26T16:31:52.401Z</time></trkpt><trkpt lat="46.1218587" lon="13.1582047"><ele>214.0</ele><time>2026-04-26T16:31:53.4Z</time></trkpt><trkpt lat="46.1218848" lon="13.1580135"><ele>214.0</ele><time>2026-04-26T16:31:54.401Z</time></trkpt><trkpt lat="46.1219223" lon="13.1578219"><ele>214.0</ele><time>2026-04-26T16:31:55.4Z</time></trkpt><trkpt lat="46.121965" lon="13.1576292"><ele>214.0</ele><time>2026-04-26T16:31:56.401Z</time></trkpt><trkpt lat="46.1220148" lon="13.1574346"><ele>214.0</ele><time>2026-04-26T16:31:57.4Z</time></trkpt><trkpt lat="46.1220718" lon="13.1572369"><ele>214.0</ele><time>2026-04-26T16:31:58.4Z</time></trkpt><trkpt lat="46.1221358" lon="13.1570369"><ele>214.0</ele><time>2026-04-26T16:31:59.401Z</time></trkpt><trkpt lat="46.1221986" lon="13.1568378"><ele>213.5</ele><time>2026-04-26T16:32:00.401Z</time></trkpt><trkpt lat="46.1222604" lon="13.1566456"><ele>213.0</ele><time>2026-04-26T16:32:01.401Z</time></trkpt><trkpt lat="46.1223208" lon="13.1564507"><ele>212.5</ele><time>2026-04-26T16:32:02.401Z</time></trkpt><trkpt lat="46.1223767" lon="13.1562503"><ele>212.0</ele><time>2026-04-26T16:32:03.402Z</time></trkpt><trkpt lat="46.1224216" lon="13.1560495"><ele>215.25</ele><time>2026-04-26T16:32:04.401Z</time></trkpt><trkpt lat="46.1224557" lon="13.1558515"><ele>218.5</ele><time>2026-04-26T16:32:05.402Z</time></trkpt><trkpt lat="46.1224793" lon="13.1556535"><ele>221.75</ele><time>2026-04-26T16:32:06.401Z</time></trkpt><trkpt lat="46.1224935" lon="13.155455"><ele>225.0</ele><time>2026-04-26T16:32:07.4Z</time></trkpt><trkpt lat="46.1224984" lon="13.1552576"><ele>226.75</ele><time>2026-04-26T16:32:08.402Z</time></trkpt><trkpt lat="46.1224957" lon="13.1550701"><ele>228.5</ele><time>2026-04-26T16:32:09.401Z</time></trkpt><trkpt lat="46.1224889" lon="13.1548881"><ele>230.25</ele><time>2026-04-26T16:32:10.401Z</time></trkpt><trkpt lat="46.1224808" lon="13.1547018"><ele>232.0</ele><time>2026-04-26T16:32:11.4Z</time></trkpt><trkpt lat="46.1224727" lon="13.154511"><ele>232.0</ele><time>2026-04-26T16:32:12.402Z</time></trkpt><trkpt lat="46.1224655" lon="13.1543255"><ele>232.0</ele><time>2026-04-26T16:32:13.402Z</time></trkpt><trkpt lat="46.1224544" lon="13.1541481"><ele>232.0</ele><time>2026-04-26T16:32:14.4Z</time></trkpt><trkpt lat="46.12244" lon="13.1540023"><ele>232.0</ele><time>2026-04-26T16:32:15.402Z</time></trkpt><trkpt lat="46.1224252" lon="13.1538767"><ele>232.0</ele><time>2026-04-26T16:32:16.401Z</time></trkpt><trkpt lat="46.1224112" lon="13.1537696"><ele>231.39999999999998</ele><time>2026-04-26T16:32:17.402Z</time></trkpt><trkpt lat="46.1224031" lon="13.1536755"><ele>230.79999999999998</ele><time>2026-04-26T16:32:18.4Z</time></trkpt><trkpt lat="46.1224137" lon="13.153511"><ele>230.2</ele><time>2026-04-26T16:32:20.401Z</time></trkpt><trkpt lat="46.1224171" lon="13.1533336"><ele>229.6</ele><time>2026-04-26T16:32:22.401Z</time></trkpt><trkpt lat="46.1223842" lon="13.1532363"><ele>229.0</ele><time>2026-04-26T16:32:23.401Z</time></trkpt><trkpt lat="46.1223336" lon="13.1531268"><ele>232.0</ele><time>2026-04-26T16:32:24.402Z</time></trkpt><trkpt lat="46.122275" lon="13.1529951"><ele>235.0</ele><time>2026-04-26T16:32:25.401Z</time></trkpt><trkpt lat="46.1222169" lon="13.1528349"><ele>238.0</ele><time>2026-04-26T16:32:26.401Z</time></trkpt><trkpt lat="46.122165" lon="13.1526609"><ele>241.0</ele><time>2026-04-26T16:32:27.401Z</time></trkpt><trkpt lat="46.1221206" lon="13.1524756"><ele>241.0</ele><time>2026-04-26T16:32:28.401Z</time></trkpt><trkpt lat="46.1220794" lon="13.1522884"><ele>241.0</ele><time>2026-04-26T16:32:29.4Z</time></trkpt><trkpt lat="46.1220446" lon="13.152096"><ele>241.0</ele><time>2026-04-26T16:32:30.402Z</time></trkpt><trkpt lat="46.1220163" lon="13.1519001"><ele>241.0</ele><time>2026-04-26T16:32:31.401Z</time></trkpt><trkpt lat="46.1219878" lon="13.151704"><ele>240.0</ele><time>2026-04-26T16:32:32.401Z</time></trkpt><trkpt lat="46.1219565" lon="13.1515032"><ele>239.0</ele><time>2026-04-26T16:32:33.4Z</time></trkpt><trkpt lat="46.121923" lon="13.151295"><ele>238.0</ele><time>2026-04-26T16:32:34.401Z</time></trkpt><trkpt lat="46.1218925" lon="13.1510807"><ele>237.0</ele><time>2026-04-26T16:32:35.401Z</time></trkpt><trkpt lat="46.1218631" lon="13.1508618"><ele>234.66666666666669</ele><time>2026-04-26T16:32:36.401Z</time></trkpt><trkpt lat="46.1218318" lon="13.1506366"><ele>232.33333333333334</ele><time>2026-04-26T16:32:37.401Z</time></trkpt><trkpt lat="46.1218033" lon="13.1504025"><ele>230.0</ele><time>2026-04-26T16:32:38.402Z</time></trkpt><trkpt lat="46.1217785" lon="13.1501723"><ele>230.0</ele><time>2026-04-26T16:32:39.402Z</time></trkpt><trkpt lat="46.1217597" lon="13.1499389"><ele>230.0</ele><time>2026-04-26T16:32:40.402Z</time></trkpt><trkpt lat="46.121756" lon="13.1497103"><ele>230.0</ele><time>2026-04-26T16:32:41.402Z</time></trkpt><trkpt lat="46.1217658" lon="13.1494866"><ele>230.0</ele><time>2026-04-26T16:32:42.401Z</time></trkpt><trkpt lat="46.1217891" lon="13.1492595"><ele>230.0</ele><time>2026-04-26T16:32:43.401Z</time></trkpt><trkpt lat="46.1218213" lon="13.1490275"><ele>230.0</ele><time>2026-04-26T16:32:44.4Z</time></trkpt><trkpt lat="46.1218555" lon="13.148795"><ele>230.0</ele><time>2026-04-26T16:32:45.401Z</time></trkpt><trkpt lat="46.1218904" lon="13.1485641"><ele>230.0</ele><time>2026-04-26T16:32:46.401Z</time></trkpt><trkpt lat="46.1219223" lon="13.1483342"><ele>230.0</ele><time>2026-04-26T16:32:47.4Z</time></trkpt><trkpt lat="46.1219573" lon="13.1481021"><ele>230.0</ele><time>2026-04-26T16:32:48.401Z</time></trkpt><trkpt lat="46.1219931" lon="13.1478712"><ele>230.0</ele><time>2026-04-26T16:32:49.402Z</time></trkpt><trkpt lat="46.1220289" lon="13.1476457"><ele>230.0</ele><time>2026-04-26T16:32:50.401Z</time></trkpt><trkpt lat="46.1220616" lon="13.1474314"><ele>228.75</ele><time>2026-04-26T16:32:51.401Z</time></trkpt><trkpt lat="46.1220942" lon="13.1472244"><ele>227.5</ele><time>2026-04-26T16:32:52.401Z</time></trkpt><trkpt lat="46.1221288" lon="13.1470198"><ele>226.25</ele><time>2026-04-26T16:32:53.402Z</time></trkpt><trkpt lat="46.1221554" lon="13.1468214"><ele>225.0</ele><time>2026-04-26T16:32:54.4Z</time></trkpt><trkpt lat="46.1221791" lon="13.14662"><ele>221.75</ele><time>2026-04-26T16:32:55.401Z</time></trkpt><trkpt lat="46.1222" lon="13.1464179"><ele>218.5</ele><time>2026-04-26T16:32:56.401Z</time></trkpt><trkpt lat="46.1222179" lon="13.146211"><ele>215.25</ele><time>2026-04-26T16:32:57.401Z</time></trkpt><trkpt lat="46.1222303" lon="13.1459958"><ele>212.0</ele><time>2026-04-26T16:32:58.4Z</time></trkpt><trkpt lat="46.1222344" lon="13.1457712"><ele>211.33333333333334</ele><time>2026-04-26T16:32:59.401Z</time></trkpt><trkpt lat="46.1222334" lon="13.1455301"><ele>210.66666666666669</ele><time>2026-04-26T16:33:00.4Z</time></trkpt><trkpt lat="46.1222213" lon="13.1452747"><ele>210.0</ele><time>2026-04-26T16:33:01.401Z</time></trkpt><trkpt lat="46.1222019" lon="13.1450061"><ele>210.33333333333331</ele><time>2026-04-26T16:33:02.402Z</time></trkpt><trkpt lat="46.122174" lon="13.1447338"><ele>210.66666666666666</ele><time>2026-04-26T16:33:03.402Z</time></trkpt><trkpt lat="46.1221436" lon="13.1444711"><ele>211.0</ele><time>2026-04-26T16:33:04.401Z</time></trkpt><trkpt lat="46.1221129" lon="13.1442034"><ele>211.0</ele><time>2026-04-26T16:33:05.401Z</time></trkpt><trkpt lat="46.1220796" lon="13.1439332"><ele>211.0</ele><time>2026-04-26T16:33:06.402Z</time></trkpt><trkpt lat="46.1220471" lon="13.143663"><ele>211.0</ele><time>2026-04-26T16:33:07.4Z</time></trkpt><trkpt lat="46.1220146" lon="13.1434035"><ele>212.0</ele><time>2026-04-26T16:33:08.401Z</time></trkpt><trkpt lat="46.1219809" lon="13.1431541"><ele>213.0</ele><time>2026-04-26T16:33:09.402Z</time></trkpt><trkpt lat="46.1219454" lon="13.1429104"><ele>214.0</ele><time>2026-04-26T16:33:10.401Z</time></trkpt><trkpt lat="46.1218998" lon="13.1426731"><ele>214.0</ele><time>2026-04-26T16:33:11.402Z</time></trkpt><trkpt lat="46.121842" lon="13.1424405"><ele>214.0</ele><time>2026-04-26T16:33:12.401Z</time></trkpt><trkpt lat="46.1217688" lon="13.1422114"><ele>214.0</ele><time>2026-04-26T16:33:13.4Z</time></trkpt><trkpt lat="46.1216886" lon="13.1419848"><ele>215.0</ele><time>2026-04-26T16:33:14.401Z</time></trkpt><trkpt lat="46.1216076" lon="13.1417609"><ele>216.0</ele><time>2026-04-26T16:33:15.4Z</time></trkpt><trkpt lat="46.1215285" lon="13.1415398"><ele>217.0</ele><time>2026-04-26T16:33:16.401Z</time></trkpt><trkpt lat="46.121453" lon="13.141326"><ele>217.0</ele><time>2026-04-26T16:33:17.401Z</time></trkpt><trkpt lat="46.1213797" lon="13.1411162"><ele>217.0</ele><time>2026-04-26T16:33:18.401Z</time></trkpt><trkpt lat="46.1213089" lon="13.1409118"><ele>217.0</ele><time>2026-04-26T16:33:19.402Z</time></trkpt><trkpt lat="46.1212429" lon="13.1407105"><ele>217.0</ele><time>2026-04-26T16:33:20.4Z</time></trkpt><trkpt lat="46.1211783" lon="13.1405121"><ele>217.0</ele><time>2026-04-26T16:33:21.401Z</time></trkpt><trkpt lat="46.1211186" lon="13.1403102"><ele>217.0</ele><time>2026-04-26T16:33:22.401Z</time></trkpt><trkpt lat="46.1210649" lon="13.1401041"><ele>217.0</ele><time>2026-04-26T16:33:23.402Z</time></trkpt><trkpt lat="46.12102" lon="13.1398941"><ele>217.0</ele><time>2026-04-26T16:33:24.401Z</time></trkpt><trkpt lat="46.1209859" lon="13.1396735"><ele>217.0</ele><time>2026-04-26T16:33:25.401Z</time></trkpt><trkpt lat="46.120963" lon="13.1394479"><ele>217.0</ele><time>2026-04-26T16:33:26.4Z</time></trkpt><trkpt lat="46.1209524" lon="13.1392191"><ele>217.0</ele><time>2026-04-26T16:33:27.4Z</time></trkpt><trkpt lat="46.1209482" lon="13.138992"><ele>217.0</ele><time>2026-04-26T16:33:28.402Z</time></trkpt><trkpt lat="46.1209482" lon="13.1387745"><ele>217.5</ele><time>2026-04-26T16:33:29.401Z</time></trkpt><trkpt lat="46.1209506" lon="13.1385643"><ele>218.0</ele><time>2026-04-26T16:33:30.401Z</time></trkpt><trkpt lat="46.1209502" lon="13.1383561"><ele>218.5</ele><time>2026-04-26T16:33:31.401Z</time></trkpt><trkpt lat="46.1209501" lon="13.1381445"><ele>219.0</ele><time>2026-04-26T16:33:32.401Z</time></trkpt><trkpt lat="46.1209518" lon="13.137938"><ele>219.5</ele><time>2026-04-26T16:33:33.401Z</time></trkpt><trkpt lat="46.1209531" lon="13.1377336"><ele>220.0</ele><time>2026-04-26T16:33:34.401Z</time></trkpt><trkpt lat="46.1209548" lon="13.1375284"><ele>220.5</ele><time>2026-04-26T16:33:35.401Z</time></trkpt><trkpt lat="46.1209558" lon="13.1373336"><ele>221.0</ele><time>2026-04-26T16:33:36.401Z</time></trkpt><trkpt lat="46.1209562" lon="13.1371354"><ele>221.5</ele><time>2026-04-26T16:33:37.4Z</time></trkpt><trkpt lat="46.1209563" lon="13.136938"><ele>222.0</ele><time>2026-04-26T16:33:38.401Z</time></trkpt><trkpt lat="46.1209594" lon="13.1367329"><ele>222.5</ele><time>2026-04-26T16:33:39.402Z</time></trkpt><trkpt lat="46.1209617" lon="13.1365177"><ele>223.0</ele><time>2026-04-26T16:33:40.4Z</time></trkpt><trkpt lat="46.1209668" lon="13.1362945"><ele>224.0</ele><time>2026-04-26T16:33:41.401Z</time></trkpt><trkpt lat="46.1209697" lon="13.1360576"><ele>225.0</ele><time>2026-04-26T16:33:42.401Z</time></trkpt><trkpt lat="46.1209698" lon="13.1358135"><ele>226.0</ele><time>2026-04-26T16:33:43.401Z</time></trkpt><trkpt lat="46.1209624" lon="13.1355622"><ele>226.33333333333331</ele><time>2026-04-26T16:33:44.4Z</time></trkpt><trkpt lat="46.1209487" lon="13.1353038"><ele>226.66666666666669</ele><time>2026-04-26T16:33:45.402Z</time></trkpt><trkpt lat="46.1209275" lon="13.135046"><ele>227.0</ele><time>2026-04-26T16:33:46.401Z</time></trkpt><trkpt lat="46.1209034" lon="13.1347864"><ele>227.0</ele><time>2026-04-26T16:33:47.401Z</time></trkpt><trkpt lat="46.1208777" lon="13.1345252"><ele>227.0</ele><time>2026-04-26T16:33:48.402Z</time></trkpt><trkpt lat="46.1208518" lon="13.1342664"><ele>227.0</ele><time>2026-04-26T16:33:49.401Z</time></trkpt><trkpt lat="46.120826" lon="13.1340084"><ele>227.0</ele><time>2026-04-26T16:33:50.401Z</time></trkpt><trkpt lat="46.1208012" lon="13.1337494"><ele>227.0</ele><time>2026-04-26T16:33:51.401Z</time></trkpt><trkpt lat="46.1207759" lon="13.1334914"><ele>227.0</ele><time>2026-04-26T16:33:52.401Z</time></trkpt><trkpt lat="46.1207517" lon="13.133235"><ele>228.0</ele><time>2026-04-26T16:33:53.401Z</time></trkpt><trkpt lat="46.1207282" lon="13.1329821"><ele>229.0</ele><time>2026-04-26T16:33:54.402Z</time></trkpt><trkpt lat="46.1207039" lon="13.1327341"><ele>230.0</ele><time>2026-04-26T16:33:55.402Z</time></trkpt><trkpt lat="46.1206794" lon="13.1324916"><ele>232.66666666666669</ele><time>2026-04-26T16:33:56.401Z</time></trkpt><trkpt lat="46.1206556" lon="13.1322546"><ele>235.33333333333331</ele><time>2026-04-26T16:33:57.401Z</time></trkpt><trkpt lat="46.1206304" lon="13.1320206"><ele>238.0</ele><time>2026-04-26T16:33:58.401Z</time></trkpt><trkpt lat="46.1206084" lon="13.1317943"><ele>238.0</ele><time>2026-04-26T16:33:59.401Z</time></trkpt><trkpt lat="46.1205878" lon="13.1315832"><ele>238.0</ele><time>2026-04-26T16:34:00.402Z</time></trkpt><trkpt lat="46.1205707" lon="13.1313971"><ele>238.0</ele><time>2026-04-26T16:34:01.401Z</time></trkpt><trkpt lat="46.1205554" lon="13.1312338"><ele>238.0</ele><time>2026-04-26T16:34:02.401Z</time></trkpt><trkpt lat="46.1205419" lon="13.1310969"><ele>238.83333333333331</ele><time>2026-04-26T16:34:03.4Z</time></trkpt><trkpt lat="46.1205314" lon="13.1309813"><ele>239.66666666666666</ele><time>2026-04-26T16:34:04.401Z</time></trkpt><trkpt lat="46.1205219" lon="13.1308848"><ele>240.5</ele><time>2026-04-26T16:34:05.4Z</time></trkpt><trkpt lat="46.1205011" lon="13.1307113"><ele>241.33333333333331</ele><time>2026-04-26T16:34:07.402Z</time></trkpt><trkpt lat="46.1204916" lon="13.1306114"><ele>242.16666666666666</ele><time>2026-04-26T16:34:08.401Z</time></trkpt><trkpt lat="46.1204828" lon="13.1305086"><ele>243.0</ele><time>2026-04-26T16:34:09.401Z</time></trkpt><trkpt lat="46.1204786" lon="13.1304173"><ele>243.0</ele><time>2026-04-26T16:34:10.4Z</time></trkpt><trkpt lat="46.1204743" lon="13.1303078"><ele>243.0</ele><time>2026-04-26T16:34:11.401Z</time></trkpt><trkpt lat="46.1204747" lon="13.1301946"><ele>243.0</ele><time>2026-04-26T16:34:12.401Z</time></trkpt><trkpt lat="46.1204793" lon="13.1300786"><ele>243.0</ele><time>2026-04-26T16:34:13.4Z</time></trkpt><trkpt lat="46.1204886" lon="13.1299568"><ele>243.0</ele><time>2026-04-26T16:34:14.4Z</time></trkpt><trkpt lat="46.1205066" lon="13.129825"><ele>243.0</ele><time>2026-04-26T16:34:15.401Z</time></trkpt><trkpt lat="46.1205274" lon="13.1296938"><ele>243.4</ele><time>2026-04-26T16:34:16.402Z</time></trkpt><trkpt lat="46.1205508" lon="13.1295631"><ele>243.8</ele><time>2026-04-26T16:34:17.4Z</time></trkpt><trkpt lat="46.1205795" lon="13.1294322"><ele>244.2</ele><time>2026-04-26T16:34:18.401Z</time></trkpt><trkpt lat="46.120613" lon="13.1293051"><ele>244.6</ele><time>2026-04-26T16:34:19.401Z</time></trkpt><trkpt lat="46.120644" lon="13.1291779"><ele>245.0</ele><time>2026-04-26T16:34:20.4Z</time></trkpt><trkpt lat="46.1206726" lon="13.1290392"><ele>245.2</ele><time>2026-04-26T16:34:21.401Z</time></trkpt><trkpt lat="46.1206986" lon="13.1288939"><ele>245.4</ele><time>2026-04-26T16:34:22.402Z</time></trkpt><trkpt lat="46.1207198" lon="13.1287472"><ele>245.60000000000002</ele><time>2026-04-26T16:34:23.401Z</time></trkpt><trkpt lat="46.1207298" lon="13.1286027"><ele>245.8</ele><time>2026-04-26T16:34:24.402Z</time></trkpt><trkpt lat="46.1207302" lon="13.128459"><ele>246.0</ele><time>2026-04-26T16:34:25.401Z</time></trkpt><trkpt lat="46.1207182" lon="13.1283129"><ele>246.0</ele><time>2026-04-26T16:34:26.401Z</time></trkpt><trkpt lat="46.1206913" lon="13.1281505"><ele>246.0</ele><time>2026-04-26T16:34:27.401Z</time></trkpt><trkpt lat="46.1206528" lon="13.1279878"><ele>246.0</ele><time>2026-04-26T16:34:28.4Z</time></trkpt><trkpt lat="46.1205993" lon="13.12781"><ele>246.0</ele><time>2026-04-26T16:34:29.401Z</time></trkpt><trkpt lat="46.1205326" lon="13.1276266"><ele>246.0</ele><time>2026-04-26T16:34:30.401Z</time></trkpt><trkpt lat="46.1204544" lon="13.1274311"><ele>246.0</ele><time>2026-04-26T16:34:31.401Z</time></trkpt><trkpt lat="46.1203802" lon="13.1272422"><ele>246.0</ele><time>2026-04-26T16:34:32.402Z</time></trkpt><trkpt lat="46.1203087" lon="13.127062"><ele>246.5</ele><time>2026-04-26T16:34:33.4Z</time></trkpt><trkpt lat="46.1202428" lon="13.1268906"><ele>247.0</ele><time>2026-04-26T16:34:34.401Z</time></trkpt><trkpt lat="46.1201801" lon="13.1267322"><ele>247.5</ele><time>2026-04-26T16:34:35.401Z</time></trkpt><trkpt lat="46.1201229" lon="13.1265823"><ele>248.0</ele><time>2026-04-26T16:34:36.401Z</time></trkpt><trkpt lat="46.1200712" lon="13.126442"><ele>249.60000000000002</ele><time>2026-04-26T16:34:37.401Z</time></trkpt><trkpt lat="46.1200362" lon="13.126307"><ele>251.20000000000002</ele><time>2026-04-26T16:34:38.401Z</time></trkpt><trkpt lat="46.1200253" lon="13.126164"><ele>252.8</ele><time>2026-04-26T16:34:39.401Z</time></trkpt><trkpt lat="46.120036" lon="13.1260097"><ele>254.4</ele><time>2026-04-26T16:34:40.4Z</time></trkpt><trkpt lat="46.1200557" lon="13.1258421"><ele>256.0</ele><time>2026-04-26T16:34:41.401Z</time></trkpt><trkpt lat="46.1200627" lon="13.1256686"><ele>256.75</ele><time>2026-04-26T16:34:42.402Z</time></trkpt><trkpt lat="46.12005" lon="13.1254872"><ele>257.5</ele><time>2026-04-26T16:34:43.401Z</time></trkpt><trkpt lat="46.1200183" lon="13.125309"><ele>258.25</ele><time>2026-04-26T16:34:44.401Z</time></trkpt><trkpt lat="46.1199711" lon="13.1251357"><ele>259.0</ele><time>2026-04-26T16:34:45.402Z</time></trkpt><trkpt lat="46.1199199" lon="13.1249693"><ele>254.75</ele><time>2026-04-26T16:34:46.401Z</time></trkpt><trkpt lat="46.1198728" lon="13.1248009"><ele>250.5</ele><time>2026-04-26T16:34:47.401Z</time></trkpt><trkpt lat="46.1198344" lon="13.1246313"><ele>246.25</ele><time>2026-04-26T16:34:48.4Z</time></trkpt><trkpt lat="46.1198092" lon="13.1244667"><ele>242.0</ele><time>2026-04-26T16:34:49.4Z</time></trkpt><trkpt lat="46.1197972" lon="13.1243088"><ele>242.00000000000003</ele><time>2026-04-26T16:34:50.402Z</time></trkpt><trkpt lat="46.1197984" lon="13.1241641"><ele>242.0</ele><time>2026-04-26T16:34:51.401Z</time></trkpt><trkpt lat="46.119802" lon="13.1240288"><ele>242.0</ele><time>2026-04-26T16:34:52.4Z</time></trkpt><trkpt lat="46.1198077" lon="13.1239088"><ele>242.0</ele><time>2026-04-26T16:34:53.401Z</time></trkpt><trkpt lat="46.1198153" lon="13.1238016"><ele>242.00000000000003</ele><time>2026-04-26T16:34:54.401Z</time></trkpt><trkpt lat="46.1198208" lon="13.1237067"><ele>242.0</ele><time>2026-04-26T16:34:55.402Z</time></trkpt><trkpt lat="46.1198379" lon="13.1235613"><ele>243.0</ele><time>2026-04-26T16:34:57.4Z</time></trkpt><trkpt lat="46.1198722" lon="13.1234363"><ele>244.0</ele><time>2026-04-26T16:34:59.401Z</time></trkpt><trkpt lat="46.1198542" lon="13.1233073"><ele>245.0</ele><time>2026-04-26T16:35:01.401Z</time></trkpt><trkpt lat="46.1197507" lon="13.1231931"><ele>246.0</ele><time>2026-04-26T16:35:03.401Z</time></trkpt><trkpt lat="46.1196841" lon="13.1231284"><ele>247.0</ele><time>2026-04-26T16:35:04.401Z</time></trkpt><trkpt lat="46.1196135" lon="13.1230588"><ele>247.83333333333331</ele><time>2026-04-26T16:35:05.401Z</time></trkpt><trkpt lat="46.1195393" lon="13.1229918"><ele>248.66666666666666</ele><time>2026-04-26T16:35:06.4Z</time></trkpt><trkpt lat="46.1194688" lon="13.1229302"><ele>249.5</ele><time>2026-04-26T16:35:07.401Z</time></trkpt><trkpt lat="46.1194005" lon="13.1228733"><ele>250.33333333333331</ele><time>2026-04-26T16:35:08.4Z</time></trkpt><trkpt lat="46.1193385" lon="13.1227901"><ele>251.16666666666666</ele><time>2026-04-26T16:35:09.401Z</time></trkpt><trkpt lat="46.1192901" lon="13.1226956"><ele>252.0</ele><time>2026-04-26T16:35:10.402Z</time></trkpt><trkpt lat="46.1192429" lon="13.1226023"><ele>252.0</ele><time>2026-04-26T16:35:11.401Z</time></trkpt><trkpt lat="46.1192041" lon="13.1225186"><ele>252.0</ele><time>2026-04-26T16:35:12.401Z</time></trkpt><trkpt lat="46.1191724" lon="13.1224316"><ele>252.0</ele><time>2026-04-26T16:35:13.401Z</time></trkpt><trkpt lat="46.1191364" lon="13.1223443"><ele>252.0</ele><time>2026-04-26T16:35:14.401Z</time></trkpt><trkpt lat="46.1190983" lon="13.1222634"><ele>252.0</ele><time>2026-04-26T16:35:15.401Z</time></trkpt><trkpt lat="46.1190588" lon="13.122188"><ele>252.0</ele><time>2026-04-26T16:35:16.401Z</time></trkpt><trkpt lat="46.1190185" lon="13.1221103"><ele>252.0</ele><time>2026-04-26T16:35:17.401Z</time></trkpt><trkpt lat="46.1189778" lon="13.1220338"><ele>249.83333333333334</ele><time>2026-04-26T16:35:18.401Z</time></trkpt><trkpt lat="46.1189352" lon="13.1219561"><ele>247.66666666666669</ele><time>2026-04-26T16:35:19.401Z</time></trkpt><trkpt lat="46.1188908" lon="13.1218767"><ele>245.5</ele><time>2026-04-26T16:35:20.401Z</time></trkpt><trkpt lat="46.1188463" lon="13.1217905"><ele>243.33333333333334</ele><time>2026-04-26T16:35:21.401Z</time></trkpt><trkpt lat="46.1188092" lon="13.1217081"><ele>241.16666666666669</ele><time>2026-04-26T16:35:22.401Z</time></trkpt><trkpt lat="46.1187501" lon="13.121543"><ele>239.0</ele><time>2026-04-26T16:35:24.4Z</time></trkpt><trkpt lat="46.1187278" lon="13.1214467"><ele>239.00000000000003</ele><time>2026-04-26T16:35:25.402Z</time></trkpt><trkpt lat="46.1187122" lon="13.121338"><ele>239.0</ele><time>2026-04-26T16:35:26.4Z</time></trkpt><trkpt lat="46.1187053" lon="13.1212184"><ele>239.0</ele><time>2026-04-26T16:35:27.401Z</time></trkpt><trkpt lat="46.1187108" lon="13.1211006"><ele>239.0</ele><time>2026-04-26T16:35:28.402Z</time></trkpt><trkpt lat="46.1187168" lon="13.1209897"><ele>239.00000000000003</ele><time>2026-04-26T16:35:29.401Z</time></trkpt><trkpt lat="46.1187243" lon="13.120889"><ele>239.0</ele><time>2026-04-26T16:35:30.402Z</time></trkpt><trkpt lat="46.1187348" lon="13.1207931"><ele>239.00000000000003</ele><time>2026-04-26T16:35:31.401Z</time></trkpt><trkpt lat="46.1187415" lon="13.1206998"><ele>239.0</ele><time>2026-04-26T16:35:32.4Z</time></trkpt><trkpt lat="46.1187448" lon="13.1205346"><ele>239.0</ele><time>2026-04-26T16:35:34.401Z</time></trkpt><trkpt lat="46.1187353" lon="13.1204078"><ele>239.0</ele><time>2026-04-26T16:35:36.402Z</time></trkpt><trkpt lat="46.1187216" lon="13.1202974"><ele>239.00000000000003</ele><time>2026-04-26T16:35:39.401Z</time></trkpt><trkpt lat="46.1186982" lon="13.1201962"><ele>239.0</ele><time>2026-04-26T16:37:02.399Z</time></trkpt><trkpt lat="46.1186387" lon="13.1200505"><ele>239.0</ele><time>2026-04-26T16:37:04.4Z</time></trkpt><trkpt lat="46.1185963" lon="13.1199725"><ele>238.99999999999997</ele><time>2026-04-26T16:37:05.401Z</time></trkpt><trkpt lat="46.1185419" lon="13.1198819"><ele>238.99999999999997</ele><time>2026-04-26T16:37:06.4Z</time></trkpt><trkpt lat="46.1184723" lon="13.1197771"><ele>239.0</ele><time>2026-04-26T16:37:07.4Z</time></trkpt><trkpt lat="46.1183872" lon="13.119672"><ele>239.0</ele><time>2026-04-26T16:37:08.4Z</time></trkpt><trkpt lat="46.1182898" lon="13.1195707"><ele>237.25</ele><time>2026-04-26T16:37:09.401Z</time></trkpt><trkpt lat="46.1181768" lon="13.1194661"><ele>235.5</ele><time>2026-04-26T16:37:10.399Z</time></trkpt><trkpt lat="46.1180633" lon="13.1193567"><ele>233.75</ele><time>2026-04-26T16:37:11.4Z</time></trkpt><trkpt lat="46.1179494" lon="13.1192471"><ele>232.0</ele><time>2026-04-26T16:37:12.399Z</time></trkpt><trkpt lat="46.117837" lon="13.1191359"><ele>228.75</ele><time>2026-04-26T16:37:13.401Z</time></trkpt><trkpt lat="46.1177258" lon="13.1190282"><ele>225.5</ele><time>2026-04-26T16:37:14.4Z</time></trkpt><trkpt lat="46.117615" lon="13.1189234"><ele>222.25</ele><time>2026-04-26T16:37:15.4Z</time></trkpt><trkpt lat="46.1175059" lon="13.1188209"><ele>219.0</ele><time>2026-04-26T16:37:16.401Z</time></trkpt><trkpt lat="46.1173976" lon="13.118716"><ele>219.0</ele><time>2026-04-26T16:37:17.4Z</time></trkpt><trkpt lat="46.1172912" lon="13.1186147"><ele>219.0</ele><time>2026-04-26T16:37:18.399Z</time></trkpt><trkpt lat="46.1171822" lon="13.1185132"><ele>219.0</ele><time>2026-04-26T16:37:19.4Z</time></trkpt><trkpt lat="46.1170745" lon="13.118413"><ele>219.0</ele><time>2026-04-26T16:37:20.4Z</time></trkpt><trkpt lat="46.1169657" lon="13.1183132"><ele>217.25</ele><time>2026-04-26T16:37:21.4Z</time></trkpt><trkpt lat="46.1168597" lon="13.1182077"><ele>215.5</ele><time>2026-04-26T16:37:22.399Z</time></trkpt><trkpt lat="46.1167599" lon="13.1180933"><ele>213.75</ele><time>2026-04-26T16:37:23.4Z</time></trkpt><trkpt lat="46.1166706" lon="13.1179593"><ele>212.0</ele><time>2026-04-26T16:37:24.4Z</time></trkpt><trkpt lat="46.1165937" lon="13.1178144"><ele>210.75</ele><time>2026-04-26T16:37:25.399Z</time></trkpt><trkpt lat="46.1165333" lon="13.117658"><ele>209.5</ele><time>2026-04-26T16:37:26.401Z</time></trkpt><trkpt lat="46.1164894" lon="13.1174973"><ele>208.25</ele><time>2026-04-26T16:37:27.4Z</time></trkpt><trkpt lat="46.1164642" lon="13.1173323"><ele>207.0</ele><time>2026-04-26T16:37:28.401Z</time></trkpt><trkpt lat="46.1164591" lon="13.1171614"><ele>205.75</ele><time>2026-04-26T16:37:29.399Z</time></trkpt><trkpt lat="46.1164684" lon="13.1169823"><ele>204.5</ele><time>2026-04-26T16:37:30.401Z</time></trkpt><trkpt lat="46.1164892" lon="13.1167988"><ele>203.25</ele><time>2026-04-26T16:37:31.4Z</time></trkpt><trkpt lat="46.1165141" lon="13.1166169"><ele>202.0</ele><time>2026-04-26T16:37:32.401Z</time></trkpt><trkpt lat="46.1165395" lon="13.1164319"><ele>201.5</ele><time>2026-04-26T16:37:33.4Z</time></trkpt><trkpt lat="46.1165647" lon="13.1162486"><ele>201.0</ele><time>2026-04-26T16:37:34.4Z</time></trkpt><trkpt lat="46.1165897" lon="13.1160618"><ele>200.5</ele><time>2026-04-26T16:37:35.401Z</time></trkpt><trkpt lat="46.1166151" lon="13.1158726"><ele>200.0</ele><time>2026-04-26T16:37:36.4Z</time></trkpt><trkpt lat="46.1166392" lon="13.1156806"><ele>200.0</ele><time>2026-04-26T16:37:37.399Z</time></trkpt><trkpt lat="46.1166633" lon="13.1154906"><ele>200.0</ele><time>2026-04-26T16:37:38.4Z</time></trkpt><trkpt lat="46.1166839" lon="13.1152977"><ele>200.0</ele><time>2026-04-26T16:37:39.401Z</time></trkpt><trkpt lat="46.1166967" lon="13.1151011"><ele>200.0</ele><time>2026-04-26T16:37:40.4Z</time></trkpt><trkpt lat="46.1167033" lon="13.114905"><ele>199.0</ele><time>2026-04-26T16:37:41.401Z</time></trkpt><trkpt lat="46.1167024" lon="13.1147074"><ele>198.0</ele><time>2026-04-26T16:37:42.4Z</time></trkpt><trkpt lat="46.1166976" lon="13.1145031"><ele>197.0</ele><time>2026-04-26T16:37:43.4Z</time></trkpt><trkpt lat="46.1166898" lon="13.1142961"><ele>196.0</ele><time>2026-04-26T16:37:44.399Z</time></trkpt><trkpt lat="46.1166813" lon="13.1140841"><ele>194.33333333333331</ele><time>2026-04-26T16:37:45.4Z</time></trkpt><trkpt lat="46.1166716" lon="13.1138709"><ele>192.66666666666666</ele><time>2026-04-26T16:37:46.4Z</time></trkpt><trkpt lat="46.1166617" lon="13.1136523"><ele>191.0</ele><time>2026-04-26T16:37:47.401Z</time></trkpt><trkpt lat="46.116651" lon="13.1134295"><ele>189.66666666666666</ele><time>2026-04-26T16:37:48.4Z</time></trkpt><trkpt lat="46.116637" lon="13.1132018"><ele>188.33333333333334</ele><time>2026-04-26T16:37:49.4Z</time></trkpt><trkpt lat="46.1166255" lon="13.1129734"><ele>187.0</ele><time>2026-04-26T16:37:50.401Z</time></trkpt><trkpt lat="46.1166142" lon="13.1127458"><ele>187.0</ele><time>2026-04-26T16:37:51.4Z</time></trkpt><trkpt lat="46.1166031" lon="13.1125131"><ele>187.0</ele><time>2026-04-26T16:37:52.401Z</time></trkpt><trkpt lat="46.1165914" lon="13.1122841"><ele>187.0</ele><time>2026-04-26T16:37:53.401Z</time></trkpt><trkpt lat="46.1165797" lon="13.1120549"><ele>186.33333333333334</ele><time>2026-04-26T16:37:54.4Z</time></trkpt><trkpt lat="46.1165685" lon="13.1118257"><ele>185.66666666666666</ele><time>2026-04-26T16:37:55.4Z</time></trkpt><trkpt lat="46.1165564" lon="13.1116001"><ele>185.0</ele><time>2026-04-26T16:37:56.399Z</time></trkpt><trkpt lat="46.1165447" lon="13.1113827"><ele>185.0</ele><time>2026-04-26T16:37:57.399Z</time></trkpt><trkpt lat="46.1165334" lon="13.1111759"><ele>185.0</ele><time>2026-04-26T16:37:58.4Z</time></trkpt><trkpt lat="46.1165223" lon="13.1109796"><ele>185.0</ele><time>2026-04-26T16:37:59.4Z</time></trkpt><trkpt lat="46.116513" lon="13.1107915"><ele>185.0</ele><time>2026-04-26T16:38:00.399Z</time></trkpt><trkpt lat="46.1165037" lon="13.110613"><ele>185.0</ele><time>2026-04-26T16:38:01.4Z</time></trkpt><trkpt lat="46.1164925" lon="13.1104399"><ele>185.0</ele><time>2026-04-26T16:38:02.4Z</time></trkpt><trkpt lat="46.1164828" lon="13.1102738"><ele>185.0</ele><time>2026-04-26T16:38:03.4Z</time></trkpt><trkpt lat="46.1164748" lon="13.1100993"><ele>185.0</ele><time>2026-04-26T16:38:04.4Z</time></trkpt><trkpt lat="46.1164688" lon="13.109918"><ele>185.75</ele><time>2026-04-26T16:38:05.401Z</time></trkpt><trkpt lat="46.1164592" lon="13.1097215"><ele>186.5</ele><time>2026-04-26T16:38:06.4Z</time></trkpt><trkpt lat="46.1164457" lon="13.1095117"><ele>187.25</ele><time>2026-04-26T16:38:07.4Z</time></trkpt><trkpt lat="46.1164332" lon="13.1092945"><ele>188.0</ele><time>2026-04-26T16:38:08.399Z</time></trkpt><trkpt lat="46.1164235" lon="13.1090821"><ele>189.33333333333331</ele><time>2026-04-26T16:38:09.4Z</time></trkpt><trkpt lat="46.1164138" lon="13.1088663"><ele>190.66666666666666</ele><time>2026-04-26T16:38:10.4Z</time></trkpt><trkpt lat="46.1164035" lon="13.1086391"><ele>192.0</ele><time>2026-04-26T16:38:11.4Z</time></trkpt><trkpt lat="46.1163934" lon="13.1084049"><ele>194.0</ele><time>2026-04-26T16:38:12.4Z</time></trkpt><trkpt lat="46.1163792" lon="13.108159"><ele>196.0</ele><time>2026-04-26T16:38:13.401Z</time></trkpt><trkpt lat="46.1163639" lon="13.1079091"><ele>198.0</ele><time>2026-04-26T16:38:14.401Z</time></trkpt><trkpt lat="46.1163507" lon="13.1076548"><ele>197.66666666666669</ele><time>2026-04-26T16:38:15.401Z</time></trkpt><trkpt lat="46.1163379" lon="13.1073985"><ele>197.33333333333334</ele><time>2026-04-26T16:38:16.4Z</time></trkpt><trkpt lat="46.1163235" lon="13.1071397"><ele>197.0</ele><time>2026-04-26T16:38:17.399Z</time></trkpt><trkpt lat="46.1163126" lon="13.1068798"><ele>197.0</ele><time>2026-04-26T16:38:18.399Z</time></trkpt><trkpt lat="46.1162983" lon="13.1066225"><ele>197.0</ele><time>2026-04-26T16:38:19.399Z</time></trkpt><trkpt lat="46.1162859" lon="13.1063674"><ele>197.0</ele><time>2026-04-26T16:38:20.4Z</time></trkpt><trkpt lat="46.1162721" lon="13.1061127"><ele>197.0</ele><time>2026-04-26T16:38:21.4Z</time></trkpt><trkpt lat="46.1162608" lon="13.1058607"><ele>197.0</ele><time>2026-04-26T16:38:22.4Z</time></trkpt><trkpt lat="46.1162502" lon="13.1056109"><ele>197.0</ele><time>2026-04-26T16:38:23.4Z</time></trkpt><trkpt lat="46.1162372" lon="13.1053555"><ele>197.0</ele><time>2026-04-26T16:38:24.399Z</time></trkpt><trkpt lat="46.1162239" lon="13.1050955"><ele>197.0</ele><time>2026-04-26T16:38:25.399Z</time></trkpt><trkpt lat="46.1162103" lon="13.1048339"><ele>197.0</ele><time>2026-04-26T16:38:26.4Z</time></trkpt><trkpt lat="46.1161955" lon="13.1045698"><ele>197.33333333333334</ele><time>2026-04-26T16:38:27.401Z</time></trkpt><trkpt lat="46.1161818" lon="13.1043049"><ele>197.66666666666669</ele><time>2026-04-26T16:38:28.399Z</time></trkpt><trkpt lat="46.1161684" lon="13.1040421"><ele>198.0</ele><time>2026-04-26T16:38:29.4Z</time></trkpt><trkpt lat="46.116154" lon="13.1037784"><ele>198.0</ele><time>2026-04-26T16:38:30.4Z</time></trkpt><trkpt lat="46.1161399" lon="13.1035107"><ele>198.0</ele><time>2026-04-26T16:38:31.399Z</time></trkpt><trkpt lat="46.1161206" lon="13.1032444"><ele>198.0</ele><time>2026-04-26T16:38:32.401Z</time></trkpt><trkpt lat="46.1160937" lon="13.1029832"><ele>198.0</ele><time>2026-04-26T16:38:33.4Z</time></trkpt><trkpt lat="46.1160536" lon="13.1027242"><ele>198.0</ele><time>2026-04-26T16:38:34.399Z</time></trkpt><trkpt lat="46.1160019" lon="13.1024676"><ele>198.0</ele><time>2026-04-26T16:38:35.399Z</time></trkpt><trkpt lat="46.1159404" lon="13.1022139"><ele>198.33333333333331</ele><time>2026-04-26T16:38:36.401Z</time></trkpt><trkpt lat="46.1158669" lon="13.1019635"><ele>198.66666666666666</ele><time>2026-04-26T16:38:37.4Z</time></trkpt><trkpt lat="46.1157854" lon="13.1017217"><ele>199.0</ele><time>2026-04-26T16:38:38.401Z</time></trkpt><trkpt lat="46.1157002" lon="13.1014854"><ele>203.33333333333331</ele><time>2026-04-26T16:38:39.4Z</time></trkpt><trkpt lat="46.1156096" lon="13.1012518"><ele>207.66666666666669</ele><time>2026-04-26T16:38:40.401Z</time></trkpt><trkpt lat="46.1155195" lon="13.1010184"><ele>212.0</ele><time>2026-04-26T16:38:41.4Z</time></trkpt><trkpt lat="46.1154297" lon="13.1007906"><ele>215.0</ele><time>2026-04-26T16:38:42.399Z</time></trkpt><trkpt lat="46.115343" lon="13.1005682"><ele>218.0</ele><time>2026-04-26T16:38:43.4Z</time></trkpt><trkpt lat="46.1152557" lon="13.1003467"><ele>221.0</ele><time>2026-04-26T16:38:44.401Z</time></trkpt><trkpt lat="46.1151698" lon="13.1001272"><ele>221.33333333333334</ele><time>2026-04-26T16:38:45.399Z</time></trkpt><trkpt lat="46.1150869" lon="13.0999131"><ele>221.66666666666669</ele><time>2026-04-26T16:38:46.4Z</time></trkpt><trkpt lat="46.1150124" lon="13.0997152"><ele>222.0</ele><time>2026-04-26T16:38:47.401Z</time></trkpt><trkpt lat="46.1149483" lon="13.0995413"><ele>219.2</ele><time>2026-04-26T16:38:48.399Z</time></trkpt><trkpt lat="46.1148948" lon="13.0993823"><ele>216.39999999999998</ele><time>2026-04-26T16:38:49.401Z</time></trkpt><trkpt lat="46.1148514" lon="13.0992483"><ele>213.60000000000002</ele><time>2026-04-26T16:38:50.399Z</time></trkpt><trkpt lat="46.1148149" lon="13.0991351"><ele>210.8</ele><time>2026-04-26T16:38:51.4Z</time></trkpt><trkpt lat="46.1147867" lon="13.0990384"><ele>208.0</ele><time>2026-04-26T16:38:52.4Z</time></trkpt><trkpt lat="46.1147617" lon="13.0989453"><ele>206.49999999999997</ele><time>2026-04-26T16:38:53.401Z</time></trkpt><trkpt lat="46.1147174" lon="13.0987771"><ele>205.0</ele><time>2026-04-26T16:38:55.4Z</time></trkpt><trkpt lat="46.1146903" lon="13.0986851"><ele>203.5</ele><time>2026-04-26T16:38:56.4Z</time></trkpt><trkpt lat="46.1146673" lon="13.0985892"><ele>202.0</ele><time>2026-04-26T16:38:57.399Z</time></trkpt><trkpt lat="46.1146431" lon="13.098492"><ele>200.49999999999997</ele><time>2026-04-26T16:38:58.401Z</time></trkpt><trkpt lat="46.1146071" lon="13.0983662"><ele>199.0</ele><time>2026-04-26T16:38:59.4Z</time></trkpt><trkpt lat="46.1145775" lon="13.0982131"><ele>198.0</ele><time>2026-04-26T16:39:00.401Z</time></trkpt><trkpt lat="46.1145501" lon="13.0980244"><ele>197.0</ele><time>2026-04-26T16:39:01.401Z</time></trkpt><trkpt lat="46.1145154" lon="13.0978055"><ele>196.0</ele><time>2026-04-26T16:39:02.4Z</time></trkpt><trkpt lat="46.1144727" lon="13.0975727"><ele>195.66666666666666</ele><time>2026-04-26T16:39:03.4Z</time></trkpt><trkpt lat="46.1144252" lon="13.0973169"><ele>195.33333333333331</ele><time>2026-04-26T16:39:04.4Z</time></trkpt><trkpt lat="46.1143773" lon="13.0970576"><ele>195.0</ele><time>2026-04-26T16:39:05.4Z</time></trkpt><trkpt lat="46.1143312" lon="13.0968121"><ele>195.33333333333331</ele><time>2026-04-26T16:39:06.4Z</time></trkpt><trkpt lat="46.1142862" lon="13.096572"><ele>195.66666666666666</ele><time>2026-04-26T16:39:07.4Z</time></trkpt><trkpt lat="46.1142428" lon="13.0963365"><ele>196.0</ele><time>2026-04-26T16:39:08.4Z</time></trkpt><trkpt lat="46.1141994" lon="13.0960995"><ele>196.0</ele><time>2026-04-26T16:39:09.4Z</time></trkpt><trkpt lat="46.1141556" lon="13.0958705"><ele>196.0</ele><time>2026-04-26T16:39:10.401Z</time></trkpt><trkpt lat="46.1141154" lon="13.0956504"><ele>196.0</ele><time>2026-04-26T16:39:11.401Z</time></trkpt><trkpt lat="46.1140755" lon="13.0954295"><ele>195.0</ele><time>2026-04-26T16:39:12.4Z</time></trkpt><trkpt lat="46.1140347" lon="13.0952118"><ele>194.0</ele><time>2026-04-26T16:39:13.401Z</time></trkpt><trkpt lat="46.1140013" lon="13.0949992"><ele>193.0</ele><time>2026-04-26T16:39:14.4Z</time></trkpt><trkpt lat="46.1139694" lon="13.0947953"><ele>193.0</ele><time>2026-04-26T16:39:15.4Z</time></trkpt><trkpt lat="46.1139457" lon="13.0945928"><ele>193.0</ele><time>2026-04-26T16:39:16.401Z</time></trkpt><trkpt lat="46.1139267" lon="13.0943922"><ele>193.0</ele><time>2026-04-26T16:39:17.4Z</time></trkpt><trkpt lat="46.1139104" lon="13.0941985"><ele>193.0</ele><time>2026-04-26T16:39:18.399Z</time></trkpt><trkpt lat="46.1138965" lon="13.0940104"><ele>192.25</ele><time>2026-04-26T16:39:19.401Z</time></trkpt><trkpt lat="46.1138865" lon="13.0938331"><ele>191.5</ele><time>2026-04-26T16:39:20.4Z</time></trkpt><trkpt lat="46.1138775" lon="13.0936653"><ele>190.75</ele><time>2026-04-26T16:39:21.4Z</time></trkpt><trkpt lat="46.113872" lon="13.0935011"><ele>190.0</ele><time>2026-04-26T16:39:22.4Z</time></trkpt><trkpt lat="46.1138651" lon="13.0933495"><ele>190.2</ele><time>2026-04-26T16:39:23.4Z</time></trkpt><trkpt lat="46.1138599" lon="13.0932021"><ele>190.4</ele><time>2026-04-26T16:39:24.401Z</time></trkpt><trkpt lat="46.1138546" lon="13.0930539"><ele>190.60000000000002</ele><time>2026-04-26T16:39:25.4Z</time></trkpt><trkpt lat="46.1138505" lon="13.0928987"><ele>190.8</ele><time>2026-04-26T16:39:26.401Z</time></trkpt><trkpt lat="46.1138492" lon="13.0927376"><ele>191.0</ele><time>2026-04-26T16:39:27.4Z</time></trkpt><trkpt lat="46.1138458" lon="13.0925791"><ele>191.0</ele><time>2026-04-26T16:39:28.401Z</time></trkpt><trkpt lat="46.113842" lon="13.0924267"><ele>191.0</ele><time>2026-04-26T16:39:29.4Z</time></trkpt><trkpt lat="46.1138369" lon="13.0922704"><ele>191.0</ele><time>2026-04-26T16:39:30.4Z</time></trkpt><trkpt lat="46.1138331" lon="13.0921053"><ele>191.0</ele><time>2026-04-26T16:39:31.4Z</time></trkpt><trkpt lat="46.1138395" lon="13.0919289"><ele>190.25</ele><time>2026-04-26T16:39:32.399Z</time></trkpt><trkpt lat="46.1138516" lon="13.091744"><ele>189.5</ele><time>2026-04-26T16:39:33.4Z</time></trkpt><trkpt lat="46.1138631" lon="13.0915553"><ele>188.75</ele><time>2026-04-26T16:39:34.4Z</time></trkpt><trkpt lat="46.1138737" lon="13.0913628"><ele>188.0</ele><time>2026-04-26T16:39:35.4Z</time></trkpt><trkpt lat="46.113884" lon="13.0911747"><ele>187.25</ele><time>2026-04-26T16:39:36.4Z</time></trkpt><trkpt lat="46.113896" lon="13.0909973"><ele>186.5</ele><time>2026-04-26T16:39:37.399Z</time></trkpt><trkpt lat="46.1139077" lon="13.0908252"><ele>185.75</ele><time>2026-04-26T16:39:38.401Z</time></trkpt><trkpt lat="46.1139184" lon="13.0906412"><ele>185.0</ele><time>2026-04-26T16:39:39.4Z</time></trkpt><trkpt lat="46.1139203" lon="13.0904441"><ele>185.0</ele><time>2026-04-26T16:39:40.401Z</time></trkpt><trkpt lat="46.1139161" lon="13.0902425"><ele>185.0</ele><time>2026-04-26T16:39:41.4Z</time></trkpt><trkpt lat="46.1139086" lon="13.0900412"><ele>185.0</ele><time>2026-04-26T16:39:42.4Z</time></trkpt><trkpt lat="46.1138979" lon="13.089844"><ele>185.0</ele><time>2026-04-26T16:39:43.4Z</time></trkpt><trkpt lat="46.1138922" lon="13.0896611"><ele>185.8</ele><time>2026-04-26T16:39:44.4Z</time></trkpt><trkpt lat="46.1138877" lon="13.0894931"><ele>186.6</ele><time>2026-04-26T16:39:45.4Z</time></trkpt><trkpt lat="46.1138808" lon="13.0893359"><ele>187.39999999999998</ele><time>2026-04-26T16:39:46.4Z</time></trkpt><trkpt lat="46.113872" lon="13.0891839"><ele>188.2</ele><time>2026-04-26T16:39:47.4Z</time></trkpt><trkpt lat="46.1138643" lon="13.0890345"><ele>189.0</ele><time>2026-04-26T16:39:48.4Z</time></trkpt><trkpt lat="46.1138549" lon="13.0888766"><ele>189.25</ele><time>2026-04-26T16:39:49.4Z</time></trkpt><trkpt lat="46.1138483" lon="13.0887044"><ele>189.5</ele><time>2026-04-26T16:39:50.4Z</time></trkpt><trkpt lat="46.1138399" lon="13.0885259"><ele>189.75</ele><time>2026-04-26T16:39:51.4Z</time></trkpt><trkpt lat="46.113831" lon="13.0883547"><ele>190.0</ele><time>2026-04-26T16:39:52.4Z</time></trkpt><trkpt lat="46.1138185" lon="13.0881803"><ele>190.0</ele><time>2026-04-26T16:39:53.401Z</time></trkpt><trkpt lat="46.1138028" lon="13.088012"><ele>190.0</ele><time>2026-04-26T16:39:54.4Z</time></trkpt><trkpt lat="46.1137828" lon="13.0878536"><ele>190.0</ele><time>2026-04-26T16:39:55.399Z</time></trkpt><trkpt lat="46.1137589" lon="13.087699"><ele>190.0</ele><time>2026-04-26T16:39:56.401Z</time></trkpt><trkpt lat="46.1137319" lon="13.0875511"><ele>190.0</ele><time>2026-04-26T16:39:57.401Z</time></trkpt><trkpt lat="46.1137044" lon="13.087403"><ele>188.6</ele><time>2026-04-26T16:39:58.4Z</time></trkpt><trkpt lat="46.1136767" lon="13.0872582"><ele>187.2</ele><time>2026-04-26T16:39:59.399Z</time></trkpt><trkpt lat="46.1136487" lon="13.0871205"><ele>185.8</ele><time>2026-04-26T16:40:00.399Z</time></trkpt><trkpt lat="46.1136223" lon="13.0869897"><ele>184.4</ele><time>2026-04-26T16:40:01.4Z</time></trkpt><trkpt lat="46.1136053" lon="13.0868621"><ele>183.0</ele><time>2026-04-26T16:40:02.4Z</time></trkpt><trkpt lat="46.113608" lon="13.0867347"><ele>183.0</ele><time>2026-04-26T16:40:03.4Z</time></trkpt><trkpt lat="46.113628" lon="13.0866159"><ele>183.0</ele><time>2026-04-26T16:40:04.4Z</time></trkpt><trkpt lat="46.1136699" lon="13.0865064"><ele>183.0</ele><time>2026-04-26T16:40:05.4Z</time></trkpt><trkpt lat="46.1137337" lon="13.0864042"><ele>183.0</ele><time>2026-04-26T16:40:06.4Z</time></trkpt><trkpt lat="46.1138169" lon="13.0863118"><ele>183.0</ele><time>2026-04-26T16:40:07.4Z</time></trkpt><trkpt lat="46.1138986" lon="13.0862156"><ele>182.5</ele><time>2026-04-26T16:40:08.399Z</time></trkpt><trkpt lat="46.1139809" lon="13.0861235"><ele>182.0</ele><time>2026-04-26T16:40:09.4Z</time></trkpt><trkpt lat="46.114063" lon="13.0860371"><ele>181.5</ele><time>2026-04-26T16:40:10.4Z</time></trkpt><trkpt lat="46.1141363" lon="13.0859611"><ele>181.0</ele><time>2026-04-26T16:40:11.4Z</time></trkpt><trkpt lat="46.1141967" lon="13.0858887"><ele>180.5</ele><time>2026-04-26T16:40:12.4Z</time></trkpt><trkpt lat="46.1142383" lon="13.0858038"><ele>180.0</ele><time>2026-04-26T16:40:13.4Z</time></trkpt><trkpt lat="46.1142435" lon="13.0857062"><ele>180.0</ele><time>2026-04-26T16:40:14.4Z</time></trkpt><trkpt lat="46.1142292" lon="13.0856111"><ele>180.0</ele><time>2026-04-26T16:40:15.4Z</time></trkpt><trkpt lat="46.1141914" lon="13.0855264"><ele>180.0</ele><time>2026-04-26T16:40:16.4Z</time></trkpt><trkpt lat="46.1141316" lon="13.0854798"><ele>180.0</ele><time>2026-04-26T16:40:17.4Z</time></trkpt><trkpt lat="46.1140556" lon="13.085473"><ele>180.0</ele><time>2026-04-26T16:40:18.4Z</time></trkpt><trkpt lat="46.1139668" lon="13.0854867"><ele>180.0</ele><time>2026-04-26T16:40:19.399Z</time></trkpt><trkpt lat="46.1138737" lon="13.0855035"><ele>179.16666666666666</ele><time>2026-04-26T16:40:20.4Z</time></trkpt><trkpt lat="46.1137814" lon="13.0855225"><ele>178.33333333333334</ele><time>2026-04-26T16:40:21.4Z</time></trkpt><trkpt lat="46.1136943" lon="13.085545"><ele>177.5</ele><time>2026-04-26T16:40:22.4Z</time></trkpt><trkpt lat="46.1136039" lon="13.0855543"><ele>176.66666666666669</ele><time>2026-04-26T16:40:23.4Z</time></trkpt><trkpt lat="46.1135236" lon="13.0855331"><ele>175.83333333333334</ele><time>2026-04-26T16:40:24.401Z</time></trkpt><trkpt lat="46.1134507" lon="13.0854775"><ele>175.0</ele><time>2026-04-26T16:40:25.399Z</time></trkpt><trkpt lat="46.1133961" lon="13.0853855"><ele>175.0</ele><time>2026-04-26T16:40:26.4Z</time></trkpt><trkpt lat="46.1133529" lon="13.085276"><ele>175.0</ele><time>2026-04-26T16:40:27.4Z</time></trkpt><trkpt lat="46.1133295" lon="13.0851506"><ele>175.0</ele><time>2026-04-26T16:40:28.401Z</time></trkpt><trkpt lat="46.1133002" lon="13.0850337"><ele>175.0</ele><time>2026-04-26T16:40:29.4Z</time></trkpt><trkpt lat="46.1132713" lon="13.0849182"><ele>175.0</ele><time>2026-04-26T16:40:30.4Z</time></trkpt><trkpt lat="46.1132469" lon="13.0848166"><ele>175.0</ele><time>2026-04-26T16:40:31.4Z</time></trkpt><trkpt lat="46.1132093" lon="13.0846615"><ele>175.0</ele><time>2026-04-26T16:40:33.401Z</time></trkpt><trkpt lat="46.1131885" lon="13.0845348"><ele>175.0</ele><time>2026-04-26T16:40:35.4Z</time></trkpt><trkpt lat="46.1132358" lon="13.0844042"><ele>175.0</ele><time>2026-04-26T16:40:37.4Z</time></trkpt><trkpt lat="46.1133042" lon="13.0843636"><ele>175.0</ele><time>2026-04-26T16:40:38.4Z</time></trkpt><trkpt lat="46.113379" lon="13.0843329"><ele>175.0</ele><time>2026-04-26T16:40:39.4Z</time></trkpt><trkpt lat="46.1134636" lon="13.0843006"><ele>175.0</ele><time>2026-04-26T16:40:40.399Z</time></trkpt><trkpt lat="46.1135409" lon="13.0842688"><ele>175.0</ele><time>2026-04-26T16:40:41.4Z</time></trkpt><trkpt lat="46.1136222" lon="13.0842399"><ele>175.0</ele><time>2026-04-26T16:40:42.4Z</time></trkpt><trkpt lat="46.1137065" lon="13.0842016"><ele>175.0</ele><time>2026-04-26T16:40:43.4Z</time></trkpt><trkpt lat="46.1137914" lon="13.0841664"><ele>175.0</ele><time>2026-04-26T16:40:44.4Z</time></trkpt><trkpt lat="46.1138844" lon="13.0841312"><ele>175.0</ele><time>2026-04-26T16:40:45.4Z</time></trkpt><trkpt lat="46.1139754" lon="13.0840997"><ele>175.16666666666669</ele><time>2026-04-26T16:40:46.4Z</time></trkpt><trkpt lat="46.1140545" lon="13.0840781"><ele>175.33333333333334</ele><time>2026-04-26T16:40:47.4Z</time></trkpt><trkpt lat="46.1141212" lon="13.0840584"><ele>175.5</ele><time>2026-04-26T16:40:48.399Z</time></trkpt><trkpt lat="46.1141865" lon="13.0840396"><ele>175.66666666666666</ele><time>2026-04-26T16:40:49.4Z</time></trkpt><trkpt lat="46.1142574" lon="13.0840386"><ele>175.83333333333331</ele><time>2026-04-26T16:40:50.4Z</time></trkpt><trkpt lat="46.114336" lon="13.0840343"><ele>176.0</ele><time>2026-04-26T16:40:51.399Z</time></trkpt><trkpt lat="46.1144211" lon="13.0840253"><ele>176.16666666666666</ele><time>2026-04-26T16:40:52.401Z</time></trkpt><trkpt lat="46.1145017" lon="13.0840138"><ele>176.33333333333331</ele><time>2026-04-26T16:40:53.4Z</time></trkpt><trkpt lat="46.114578" lon="13.0840008"><ele>176.5</ele><time>2026-04-26T16:40:54.4Z</time></trkpt><trkpt lat="46.1146608" lon="13.0839992"><ele>176.66666666666666</ele><time>2026-04-26T16:40:55.4Z</time></trkpt><trkpt lat="46.1147371" lon="13.0839787"><ele>176.83333333333334</ele><time>2026-04-26T16:40:56.4Z</time></trkpt><trkpt lat="46.1148178" lon="13.0839627"><ele>177.0</ele><time>2026-04-26T16:40:57.399Z</time></trkpt><trkpt lat="46.1149027" lon="13.0839508"><ele>177.16666666666666</ele><time>2026-04-26T16:40:58.4Z</time></trkpt><trkpt lat="46.1149836" lon="13.0839396"><ele>177.33333333333334</ele><time>2026-04-26T16:40:59.4Z</time></trkpt><trkpt lat="46.1150702" lon="13.0839202"><ele>177.5</ele><time>2026-04-26T16:41:00.401Z</time></trkpt><trkpt lat="46.1151517" lon="13.0838911"><ele>177.66666666666669</ele><time>2026-04-26T16:41:01.4Z</time></trkpt><trkpt lat="46.1152331" lon="13.0838659"><ele>177.83333333333334</ele><time>2026-04-26T16:41:02.4Z</time></trkpt><trkpt lat="46.1153184" lon="13.0838371"><ele>178.0</ele><time>2026-04-26T16:41:03.4Z</time></trkpt><trkpt lat="46.1154151" lon="13.0838069"><ele>178.0</ele><time>2026-04-26T16:41:04.4Z</time></trkpt><trkpt lat="46.1155143" lon="13.0837761"><ele>178.0</ele><time>2026-04-26T16:41:05.4Z</time></trkpt><trkpt lat="46.1156059" lon="13.083756"><ele>178.0</ele><time>2026-04-26T16:41:06.4Z</time></trkpt><trkpt lat="46.1156926" lon="13.0837343"><ele>178.0</ele><time>2026-04-26T16:41:07.4Z</time></trkpt><trkpt lat="46.1157765" lon="13.0837162"><ele>178.0</ele><time>2026-04-26T16:41:08.4Z</time></trkpt><trkpt lat="46.1158588" lon="13.0836974"><ele>178.28571428571428</ele><time>2026-04-26T16:41:09.4Z</time></trkpt><trkpt lat="46.1159367" lon="13.0836784"><ele>178.57142857142856</ele><time>2026-04-26T16:41:10.4Z</time></trkpt><trkpt lat="46.1160063" lon="13.083658"><ele>178.85714285714283</ele><time>2026-04-26T16:41:11.4Z</time></trkpt><trkpt lat="46.1160735" lon="13.0836376"><ele>179.14285714285714</ele><time>2026-04-26T16:41:12.401Z</time></trkpt><trkpt lat="46.1161459" lon="13.0836135"><ele>179.42857142857144</ele><time>2026-04-26T16:41:13.4Z</time></trkpt><trkpt lat="46.1162202" lon="13.0835935"><ele>179.7142857142857</ele><time>2026-04-26T16:41:14.4Z</time></trkpt><trkpt lat="46.1162943" lon="13.0835728"><ele>180.0</ele><time>2026-04-26T16:41:15.4Z</time></trkpt><trkpt lat="46.1163662" lon="13.0835516"><ele>180.0</ele><time>2026-04-26T16:41:16.4Z</time></trkpt><trkpt lat="46.1164366" lon="13.0835355"><ele>180.0</ele><time>2026-04-26T16:41:17.4Z</time></trkpt><trkpt lat="46.1165016" lon="13.0835305"><ele>180.0</ele><time>2026-04-26T16:41:18.399Z</time></trkpt><trkpt lat="46.1166119" lon="13.0835023"><ele>180.0</ele><time>2026-04-26T16:41:20.4Z</time></trkpt><trkpt lat="46.1167207" lon="13.0834596"><ele>180.0</ele><time>2026-04-26T16:41:22.4Z</time></trkpt><trkpt lat="46.1168293" lon="13.0834021"><ele>180.4</ele><time>2026-04-26T16:41:24.399Z</time></trkpt><trkpt lat="46.1169188" lon="13.0832874"><ele>180.8</ele><time>2026-04-26T16:41:26.401Z</time></trkpt><trkpt lat="46.1169965" lon="13.0831704"><ele>181.2</ele><time>2026-04-26T16:41:28.4Z</time></trkpt><trkpt lat="46.1170701" lon="13.0830614"><ele>181.6</ele><time>2026-04-26T16:41:30.399Z</time></trkpt><trkpt lat="46.1171507" lon="13.0829587"><ele>182.0</ele><time>2026-04-26T16:41:32.401Z</time></trkpt><trkpt lat="46.1172203" lon="13.0828626"><ele>182.0</ele><time>2026-04-26T16:41:34.399Z</time></trkpt><trkpt lat="46.1172779" lon="13.0827768"><ele>182.0</ele><time>2026-04-26T16:41:36.401Z</time></trkpt><trkpt lat="46.1173368" lon="13.0826893"><ele>182.0</ele><time>2026-04-26T16:41:38.4Z</time></trkpt><trkpt lat="46.1174068" lon="13.0825744"><ele>182.0</ele><time>2026-04-26T16:41:40.4Z</time></trkpt><trkpt lat="46.1174523" lon="13.0824988"><ele>182.0</ele><time>2026-04-26T16:41:41.399Z</time></trkpt><trkpt lat="46.1175027" lon="13.0824253"><ele>182.0</ele><time>2026-04-26T16:41:42.4Z</time></trkpt><trkpt lat="46.117553" lon="13.0823516"><ele>181.16666666666666</ele><time>2026-04-26T16:41:43.399Z</time></trkpt><trkpt lat="46.1176056" lon="13.0822765"><ele>180.33333333333331</ele><time>2026-04-26T16:41:44.4Z</time></trkpt><trkpt lat="46.1176626" lon="13.0821937"><ele>179.5</ele><time>2026-04-26T16:41:45.401Z</time></trkpt><trkpt lat="46.1177226" lon="13.082104"><ele>178.66666666666666</ele><time>2026-04-26T16:41:46.4Z</time></trkpt><trkpt lat="46.1177836" lon="13.0820144"><ele>177.83333333333334</ele><time>2026-04-26T16:41:47.399Z</time></trkpt><trkpt lat="46.1178442" lon="13.0819248"><ele>177.0</ele><time>2026-04-26T16:41:48.4Z</time></trkpt><trkpt lat="46.1179101" lon="13.0818257"><ele>177.0</ele><time>2026-04-26T16:41:49.4Z</time></trkpt><trkpt lat="46.1179778" lon="13.0817262"><ele>177.0</ele><time>2026-04-26T16:41:50.399Z</time></trkpt><trkpt lat="46.1180473" lon="13.0816199"><ele>177.0</ele><time>2026-04-26T16:41:51.4Z</time></trkpt><trkpt lat="46.1181187" lon="13.0815199"><ele>177.0</ele><time>2026-04-26T16:41:52.401Z</time></trkpt><trkpt lat="46.1181897" lon="13.0814139"><ele>177.0</ele><time>2026-04-26T16:41:53.4Z</time></trkpt><trkpt lat="46.1182615" lon="13.0813077"><ele>176.2</ele><time>2026-04-26T16:41:54.401Z</time></trkpt><trkpt lat="46.1183365" lon="13.0811999"><ele>175.39999999999998</ele><time>2026-04-26T16:41:55.401Z</time></trkpt><trkpt lat="46.1184151" lon="13.0810878"><ele>174.60000000000002</ele><time>2026-04-26T16:41:56.4Z</time></trkpt><trkpt lat="46.1184939" lon="13.0809733"><ele>173.8</ele><time>2026-04-26T16:41:57.401Z</time></trkpt><trkpt lat="46.1185717" lon="13.0808564"><ele>173.0</ele><time>2026-04-26T16:41:58.401Z</time></trkpt><trkpt lat="46.1186488" lon="13.0807416"><ele>172.75</ele><time>2026-04-26T16:41:59.401Z</time></trkpt><trkpt lat="46.1187288" lon="13.0806276"><ele>172.5</ele><time>2026-04-26T16:42:00.4Z</time></trkpt><trkpt lat="46.1188112" lon="13.0805128"><ele>172.25</ele><time>2026-04-26T16:42:01.401Z</time></trkpt><trkpt lat="46.1188924" lon="13.0803971"><ele>172.0</ele><time>2026-04-26T16:42:02.4Z</time></trkpt><trkpt lat="46.1189688" lon="13.0802827"><ele>172.0</ele><time>2026-04-26T16:42:03.4Z</time></trkpt><trkpt lat="46.1190399" lon="13.080177"><ele>172.0</ele><time>2026-04-26T16:42:04.4Z</time></trkpt><trkpt lat="46.1191062" lon="13.0800836"><ele>172.0</ele><time>2026-04-26T16:42:05.4Z</time></trkpt><trkpt lat="46.1191636" lon="13.0800033"><ele>172.0</ele><time>2026-04-26T16:42:06.399Z</time></trkpt><trkpt lat="46.1192136" lon="13.0799348"><ele>172.0</ele><time>2026-04-26T16:42:07.401Z</time></trkpt><trkpt lat="46.1193011" lon="13.0798167"><ele>172.0</ele><time>2026-04-26T16:42:09.4Z</time></trkpt><trkpt lat="46.119389" lon="13.0797024"><ele>172.0</ele><time>2026-04-26T16:42:11.4Z</time></trkpt><trkpt lat="46.1194553" lon="13.0796276"><ele>172.0</ele><time>2026-04-26T16:42:12.4Z</time></trkpt><trkpt lat="46.1195413" lon="13.0795446"><ele>172.0</ele><time>2026-04-26T16:42:13.399Z</time></trkpt><trkpt lat="46.1196271" lon="13.0794641"><ele>172.0</ele><time>2026-04-26T16:42:14.401Z</time></trkpt><trkpt lat="46.119725" lon="13.0793732"><ele>172.0</ele><time>2026-04-26T16:42:15.4Z</time></trkpt><trkpt lat="46.1198234" lon="13.0792875"><ele>172.0</ele><time>2026-04-26T16:42:16.401Z</time></trkpt><trkpt lat="46.1199264" lon="13.0792032"><ele>172.0</ele><time>2026-04-26T16:42:17.4Z</time></trkpt><trkpt lat="46.1200324" lon="13.0791166"><ele>172.0</ele><time>2026-04-26T16:42:18.4Z</time></trkpt><trkpt lat="46.1201369" lon="13.079037"><ele>172.75</ele><time>2026-04-26T16:42:19.4Z</time></trkpt><trkpt lat="46.1202415" lon="13.0789537"><ele>173.5</ele><time>2026-04-26T16:42:20.401Z</time></trkpt><trkpt lat="46.1203465" lon="13.0788679"><ele>174.25</ele><time>2026-04-26T16:42:21.399Z</time></trkpt><trkpt lat="46.1204589" lon="13.0787764"><ele>175.0</ele><time>2026-04-26T16:42:22.401Z</time></trkpt><trkpt lat="46.1205738" lon="13.0786858"><ele>175.0</ele><time>2026-04-26T16:42:23.4Z</time></trkpt><trkpt lat="46.1206867" lon="13.0785969"><ele>175.0</ele><time>2026-04-26T16:42:24.401Z</time></trkpt><trkpt lat="46.1207971" lon="13.0785074"><ele>175.0</ele><time>2026-04-26T16:42:25.401Z</time></trkpt><trkpt lat="46.1209081" lon="13.0784192"><ele>175.0</ele><time>2026-04-26T16:42:26.4Z</time></trkpt><trkpt lat="46.121016" lon="13.078333"><ele>175.0</ele><time>2026-04-26T16:42:27.4Z</time></trkpt><trkpt lat="46.1211231" lon="13.0782482"><ele>175.0</ele><time>2026-04-26T16:42:28.399Z</time></trkpt><trkpt lat="46.1212319" lon="13.0781588"><ele>175.0</ele><time>2026-04-26T16:42:29.401Z</time></trkpt><trkpt lat="46.1213438" lon="13.0780691"><ele>175.0</ele><time>2026-04-26T16:42:30.399Z</time></trkpt><trkpt lat="46.1214548" lon="13.0779804"><ele>175.0</ele><time>2026-04-26T16:42:31.399Z</time></trkpt><trkpt lat="46.1215643" lon="13.077895"><ele>175.0</ele><time>2026-04-26T16:42:32.4Z</time></trkpt><trkpt lat="46.1216697" lon="13.0778122"><ele>175.0</ele><time>2026-04-26T16:42:33.4Z</time></trkpt><trkpt lat="46.1217748" lon="13.0777293"><ele>175.0</ele><time>2026-04-26T16:42:34.4Z</time></trkpt><trkpt lat="46.1218776" lon="13.0776452"><ele>175.5</ele><time>2026-04-26T16:42:35.401Z</time></trkpt><trkpt lat="46.1219811" lon="13.0775612"><ele>176.0</ele><time>2026-04-26T16:42:36.4Z</time></trkpt><trkpt lat="46.1220812" lon="13.0774791"><ele>176.5</ele><time>2026-04-26T16:42:37.4Z</time></trkpt><trkpt lat="46.1221792" lon="13.0774032"><ele>177.0</ele><time>2026-04-26T16:42:38.4Z</time></trkpt><trkpt lat="46.1222766" lon="13.0773276"><ele>177.5</ele><time>2026-04-26T16:42:39.401Z</time></trkpt><trkpt lat="46.122378" lon="13.0772492"><ele>178.0</ele><time>2026-04-26T16:42:40.4Z</time></trkpt><trkpt lat="46.1224817" lon="13.0771697"><ele>178.5</ele><time>2026-04-26T16:42:41.399Z</time></trkpt><trkpt lat="46.1225868" lon="13.0770895"><ele>179.0</ele><time>2026-04-26T16:42:42.4Z</time></trkpt><trkpt lat="46.122692" lon="13.0770095"><ele>179.0</ele><time>2026-04-26T16:42:43.401Z</time></trkpt><trkpt lat="46.1227931" lon="13.0769311"><ele>179.0</ele><time>2026-04-26T16:42:44.4Z</time></trkpt><trkpt lat="46.122888" lon="13.0768559"><ele>179.0</ele><time>2026-04-26T16:42:45.4Z</time></trkpt><trkpt lat="46.1229782" lon="13.0767845"><ele>179.0</ele><time>2026-04-26T16:42:46.4Z</time></trkpt><trkpt lat="46.1230646" lon="13.0767145"><ele>179.0</ele><time>2026-04-26T16:42:47.401Z</time></trkpt><trkpt lat="46.1231469" lon="13.0766491"><ele>180.0</ele><time>2026-04-26T16:42:48.399Z</time></trkpt><trkpt lat="46.1232215" lon="13.0765872"><ele>181.0</ele><time>2026-04-26T16:42:49.401Z</time></trkpt><trkpt lat="46.1232923" lon="13.0765283"><ele>182.0</ele><time>2026-04-26T16:42:50.4Z</time></trkpt><trkpt lat="46.1233629" lon="13.0764746"><ele>183.0</ele><time>2026-04-26T16:42:51.401Z</time></trkpt><trkpt lat="46.1234313" lon="13.0764278"><ele>184.0</ele><time>2026-04-26T16:42:52.4Z</time></trkpt><trkpt lat="46.1234945" lon="13.0763853"><ele>185.0</ele><time>2026-04-26T16:42:53.4Z</time></trkpt><trkpt lat="46.1235538" lon="13.0763367"><ele>185.0</ele><time>2026-04-26T16:42:54.401Z</time></trkpt><trkpt lat="46.1236088" lon="13.0762716"><ele>185.0</ele><time>2026-04-26T16:42:55.4Z</time></trkpt><trkpt lat="46.1236616" lon="13.0761924"><ele>185.0</ele><time>2026-04-26T16:42:56.401Z</time></trkpt><trkpt lat="46.1236991" lon="13.0760925"><ele>185.0</ele><time>2026-04-26T16:42:57.401Z</time></trkpt><trkpt lat="46.1237184" lon="13.0759768"><ele>185.0</ele><time>2026-04-26T16:42:58.401Z</time></trkpt><trkpt lat="46.1237423" lon="13.0758558"><ele>185.0</ele><time>2026-04-26T16:42:59.4Z</time></trkpt><trkpt lat="46.1237921" lon="13.0757534"><ele>186.6</ele><time>2026-04-26T16:43:00.4Z</time></trkpt><trkpt lat="46.1238717" lon="13.0756803"><ele>188.2</ele><time>2026-04-26T16:43:01.4Z</time></trkpt><trkpt lat="46.1239618" lon="13.0756226"><ele>189.8</ele><time>2026-04-26T16:43:02.401Z</time></trkpt><trkpt lat="46.1240555" lon="13.0755617"><ele>191.4</ele><time>2026-04-26T16:43:03.4Z</time></trkpt><trkpt lat="46.1241517" lon="13.0755026"><ele>193.0</ele><time>2026-04-26T16:43:04.4Z</time></trkpt><trkpt lat="46.1242452" lon="13.075447"><ele>193.0</ele><time>2026-04-26T16:43:05.4Z</time></trkpt><trkpt lat="46.1243376" lon="13.0753939"><ele>193.0</ele><time>2026-04-26T16:43:06.4Z</time></trkpt><trkpt lat="46.1244269" lon="13.0753414"><ele>193.0</ele><time>2026-04-26T16:43:07.4Z</time></trkpt><trkpt lat="46.1245133" lon="13.0752832"><ele>193.0</ele><time>2026-04-26T16:43:08.4Z</time></trkpt><trkpt lat="46.1245991" lon="13.0752142"><ele>193.0</ele><time>2026-04-26T16:43:09.4Z</time></trkpt><trkpt lat="46.1246883" lon="13.0751225"><ele>193.0</ele><time>2026-04-26T16:43:10.4Z</time></trkpt><trkpt lat="46.1247766" lon="13.0750153"><ele>193.0</ele><time>2026-04-26T16:43:11.401Z</time></trkpt><trkpt lat="46.124863" lon="13.0748986"><ele>193.0</ele><time>2026-04-26T16:43:12.399Z</time></trkpt><trkpt lat="46.1249462" lon="13.0747825"><ele>193.0</ele><time>2026-04-26T16:43:13.4Z</time></trkpt><trkpt lat="46.1250273" lon="13.0746656"><ele>193.4</ele><time>2026-04-26T16:43:14.4Z</time></trkpt><trkpt lat="46.1251013" lon="13.0745486"><ele>193.8</ele><time>2026-04-26T16:43:15.4Z</time></trkpt><trkpt lat="46.1251732" lon="13.0744329"><ele>194.2</ele><time>2026-04-26T16:43:16.4Z</time></trkpt><trkpt lat="46.1252477" lon="13.0743182"><ele>194.6</ele><time>2026-04-26T16:43:17.4Z</time></trkpt><trkpt lat="46.1253205" lon="13.0741983"><ele>195.0</ele><time>2026-04-26T16:43:18.4Z</time></trkpt><trkpt lat="46.1253935" lon="13.0740627"><ele>196.5</ele><time>2026-04-26T16:43:19.4Z</time></trkpt><trkpt lat="46.1254622" lon="13.0739128"><ele>198.0</ele><time>2026-04-26T16:43:20.401Z</time></trkpt><trkpt lat="46.1255295" lon="13.0737481"><ele>199.5</ele><time>2026-04-26T16:43:21.401Z</time></trkpt><trkpt lat="46.1255899" lon="13.0735824"><ele>201.0</ele><time>2026-04-26T16:43:22.399Z</time></trkpt><trkpt lat="46.1256453" lon="13.0734097"><ele>201.75</ele><time>2026-04-26T16:43:23.401Z</time></trkpt><trkpt lat="46.1256961" lon="13.0732397"><ele>202.5</ele><time>2026-04-26T16:43:24.399Z</time></trkpt><trkpt lat="46.1257451" lon="13.0730709"><ele>203.25</ele><time>2026-04-26T16:43:25.4Z</time></trkpt><trkpt lat="46.1257918" lon="13.0728996"><ele>204.0</ele><time>2026-04-26T16:43:26.399Z</time></trkpt><trkpt lat="46.1258398" lon="13.0727149"><ele>203.0</ele><time>2026-04-26T16:43:27.399Z</time></trkpt><trkpt lat="46.125893" lon="13.0725258"><ele>202.0</ele><time>2026-04-26T16:43:28.399Z</time></trkpt><trkpt lat="46.1259455" lon="13.0723338"><ele>201.0</ele><time>2026-04-26T16:43:29.399Z</time></trkpt><trkpt lat="46.1259993" lon="13.0721425"><ele>200.0</ele><time>2026-04-26T16:43:30.4Z</time></trkpt><trkpt lat="46.1260533" lon="13.0719515"><ele>200.0</ele><time>2026-04-26T16:43:31.399Z</time></trkpt><trkpt lat="46.1261067" lon="13.0717611"><ele>200.0</ele><time>2026-04-26T16:43:32.399Z</time></trkpt><trkpt lat="46.1261583" lon="13.0715716"><ele>200.0</ele><time>2026-04-26T16:43:33.399Z</time></trkpt><trkpt lat="46.1262097" lon="13.0713826"><ele>200.0</ele><time>2026-04-26T16:43:34.399Z</time></trkpt><trkpt lat="46.1262606" lon="13.0711979"><ele>200.0</ele><time>2026-04-26T16:43:35.398Z</time></trkpt><trkpt lat="46.1263114" lon="13.0710156"><ele>200.0</ele><time>2026-04-26T16:43:36.4Z</time></trkpt><trkpt lat="46.1263598" lon="13.0708356"><ele>200.0</ele><time>2026-04-26T16:43:37.399Z</time></trkpt><trkpt lat="46.1264094" lon="13.0706596"><ele>200.0</ele><time>2026-04-26T16:43:38.399Z</time></trkpt><trkpt lat="46.1264586" lon="13.0704859"><ele>199.75</ele><time>2026-04-26T16:43:39.4Z</time></trkpt><trkpt lat="46.1265055" lon="13.0703147"><ele>199.5</ele><time>2026-04-26T16:43:40.4Z</time></trkpt><trkpt lat="46.1265527" lon="13.0701476"><ele>199.25</ele><time>2026-04-26T16:43:41.399Z</time></trkpt><trkpt lat="46.1265994" lon="13.0699818"><ele>199.0</ele><time>2026-04-26T16:43:42.399Z</time></trkpt><trkpt lat="46.1266435" lon="13.0698187"><ele>198.75</ele><time>2026-04-26T16:43:43.399Z</time></trkpt><trkpt lat="46.126686" lon="13.0696554"><ele>198.5</ele><time>2026-04-26T16:43:44.4Z</time></trkpt><trkpt lat="46.1267345" lon="13.0694932"><ele>198.25</ele><time>2026-04-26T16:43:45.398Z</time></trkpt><trkpt lat="46.1267812" lon="13.0693312"><ele>198.0</ele><time>2026-04-26T16:43:46.4Z</time></trkpt><trkpt lat="46.1268261" lon="13.0691675"><ele>197.75</ele><time>2026-04-26T16:43:47.399Z</time></trkpt><trkpt lat="46.1268729" lon="13.0690038"><ele>197.5</ele><time>2026-04-26T16:43:48.4Z</time></trkpt><trkpt lat="46.1269219" lon="13.0688387"><ele>197.25</ele><time>2026-04-26T16:43:49.399Z</time></trkpt><trkpt lat="46.1269756" lon="13.0686749"><ele>197.0</ele><time>2026-04-26T16:43:50.399Z</time></trkpt><trkpt lat="46.1270329" lon="13.0685115"><ele>197.0</ele><time>2026-04-26T16:43:51.399Z</time></trkpt><trkpt lat="46.127098" lon="13.0683432"><ele>197.0</ele><time>2026-04-26T16:43:52.4Z</time></trkpt><trkpt lat="46.1271703" lon="13.0681779"><ele>197.0</ele><time>2026-04-26T16:43:53.399Z</time></trkpt><trkpt lat="46.1272519" lon="13.068014"><ele>197.0</ele><time>2026-04-26T16:43:54.4Z</time></trkpt><trkpt lat="46.1273389" lon="13.0678564"><ele>197.5</ele><time>2026-04-26T16:43:55.398Z</time></trkpt><trkpt lat="46.1274279" lon="13.0677076"><ele>198.0</ele><time>2026-04-26T16:43:56.399Z</time></trkpt><trkpt lat="46.1275192" lon="13.0675602"><ele>198.5</ele><time>2026-04-26T16:43:57.399Z</time></trkpt><trkpt lat="46.127611" lon="13.0674136"><ele>199.0</ele><time>2026-04-26T16:43:58.399Z</time></trkpt><trkpt lat="46.127699" lon="13.0672744"><ele>199.0</ele><time>2026-04-26T16:43:59.399Z</time></trkpt><trkpt lat="46.1277852" lon="13.0671382"><ele>199.0</ele><time>2026-04-26T16:44:00.399Z</time></trkpt><trkpt lat="46.1278682" lon="13.0670037"><ele>199.0</ele><time>2026-04-26T16:44:01.399Z</time></trkpt><trkpt lat="46.1279481" lon="13.0668714"><ele>199.0</ele><time>2026-04-26T16:44:02.398Z</time></trkpt><trkpt lat="46.1280263" lon="13.0667429"><ele>199.0</ele><time>2026-04-26T16:44:03.399Z</time></trkpt><trkpt lat="46.1281071" lon="13.0666127"><ele>199.0</ele><time>2026-04-26T16:44:04.398Z</time></trkpt><trkpt lat="46.1281925" lon="13.0664843"><ele>199.0</ele><time>2026-04-26T16:44:05.399Z</time></trkpt><trkpt lat="46.1282872" lon="13.0663633"><ele>199.0</ele><time>2026-04-26T16:44:06.399Z</time></trkpt><trkpt lat="46.1283888" lon="13.0662546"><ele>198.5</ele><time>2026-04-26T16:44:07.4Z</time></trkpt><trkpt lat="46.1284966" lon="13.0661593"><ele>198.0</ele><time>2026-04-26T16:44:08.399Z</time></trkpt><trkpt lat="46.1286025" lon="13.066069"><ele>197.5</ele><time>2026-04-26T16:44:09.399Z</time></trkpt><trkpt lat="46.1287047" lon="13.0659872"><ele>197.0</ele><time>2026-04-26T16:44:10.4Z</time></trkpt><trkpt lat="46.128809" lon="13.0658989"><ele>197.0</ele><time>2026-04-26T16:44:11.398Z</time></trkpt><trkpt lat="46.1289126" lon="13.065792"><ele>197.0</ele><time>2026-04-26T16:44:12.4Z</time></trkpt><trkpt lat="46.1290089" lon="13.0656769"><ele>197.0</ele><time>2026-04-26T16:44:13.399Z</time></trkpt><trkpt lat="46.1291014" lon="13.0655565"><ele>197.0</ele><time>2026-04-26T16:44:14.4Z</time></trkpt><trkpt lat="46.1291917" lon="13.0654192"><ele>196.0</ele><time>2026-04-26T16:44:15.398Z</time></trkpt><trkpt lat="46.1292893" lon="13.0652654"><ele>195.0</ele><time>2026-04-26T16:44:16.398Z</time></trkpt><trkpt lat="46.1293898" lon="13.0650908"><ele>194.0</ele><time>2026-04-26T16:44:17.399Z</time></trkpt><trkpt lat="46.129496" lon="13.064898"><ele>197.0</ele><time>2026-04-26T16:44:18.399Z</time></trkpt><trkpt lat="46.129614" lon="13.0647003"><ele>200.0</ele><time>2026-04-26T16:44:19.399Z</time></trkpt><trkpt lat="46.1297414" lon="13.0645032"><ele>203.0</ele><time>2026-04-26T16:44:20.4Z</time></trkpt><trkpt lat="46.1298725" lon="13.0643101"><ele>201.0</ele><time>2026-04-26T16:44:21.399Z</time></trkpt><trkpt lat="46.1299994" lon="13.0641188"><ele>199.0</ele><time>2026-04-26T16:44:22.399Z</time></trkpt><trkpt lat="46.1301184" lon="13.0639298"><ele>197.0</ele><time>2026-04-26T16:44:23.399Z</time></trkpt><trkpt lat="46.1302344" lon="13.0637409"><ele>197.0</ele><time>2026-04-26T16:44:24.399Z</time></trkpt><trkpt lat="46.1303486" lon="13.0635556"><ele>197.0</ele><time>2026-04-26T16:44:25.399Z</time></trkpt><trkpt lat="46.1304619" lon="13.0633774"><ele>197.0</ele><time>2026-04-26T16:44:26.398Z</time></trkpt><trkpt lat="46.1305769" lon="13.0632149"><ele>196.0</ele><time>2026-04-26T16:44:27.399Z</time></trkpt><trkpt lat="46.1307022" lon="13.0630704"><ele>195.0</ele><time>2026-04-26T16:44:28.399Z</time></trkpt><trkpt lat="46.1308507" lon="13.0629643"><ele>194.0</ele><time>2026-04-26T16:44:29.399Z</time></trkpt><trkpt lat="46.131017" lon="13.0628891"><ele>194.0</ele><time>2026-04-26T16:44:30.398Z</time></trkpt><trkpt lat="46.1311905" lon="13.0628231"><ele>194.0</ele><time>2026-04-26T16:44:31.399Z</time></trkpt><trkpt lat="46.1313579" lon="13.0627522"><ele>194.0</ele><time>2026-04-26T16:44:32.399Z</time></trkpt><trkpt lat="46.1315131" lon="13.0626791"><ele>194.0</ele><time>2026-04-26T16:44:33.398Z</time></trkpt><trkpt lat="46.1316573" lon="13.0625869"><ele>194.0</ele><time>2026-04-26T16:44:34.399Z</time></trkpt><trkpt lat="46.1317985" lon="13.0624702"><ele>194.0</ele><time>2026-04-26T16:44:35.399Z</time></trkpt><trkpt lat="46.1319333" lon="13.0623204"><ele>194.33333333333334</ele><time>2026-04-26T16:44:36.399Z</time></trkpt><trkpt lat="46.1320704" lon="13.0621655"><ele>194.66666666666669</ele><time>2026-04-26T16:44:37.4Z</time></trkpt><trkpt lat="46.132208" lon="13.0620038"><ele>195.0</ele><time>2026-04-26T16:44:38.399Z</time></trkpt><trkpt lat="46.1323397" lon="13.0618474"><ele>195.33333333333331</ele><time>2026-04-26T16:44:39.4Z</time></trkpt><trkpt lat="46.1324679" lon="13.0617001"><ele>195.66666666666666</ele><time>2026-04-26T16:44:40.399Z</time></trkpt><trkpt lat="46.1325919" lon="13.0615606"><ele>196.0</ele><time>2026-04-26T16:44:41.4Z</time></trkpt><trkpt lat="46.1327069" lon="13.0614255"><ele>196.5</ele><time>2026-04-26T16:44:42.399Z</time></trkpt><trkpt lat="46.1328162" lon="13.0612953"><ele>197.0</ele><time>2026-04-26T16:44:43.399Z</time></trkpt><trkpt lat="46.1329231" lon="13.061171"><ele>197.5</ele><time>2026-04-26T16:44:44.399Z</time></trkpt><trkpt lat="46.1330293" lon="13.061046"><ele>198.0</ele><time>2026-04-26T16:44:45.399Z</time></trkpt><trkpt lat="46.133138" lon="13.0609172"><ele>199.33333333333331</ele><time>2026-04-26T16:44:46.399Z</time></trkpt><trkpt lat="46.1332516" lon="13.0607808"><ele>200.66666666666666</ele><time>2026-04-26T16:44:47.399Z</time></trkpt><trkpt lat="46.13337" lon="13.0606418"><ele>202.0</ele><time>2026-04-26T16:44:48.4Z</time></trkpt><trkpt lat="46.1334911" lon="13.0605017"><ele>202.0</ele><time>2026-04-26T16:44:49.399Z</time></trkpt><trkpt lat="46.1336186" lon="13.0603549"><ele>202.0</ele><time>2026-04-26T16:44:50.4Z</time></trkpt><trkpt lat="46.1337526" lon="13.0602035"><ele>202.0</ele><time>2026-04-26T16:44:51.398Z</time></trkpt><trkpt lat="46.1338933" lon="13.0600555"><ele>202.66666666666666</ele><time>2026-04-26T16:44:52.4Z</time></trkpt><trkpt lat="46.134042" lon="13.059918"><ele>203.33333333333331</ele><time>2026-04-26T16:44:53.399Z</time></trkpt><trkpt lat="46.1341916" lon="13.0597819"><ele>204.0</ele><time>2026-04-26T16:44:54.399Z</time></trkpt><trkpt lat="46.1343406" lon="13.0596503"><ele>204.0</ele><time>2026-04-26T16:44:55.399Z</time></trkpt><trkpt lat="46.1344889" lon="13.059518"><ele>204.0</ele><time>2026-04-26T16:44:56.399Z</time></trkpt><trkpt lat="46.1346372" lon="13.0593854"><ele>204.0</ele><time>2026-04-26T16:44:57.4Z</time></trkpt><trkpt lat="46.1347871" lon="13.0592543"><ele>203.66666666666669</ele><time>2026-04-26T16:44:58.4Z</time></trkpt><trkpt lat="46.134936" lon="13.059126"><ele>203.33333333333334</ele><time>2026-04-26T16:44:59.399Z</time></trkpt><trkpt lat="46.1350813" lon="13.0590016"><ele>203.0</ele><time>2026-04-26T16:45:00.399Z</time></trkpt><trkpt lat="46.1352228" lon="13.0588759"><ele>203.66666666666669</ele><time>2026-04-26T16:45:01.398Z</time></trkpt><trkpt lat="46.1353616" lon="13.0587531"><ele>204.33333333333331</ele><time>2026-04-26T16:45:02.398Z</time></trkpt><trkpt lat="46.1354996" lon="13.0586293"><ele>205.0</ele><time>2026-04-26T16:45:03.398Z</time></trkpt><trkpt lat="46.1356368" lon="13.058508"><ele>205.66666666666666</ele><time>2026-04-26T16:45:04.399Z</time></trkpt><trkpt lat="46.1357728" lon="13.0583885"><ele>206.33333333333331</ele><time>2026-04-26T16:45:05.4Z</time></trkpt><trkpt lat="46.1359081" lon="13.0582642"><ele>207.0</ele><time>2026-04-26T16:45:06.399Z</time></trkpt><trkpt lat="46.136047" lon="13.0581415"><ele>208.0</ele><time>2026-04-26T16:45:07.399Z</time></trkpt><trkpt lat="46.1361894" lon="13.0580149"><ele>209.0</ele><time>2026-04-26T16:45:08.398Z</time></trkpt><trkpt lat="46.1363306" lon="13.0578884"><ele>210.0</ele><time>2026-04-26T16:45:09.4Z</time></trkpt><trkpt lat="46.1364725" lon="13.0577693"><ele>210.66666666666669</ele><time>2026-04-26T16:45:10.399Z</time></trkpt><trkpt lat="46.1366151" lon="13.0576575"><ele>211.33333333333334</ele><time>2026-04-26T16:45:11.399Z</time></trkpt><trkpt lat="46.1367565" lon="13.0575522"><ele>212.0</ele><time>2026-04-26T16:45:12.399Z</time></trkpt><trkpt lat="46.1368999" lon="13.0574448"><ele>212.0</ele><time>2026-04-26T16:45:13.398Z</time></trkpt><trkpt lat="46.1370437" lon="13.0573365"><ele>212.0</ele><time>2026-04-26T16:45:14.4Z</time></trkpt><trkpt lat="46.1371866" lon="13.0572302"><ele>212.0</ele><time>2026-04-26T16:45:15.4Z</time></trkpt><trkpt lat="46.1373275" lon="13.0571249"><ele>212.66666666666669</ele><time>2026-04-26T16:45:16.399Z</time></trkpt><trkpt lat="46.1374679" lon="13.0570185"><ele>213.33333333333331</ele><time>2026-04-26T16:45:17.4Z</time></trkpt><trkpt lat="46.1376076" lon="13.0569137"><ele>214.0</ele><time>2026-04-26T16:45:18.399Z</time></trkpt><trkpt lat="46.1377403" lon="13.0568112"><ele>214.0</ele><time>2026-04-26T16:45:19.4Z</time></trkpt><trkpt lat="46.1378649" lon="13.0567061"><ele>214.0</ele><time>2026-04-26T16:45:20.399Z</time></trkpt><trkpt lat="46.1379822" lon="13.0565876"><ele>214.0</ele><time>2026-04-26T16:45:21.4Z</time></trkpt><trkpt lat="46.1380885" lon="13.0564491"><ele>214.0</ele><time>2026-04-26T16:45:22.398Z</time></trkpt><trkpt lat="46.1381937" lon="13.0562898"><ele>212.66666666666666</ele><time>2026-04-26T16:45:23.399Z</time></trkpt><trkpt lat="46.1382951" lon="13.0561262"><ele>211.33333333333331</ele><time>2026-04-26T16:45:24.399Z</time></trkpt><trkpt lat="46.1383905" lon="13.055957"><ele>210.0</ele><time>2026-04-26T16:45:25.4Z</time></trkpt><trkpt lat="46.1384874" lon="13.0557875"><ele>209.0</ele><time>2026-04-26T16:45:26.398Z</time></trkpt><trkpt lat="46.1385883" lon="13.0556188"><ele>208.0</ele><time>2026-04-26T16:45:27.399Z</time></trkpt><trkpt lat="46.1386859" lon="13.0554479"><ele>207.0</ele><time>2026-04-26T16:45:28.4Z</time></trkpt><trkpt lat="46.138786" lon="13.0552736"><ele>207.0</ele><time>2026-04-26T16:45:29.398Z</time></trkpt><trkpt lat="46.1388893" lon="13.0550984"><ele>207.0</ele><time>2026-04-26T16:45:30.399Z</time></trkpt><trkpt lat="46.1389979" lon="13.0549185"><ele>207.0</ele><time>2026-04-26T16:45:31.4Z</time></trkpt><trkpt lat="46.1391144" lon="13.0547389"><ele>207.33333333333331</ele><time>2026-04-26T16:45:32.399Z</time></trkpt><trkpt lat="46.1392374" lon="13.0545648"><ele>207.66666666666666</ele><time>2026-04-26T16:45:33.4Z</time></trkpt><trkpt lat="46.1393642" lon="13.0543915"><ele>208.0</ele><time>2026-04-26T16:45:34.399Z</time></trkpt><trkpt lat="46.1394921" lon="13.0542178"><ele>207.0</ele><time>2026-04-26T16:45:35.4Z</time></trkpt><trkpt lat="46.1396188" lon="13.0540454"><ele>206.0</ele><time>2026-04-26T16:45:36.399Z</time></trkpt><trkpt lat="46.1397441" lon="13.0538731"><ele>205.0</ele><time>2026-04-26T16:45:37.399Z</time></trkpt><trkpt lat="46.1398694" lon="13.0536986"><ele>205.0</ele><time>2026-04-26T16:45:38.399Z</time></trkpt><trkpt lat="46.1399935" lon="13.0535329"><ele>205.0</ele><time>2026-04-26T16:45:39.4Z</time></trkpt><trkpt lat="46.1401157" lon="13.0533703"><ele>205.0</ele><time>2026-04-26T16:45:40.399Z</time></trkpt><trkpt lat="46.1402357" lon="13.0532066"><ele>204.0</ele><time>2026-04-26T16:45:41.399Z</time></trkpt><trkpt lat="46.1403552" lon="13.0530475"><ele>203.0</ele><time>2026-04-26T16:45:42.399Z</time></trkpt><trkpt lat="46.1404714" lon="13.0528903"><ele>202.0</ele><time>2026-04-26T16:45:43.399Z</time></trkpt><trkpt lat="46.1405854" lon="13.0527333"><ele>202.0</ele><time>2026-04-26T16:45:44.399Z</time></trkpt><trkpt lat="46.1406977" lon="13.0525734"><ele>202.0</ele><time>2026-04-26T16:45:45.399Z</time></trkpt><trkpt lat="46.1408129" lon="13.0524195"><ele>202.0</ele><time>2026-04-26T16:45:46.399Z</time></trkpt><trkpt lat="46.1409353" lon="13.0522707"><ele>203.66666666666666</ele><time>2026-04-26T16:45:47.4Z</time></trkpt><trkpt lat="46.1410721" lon="13.0521346"><ele>205.33333333333331</ele><time>2026-04-26T16:45:48.399Z</time></trkpt><trkpt lat="46.141222" lon="13.0520127"><ele>207.0</ele><time>2026-04-26T16:45:49.399Z</time></trkpt><trkpt lat="46.1413785" lon="13.0518983"><ele>207.0</ele><time>2026-04-26T16:45:50.399Z</time></trkpt><trkpt lat="46.141534" lon="13.0517907"><ele>207.0</ele><time>2026-04-26T16:45:51.399Z</time></trkpt><trkpt lat="46.1416863" lon="13.0516794"><ele>207.0</ele><time>2026-04-26T16:45:52.399Z</time></trkpt><trkpt lat="46.1418422" lon="13.0515669"><ele>206.0</ele><time>2026-04-26T16:45:53.4Z</time></trkpt><trkpt lat="46.1420012" lon="13.0514528"><ele>205.0</ele><time>2026-04-26T16:45:54.399Z</time></trkpt><trkpt lat="46.1421623" lon="13.051337"><ele>204.0</ele><time>2026-04-26T16:45:55.398Z</time></trkpt><trkpt lat="46.1423207" lon="13.0512206"><ele>203.33333333333331</ele><time>2026-04-26T16:45:56.399Z</time></trkpt><trkpt lat="46.1424784" lon="13.0511078"><ele>202.66666666666666</ele><time>2026-04-26T16:45:57.4Z</time></trkpt><trkpt lat="46.1426292" lon="13.0510006"><ele>202.0</ele><time>2026-04-26T16:45:58.399Z</time></trkpt><trkpt lat="46.1427749" lon="13.0509001"><ele>202.0</ele><time>2026-04-26T16:45:59.399Z</time></trkpt><trkpt lat="46.142912" lon="13.0507999"><ele>202.0</ele><time>2026-04-26T16:46:00.4Z</time></trkpt><trkpt lat="46.1430513" lon="13.0507103"><ele>202.0</ele><time>2026-04-26T16:46:01.399Z</time></trkpt><trkpt lat="46.1431991" lon="13.0506383"><ele>201.33333333333331</ele><time>2026-04-26T16:46:02.398Z</time></trkpt><trkpt lat="46.1433549" lon="13.0505847"><ele>200.66666666666669</ele><time>2026-04-26T16:46:03.399Z</time></trkpt><trkpt lat="46.1435127" lon="13.0505371"><ele>200.0</ele><time>2026-04-26T16:46:04.4Z</time></trkpt><trkpt lat="46.1436731" lon="13.0504934"><ele>200.0</ele><time>2026-04-26T16:46:05.399Z</time></trkpt><trkpt lat="46.1438354" lon="13.0504414"><ele>200.0</ele><time>2026-04-26T16:46:06.399Z</time></trkpt><trkpt lat="46.1439989" lon="13.0503739"><ele>200.0</ele><time>2026-04-26T16:46:07.399Z</time></trkpt><trkpt lat="46.1441566" lon="13.0502846"><ele>199.66666666666669</ele><time>2026-04-26T16:46:08.399Z</time></trkpt><trkpt lat="46.1443085" lon="13.0501784"><ele>199.33333333333331</ele><time>2026-04-26T16:46:09.4Z</time></trkpt><trkpt lat="46.1444527" lon="13.0500591"><ele>199.0</ele><time>2026-04-26T16:46:10.398Z</time></trkpt><trkpt lat="46.1445888" lon="13.0499241"><ele>199.0</ele><time>2026-04-26T16:46:11.398Z</time></trkpt><trkpt lat="46.1447204" lon="13.0497744"><ele>199.0</ele><time>2026-04-26T16:46:12.4Z</time></trkpt><trkpt lat="46.1448466" lon="13.0496101"><ele>199.0</ele><time>2026-04-26T16:46:13.399Z</time></trkpt><trkpt lat="46.1449675" lon="13.0494354"><ele>198.33333333333331</ele><time>2026-04-26T16:46:14.399Z</time></trkpt><trkpt lat="46.1450905" lon="13.0492606"><ele>197.66666666666669</ele><time>2026-04-26T16:46:15.399Z</time></trkpt><trkpt lat="46.1452112" lon="13.0490906"><ele>197.0</ele><time>2026-04-26T16:46:16.398Z</time></trkpt><trkpt lat="46.1453293" lon="13.0489231"><ele>197.0</ele><time>2026-04-26T16:46:17.399Z</time></trkpt><trkpt lat="46.145448" lon="13.0487542"><ele>197.0</ele><time>2026-04-26T16:46:18.399Z</time></trkpt><trkpt lat="46.1455695" lon="13.0485851"><ele>197.0</ele><time>2026-04-26T16:46:19.399Z</time></trkpt><trkpt lat="46.1456904" lon="13.0484138"><ele>196.66666666666669</ele><time>2026-04-26T16:46:20.4Z</time></trkpt><trkpt lat="46.1458099" lon="13.0482422"><ele>196.33333333333331</ele><time>2026-04-26T16:46:21.399Z</time></trkpt><trkpt lat="46.1459284" lon="13.0480716"><ele>196.0</ele><time>2026-04-26T16:46:22.399Z</time></trkpt><trkpt lat="46.1460471" lon="13.0479037"><ele>196.0</ele><time>2026-04-26T16:46:23.398Z</time></trkpt><trkpt lat="46.1461652" lon="13.0477348"><ele>196.0</ele><time>2026-04-26T16:46:24.399Z</time></trkpt><trkpt lat="46.1462842" lon="13.0475643"><ele>196.0</ele><time>2026-04-26T16:46:25.4Z</time></trkpt><trkpt lat="46.1464054" lon="13.0473855"><ele>195.66666666666666</ele><time>2026-04-26T16:46:26.399Z</time></trkpt><trkpt lat="46.1465273" lon="13.0472119"><ele>195.33333333333331</ele><time>2026-04-26T16:46:27.399Z</time></trkpt><trkpt lat="46.1466588" lon="13.047044"><ele>195.0</ele><time>2026-04-26T16:46:28.399Z</time></trkpt><trkpt lat="46.1468031" lon="13.046886"><ele>194.66666666666669</ele><time>2026-04-26T16:46:29.399Z</time></trkpt><trkpt lat="46.1469529" lon="13.0467379"><ele>194.33333333333334</ele><time>2026-04-26T16:46:30.4Z</time></trkpt><trkpt lat="46.147104" lon="13.0465956"><ele>194.0</ele><time>2026-04-26T16:46:31.4Z</time></trkpt><trkpt lat="46.1472564" lon="13.0464521"><ele>193.66666666666669</ele><time>2026-04-26T16:46:32.399Z</time></trkpt><trkpt lat="46.1474052" lon="13.0463015"><ele>193.33333333333331</ele><time>2026-04-26T16:46:33.398Z</time></trkpt><trkpt lat="46.147551" lon="13.0461395"><ele>193.0</ele><time>2026-04-26T16:46:34.399Z</time></trkpt><trkpt lat="46.1476872" lon="13.0459691"><ele>193.33333333333331</ele><time>2026-04-26T16:46:35.399Z</time></trkpt><trkpt lat="46.1478211" lon="13.0457926"><ele>193.66666666666669</ele><time>2026-04-26T16:46:36.4Z</time></trkpt><trkpt lat="46.1479531" lon="13.0456166"><ele>194.0</ele><time>2026-04-26T16:46:37.399Z</time></trkpt><trkpt lat="46.1480869" lon="13.0454364"><ele>193.66666666666669</ele><time>2026-04-26T16:46:38.4Z</time></trkpt><trkpt lat="46.1482243" lon="13.0452506"><ele>193.33333333333331</ele><time>2026-04-26T16:46:39.399Z</time></trkpt><trkpt lat="46.1483615" lon="13.0450624"><ele>193.0</ele><time>2026-04-26T16:46:40.399Z</time></trkpt><trkpt lat="46.1485005" lon="13.0448755"><ele>192.66666666666666</ele><time>2026-04-26T16:46:41.4Z</time></trkpt><trkpt lat="46.1486371" lon="13.0446946"><ele>192.33333333333331</ele><time>2026-04-26T16:46:42.399Z</time></trkpt><trkpt lat="46.148773" lon="13.0445139"><ele>192.0</ele><time>2026-04-26T16:46:43.399Z</time></trkpt><trkpt lat="46.1489088" lon="13.0443331"><ele>192.0</ele><time>2026-04-26T16:46:44.398Z</time></trkpt><trkpt lat="46.1490421" lon="13.0441511"><ele>192.0</ele><time>2026-04-26T16:46:45.398Z</time></trkpt><trkpt lat="46.1491713" lon="13.0439736"><ele>192.0</ele><time>2026-04-26T16:46:46.399Z</time></trkpt><trkpt lat="46.1492981" lon="13.0437991"><ele>191.33333333333334</ele><time>2026-04-26T16:46:47.4Z</time></trkpt><trkpt lat="46.1494247" lon="13.0436284"><ele>190.66666666666669</ele><time>2026-04-26T16:46:48.4Z</time></trkpt><trkpt lat="46.1495526" lon="13.043461"><ele>190.0</ele><time>2026-04-26T16:46:49.398Z</time></trkpt><trkpt lat="46.1496839" lon="13.043299"><ele>189.66666666666669</ele><time>2026-04-26T16:46:50.399Z</time></trkpt><trkpt lat="46.1498197" lon="13.0431482"><ele>189.33333333333334</ele><time>2026-04-26T16:46:51.399Z</time></trkpt><trkpt lat="46.149961" lon="13.043004"><ele>189.0</ele><time>2026-04-26T16:46:52.399Z</time></trkpt><trkpt lat="46.1501027" lon="13.0428642"><ele>189.0</ele><time>2026-04-26T16:46:53.399Z</time></trkpt><trkpt lat="46.1502473" lon="13.0427346"><ele>189.0</ele><time>2026-04-26T16:46:54.399Z</time></trkpt><trkpt lat="46.1503968" lon="13.0426124"><ele>189.0</ele><time>2026-04-26T16:46:55.399Z</time></trkpt><trkpt lat="46.1505518" lon="13.0424974"><ele>188.66666666666666</ele><time>2026-04-26T16:46:56.4Z</time></trkpt><trkpt lat="46.1507069" lon="13.0423928"><ele>188.33333333333331</ele><time>2026-04-26T16:46:57.4Z</time></trkpt><trkpt lat="46.1508621" lon="13.0422918"><ele>188.0</ele><time>2026-04-26T16:46:58.399Z</time></trkpt><trkpt lat="46.1510143" lon="13.0421965"><ele>188.0</ele><time>2026-04-26T16:46:59.4Z</time></trkpt><trkpt lat="46.1511617" lon="13.0421042"><ele>188.0</ele><time>2026-04-26T16:47:00.399Z</time></trkpt><trkpt lat="46.1513109" lon="13.0420174"><ele>188.0</ele><time>2026-04-26T16:47:01.399Z</time></trkpt><trkpt lat="46.151461" lon="13.041941"><ele>187.33333333333331</ele><time>2026-04-26T16:47:02.398Z</time></trkpt><trkpt lat="46.1516137" lon="13.0418803"><ele>186.66666666666666</ele><time>2026-04-26T16:47:03.399Z</time></trkpt><trkpt lat="46.1517711" lon="13.0418375"><ele>186.0</ele><time>2026-04-26T16:47:04.4Z</time></trkpt><trkpt lat="46.1519259" lon="13.041808"><ele>186.0</ele><time>2026-04-26T16:47:05.398Z</time></trkpt><trkpt lat="46.1520747" lon="13.0417889"><ele>186.0</ele><time>2026-04-26T16:47:06.399Z</time></trkpt><trkpt lat="46.1522124" lon="13.0417729"><ele>186.0</ele><time>2026-04-26T16:47:07.399Z</time></trkpt><trkpt lat="46.1523398" lon="13.0417519"><ele>186.0</ele><time>2026-04-26T16:47:08.399Z</time></trkpt><trkpt lat="46.1524566" lon="13.0417181"><ele>186.25</ele><time>2026-04-26T16:47:09.4Z</time></trkpt><trkpt lat="46.1525635" lon="13.0416667"><ele>186.5</ele><time>2026-04-26T16:47:10.4Z</time></trkpt><trkpt lat="46.1526648" lon="13.0415963"><ele>186.75</ele><time>2026-04-26T16:47:11.399Z</time></trkpt><trkpt lat="46.1527608" lon="13.0415048"><ele>187.0</ele><time>2026-04-26T16:47:12.4Z</time></trkpt><trkpt lat="46.1528516" lon="13.0413903"><ele>186.0</ele><time>2026-04-26T16:47:13.4Z</time></trkpt><trkpt lat="46.1529329" lon="13.0412496"><ele>185.0</ele><time>2026-04-26T16:47:14.399Z</time></trkpt><trkpt lat="46.1530024" lon="13.0410891"><ele>184.0</ele><time>2026-04-26T16:47:15.399Z</time></trkpt><trkpt lat="46.1530563" lon="13.04091"><ele>183.0</ele><time>2026-04-26T16:47:16.399Z</time></trkpt><trkpt lat="46.1530875" lon="13.040719"><ele>180.75</ele><time>2026-04-26T16:47:17.398Z</time></trkpt><trkpt lat="46.1530968" lon="13.040524"><ele>178.5</ele><time>2026-04-26T16:47:18.399Z</time></trkpt><trkpt lat="46.1530835" lon="13.0403314"><ele>176.25</ele><time>2026-04-26T16:47:19.4Z</time></trkpt><trkpt lat="46.1530523" lon="13.0401421"><ele>174.0</ele><time>2026-04-26T16:47:20.399Z</time></trkpt><trkpt lat="46.1530069" lon="13.0399544"><ele>172.75</ele><time>2026-04-26T16:47:21.399Z</time></trkpt><trkpt lat="46.1529522" lon="13.0397635"><ele>171.5</ele><time>2026-04-26T16:47:22.399Z</time></trkpt><trkpt lat="46.1528939" lon="13.0395681"><ele>170.25</ele><time>2026-04-26T16:47:23.399Z</time></trkpt><trkpt lat="46.1528446" lon="13.0393721"><ele>169.0</ele><time>2026-04-26T16:47:24.399Z</time></trkpt><trkpt lat="46.1528074" lon="13.0391667"><ele>168.66666666666669</ele><time>2026-04-26T16:47:25.399Z</time></trkpt><trkpt lat="46.1527864" lon="13.0389435"><ele>168.33333333333334</ele><time>2026-04-26T16:47:26.399Z</time></trkpt><trkpt lat="46.1527805" lon="13.0387072"><ele>168.0</ele><time>2026-04-26T16:47:27.399Z</time></trkpt><trkpt lat="46.1527883" lon="13.0384593"><ele>166.66666666666666</ele><time>2026-04-26T16:47:28.399Z</time></trkpt><trkpt lat="46.1528046" lon="13.0382011"><ele>165.33333333333331</ele><time>2026-04-26T16:47:29.398Z</time></trkpt><trkpt lat="46.1528264" lon="13.0379242"><ele>164.0</ele><time>2026-04-26T16:47:30.399Z</time></trkpt><trkpt lat="46.15285" lon="13.0376488"><ele>163.0</ele><time>2026-04-26T16:47:31.399Z</time></trkpt><trkpt lat="46.1528735" lon="13.0373748"><ele>162.0</ele><time>2026-04-26T16:47:32.398Z</time></trkpt><trkpt lat="46.1528991" lon="13.0370964"><ele>161.0</ele><time>2026-04-26T16:47:33.4Z</time></trkpt><trkpt lat="46.1529264" lon="13.0368071"><ele>159.66666666666666</ele><time>2026-04-26T16:47:34.399Z</time></trkpt><trkpt lat="46.1529499" lon="13.0365162"><ele>158.33333333333334</ele><time>2026-04-26T16:47:35.399Z</time></trkpt><trkpt lat="46.1529716" lon="13.0362287"><ele>157.0</ele><time>2026-04-26T16:47:36.398Z</time></trkpt><trkpt lat="46.1529938" lon="13.0359536"><ele>156.33333333333334</ele><time>2026-04-26T16:47:37.4Z</time></trkpt><trkpt lat="46.1530167" lon="13.0356869"><ele>155.66666666666666</ele><time>2026-04-26T16:47:38.399Z</time></trkpt><trkpt lat="46.153036" lon="13.0354318"><ele>155.0</ele><time>2026-04-26T16:47:39.4Z</time></trkpt><trkpt lat="46.1530515" lon="13.0351873"><ele>155.33333333333331</ele><time>2026-04-26T16:47:40.399Z</time></trkpt><trkpt lat="46.1530614" lon="13.0349547"><ele>155.66666666666666</ele><time>2026-04-26T16:47:41.399Z</time></trkpt><trkpt lat="46.1530671" lon="13.0347278"><ele>156.0</ele><time>2026-04-26T16:47:42.4Z</time></trkpt><trkpt lat="46.153074" lon="13.034506"><ele>156.0</ele><time>2026-04-26T16:47:43.398Z</time></trkpt><trkpt lat="46.1530803" lon="13.0342905"><ele>156.0</ele><time>2026-04-26T16:47:44.399Z</time></trkpt><trkpt lat="46.153087" lon="13.0340854"><ele>156.0</ele><time>2026-04-26T16:47:45.4Z</time></trkpt><trkpt lat="46.1530962" lon="13.0338753"><ele>156.0</ele><time>2026-04-26T16:47:46.399Z</time></trkpt><trkpt lat="46.153101" lon="13.033658"><ele>157.33333333333334</ele><time>2026-04-26T16:47:47.398Z</time></trkpt><trkpt lat="46.1530927" lon="13.0334341"><ele>158.66666666666669</ele><time>2026-04-26T16:47:48.4Z</time></trkpt><trkpt lat="46.1530688" lon="13.0332062"><ele>160.0</ele><time>2026-04-26T16:47:49.398Z</time></trkpt><trkpt lat="46.1530326" lon="13.0329865"><ele>160.75</ele><time>2026-04-26T16:47:50.399Z</time></trkpt><trkpt lat="46.1529887" lon="13.0327869"><ele>161.5</ele><time>2026-04-26T16:47:51.399Z</time></trkpt><trkpt lat="46.1529423" lon="13.0325871"><ele>162.25</ele><time>2026-04-26T16:47:52.398Z</time></trkpt><trkpt lat="46.1528893" lon="13.0323786"><ele>163.0</ele><time>2026-04-26T16:47:53.399Z</time></trkpt><trkpt lat="46.152839" lon="13.0321655"><ele>163.66666666666669</ele><time>2026-04-26T16:47:54.399Z</time></trkpt><trkpt lat="46.1527913" lon="13.031953"><ele>164.33333333333334</ele><time>2026-04-26T16:47:55.4Z</time></trkpt><trkpt lat="46.1527499" lon="13.0317403"><ele>165.0</ele><time>2026-04-26T16:47:56.399Z</time></trkpt><trkpt lat="46.1527233" lon="13.0315256"><ele>165.33333333333334</ele><time>2026-04-26T16:47:57.399Z</time></trkpt><trkpt lat="46.1527101" lon="13.0313091"><ele>165.66666666666669</ele><time>2026-04-26T16:47:58.399Z</time></trkpt><trkpt lat="46.1527106" lon="13.0310909"><ele>166.0</ele><time>2026-04-26T16:47:59.4Z</time></trkpt><trkpt lat="46.1527228" lon="13.0308711"><ele>166.0</ele><time>2026-04-26T16:48:00.4Z</time></trkpt><trkpt lat="46.1527454" lon="13.0306495"><ele>166.0</ele><time>2026-04-26T16:48:01.399Z</time></trkpt><trkpt lat="46.1527787" lon="13.0304301"><ele>166.0</ele><time>2026-04-26T16:48:02.4Z</time></trkpt><trkpt lat="46.1528169" lon="13.0302143"><ele>166.0</ele><time>2026-04-26T16:48:03.399Z</time></trkpt><trkpt lat="46.1528541" lon="13.0299963"><ele>166.0</ele><time>2026-04-26T16:48:04.399Z</time></trkpt><trkpt lat="46.1528927" lon="13.0297754"><ele>166.0</ele><time>2026-04-26T16:48:05.399Z</time></trkpt><trkpt lat="46.1529349" lon="13.0295508"><ele>166.0</ele><time>2026-04-26T16:48:06.4Z</time></trkpt><trkpt lat="46.1529832" lon="13.0293224"><ele>166.0</ele><time>2026-04-26T16:48:07.398Z</time></trkpt><trkpt lat="46.1530407" lon="13.0290995"><ele>166.0</ele><time>2026-04-26T16:48:08.399Z</time></trkpt><trkpt lat="46.1531087" lon="13.0288807"><ele>166.33333333333334</ele><time>2026-04-26T16:48:09.399Z</time></trkpt><trkpt lat="46.15319" lon="13.028661"><ele>166.66666666666666</ele><time>2026-04-26T16:48:10.399Z</time></trkpt><trkpt lat="46.1532823" lon="13.0284423"><ele>167.0</ele><time>2026-04-26T16:48:11.4Z</time></trkpt><trkpt lat="46.1533787" lon="13.0282198"><ele>167.0</ele><time>2026-04-26T16:48:12.399Z</time></trkpt><trkpt lat="46.153478" lon="13.0280012"><ele>167.0</ele><time>2026-04-26T16:48:13.399Z</time></trkpt><trkpt lat="46.1535773" lon="13.0277813"><ele>167.0</ele><time>2026-04-26T16:48:14.4Z</time></trkpt><trkpt lat="46.153674" lon="13.027563"><ele>168.0</ele><time>2026-04-26T16:48:15.398Z</time></trkpt><trkpt lat="46.153769" lon="13.027344"><ele>169.0</ele><time>2026-04-26T16:48:16.4Z</time></trkpt><trkpt lat="46.1538566" lon="13.0271166"><ele>170.0</ele><time>2026-04-26T16:48:17.399Z</time></trkpt><trkpt lat="46.1539371" lon="13.0268784"><ele>171.0</ele><time>2026-04-26T16:48:18.399Z</time></trkpt><trkpt lat="46.1540109" lon="13.0266254"><ele>172.0</ele><time>2026-04-26T16:48:19.399Z</time></trkpt><trkpt lat="46.1540798" lon="13.0263644"><ele>173.0</ele><time>2026-04-26T16:48:20.4Z</time></trkpt><trkpt lat="46.1541432" lon="13.0261164"><ele>173.33333333333331</ele><time>2026-04-26T16:48:21.399Z</time></trkpt><trkpt lat="46.1542113" lon="13.0258806"><ele>173.66666666666666</ele><time>2026-04-26T16:48:22.399Z</time></trkpt><trkpt lat="46.1542863" lon="13.0256474"><ele>174.0</ele><time>2026-04-26T16:48:23.399Z</time></trkpt><trkpt lat="46.1543722" lon="13.0254158"><ele>174.66666666666666</ele><time>2026-04-26T16:48:24.399Z</time></trkpt><trkpt lat="46.1544642" lon="13.02518"><ele>175.33333333333331</ele><time>2026-04-26T16:48:25.399Z</time></trkpt><trkpt lat="46.1545573" lon="13.0249406"><ele>176.0</ele><time>2026-04-26T16:48:26.399Z</time></trkpt><trkpt lat="46.1546528" lon="13.0247021"><ele>176.0</ele><time>2026-04-26T16:48:27.4Z</time></trkpt><trkpt lat="46.1547442" lon="13.0244705"><ele>176.0</ele><time>2026-04-26T16:48:28.398Z</time></trkpt><trkpt lat="46.1548316" lon="13.0242521"><ele>176.0</ele><time>2026-04-26T16:48:29.399Z</time></trkpt><trkpt lat="46.1549159" lon="13.0240403"><ele>176.33333333333331</ele><time>2026-04-26T16:48:30.399Z</time></trkpt><trkpt lat="46.1549951" lon="13.0238349"><ele>176.66666666666666</ele><time>2026-04-26T16:48:31.4Z</time></trkpt><trkpt lat="46.1550739" lon="13.0236373"><ele>177.0</ele><time>2026-04-26T16:48:32.398Z</time></trkpt><trkpt lat="46.1551551" lon="13.0234364"><ele>178.0</ele><time>2026-04-26T16:48:33.399Z</time></trkpt><trkpt lat="46.1552426" lon="13.0232328"><ele>179.0</ele><time>2026-04-26T16:48:34.398Z</time></trkpt><trkpt lat="46.1553357" lon="13.02303"><ele>180.0</ele><time>2026-04-26T16:48:35.399Z</time></trkpt><trkpt lat="46.1554315" lon="13.0228306"><ele>180.0</ele><time>2026-04-26T16:48:36.399Z</time></trkpt><trkpt lat="46.1555293" lon="13.0226332"><ele>180.0</ele><time>2026-04-26T16:48:37.398Z</time></trkpt><trkpt lat="46.1556245" lon="13.0224379"><ele>180.0</ele><time>2026-04-26T16:48:38.4Z</time></trkpt><trkpt lat="46.1557184" lon="13.0222471"><ele>179.5</ele><time>2026-04-26T16:48:39.399Z</time></trkpt><trkpt lat="46.155809" lon="13.0220624"><ele>179.0</ele><time>2026-04-26T16:48:40.399Z</time></trkpt><trkpt lat="46.1558929" lon="13.0218889"><ele>178.5</ele><time>2026-04-26T16:48:41.398Z</time></trkpt><trkpt lat="46.1559728" lon="13.021725"><ele>178.0</ele><time>2026-04-26T16:48:42.399Z</time></trkpt><trkpt lat="46.156048" lon="13.0215719"><ele>179.25</ele><time>2026-04-26T16:48:43.399Z</time></trkpt><trkpt lat="46.1561238" lon="13.0214344"><ele>180.5</ele><time>2026-04-26T16:48:44.4Z</time></trkpt><trkpt lat="46.1562059" lon="13.0213027"><ele>181.75</ele><time>2026-04-26T16:48:45.399Z</time></trkpt><trkpt lat="46.1562939" lon="13.0211763"><ele>183.0</ele><time>2026-04-26T16:48:46.399Z</time></trkpt><trkpt lat="46.1563899" lon="13.0210679"><ele>183.0</ele><time>2026-04-26T16:48:47.399Z</time></trkpt><trkpt lat="46.1564903" lon="13.0209583"><ele>183.0</ele><time>2026-04-26T16:48:48.4Z</time></trkpt><trkpt lat="46.1565975" lon="13.0208552"><ele>183.0</ele><time>2026-04-26T16:48:49.398Z</time></trkpt><trkpt lat="46.156699" lon="13.0207469"><ele>183.0</ele><time>2026-04-26T16:48:50.399Z</time></trkpt><trkpt lat="46.1567977" lon="13.0206232"><ele>179.5</ele><time>2026-04-26T16:48:51.399Z</time></trkpt><trkpt lat="46.1568829" lon="13.0204827"><ele>176.0</ele><time>2026-04-26T16:48:52.398Z</time></trkpt><trkpt lat="46.1569543" lon="13.0203405"><ele>172.5</ele><time>2026-04-26T16:48:53.4Z</time></trkpt><trkpt lat="46.1570147" lon="13.0201891"><ele>169.0</ele><time>2026-04-26T16:48:54.399Z</time></trkpt><trkpt lat="46.1570637" lon="13.0200362"><ele>167.75</ele><time>2026-04-26T16:48:55.399Z</time></trkpt><trkpt lat="46.1571059" lon="13.0198719"><ele>166.5</ele><time>2026-04-26T16:48:56.399Z</time></trkpt><trkpt lat="46.157138" lon="13.0196913"><ele>165.25</ele><time>2026-04-26T16:48:57.399Z</time></trkpt><trkpt lat="46.1571672" lon="13.0195071"><ele>164.0</ele><time>2026-04-26T16:48:58.399Z</time></trkpt><trkpt lat="46.1571919" lon="13.019329"><ele>164.0</ele><time>2026-04-26T16:48:59.399Z</time></trkpt><trkpt lat="46.1572067" lon="13.0191699"><ele>164.0</ele><time>2026-04-26T16:49:00.4Z</time></trkpt><trkpt lat="46.1572134" lon="13.0190339"><ele>164.0</ele><time>2026-04-26T16:49:01.399Z</time></trkpt><trkpt lat="46.1572122" lon="13.018916"><ele>164.0</ele><time>2026-04-26T16:49:02.4Z</time></trkpt><trkpt lat="46.1572083" lon="13.0188098"><ele>164.0</ele><time>2026-04-26T16:49:03.398Z</time></trkpt><trkpt lat="46.1572051" lon="13.0186506"><ele>164.66666666666666</ele><time>2026-04-26T16:49:05.399Z</time></trkpt><trkpt lat="46.1572006" lon="13.0185402"><ele>165.33333333333331</ele><time>2026-04-26T16:49:07.399Z</time></trkpt><trkpt lat="46.1571846" lon="13.0184096"><ele>166.0</ele><time>2026-04-26T16:49:09.399Z</time></trkpt><trkpt lat="46.1571577" lon="13.0183186"><ele>166.66666666666666</ele><time>2026-04-26T16:49:10.4Z</time></trkpt><trkpt lat="46.1571182" lon="13.0182118"><ele>167.33333333333334</ele><time>2026-04-26T16:49:11.399Z</time></trkpt><trkpt lat="46.1570687" lon="13.0181023"><ele>168.0</ele><time>2026-04-26T16:49:12.399Z</time></trkpt><trkpt lat="46.1570029" lon="13.0180042"><ele>169.4</ele><time>2026-04-26T16:49:13.399Z</time></trkpt><trkpt lat="46.1569259" lon="13.0179122"><ele>170.8</ele><time>2026-04-26T16:49:14.398Z</time></trkpt><trkpt lat="46.1568466" lon="13.0178175"><ele>172.2</ele><time>2026-04-26T16:49:15.398Z</time></trkpt><trkpt lat="46.1567606" lon="13.0177235"><ele>173.6</ele><time>2026-04-26T16:49:16.399Z</time></trkpt><trkpt lat="46.1566718" lon="13.0176309"><ele>175.0</ele><time>2026-04-26T16:49:17.399Z</time></trkpt><trkpt lat="46.1565894" lon="13.0175394"><ele>176.8</ele><time>2026-04-26T16:49:18.399Z</time></trkpt><trkpt lat="46.1565091" lon="13.0174413"><ele>178.6</ele><time>2026-04-26T16:49:19.399Z</time></trkpt><trkpt lat="46.1564422" lon="13.0173282"><ele>180.39999999999998</ele><time>2026-04-26T16:49:20.399Z</time></trkpt><trkpt lat="46.1563852" lon="13.0171969"><ele>182.2</ele><time>2026-04-26T16:49:21.398Z</time></trkpt><trkpt lat="46.1563405" lon="13.0170432"><ele>184.0</ele><time>2026-04-26T16:49:22.398Z</time></trkpt><trkpt lat="46.1563094" lon="13.0168719"><ele>184.0</ele><time>2026-04-26T16:49:23.398Z</time></trkpt><trkpt lat="46.1562901" lon="13.0166995"><ele>184.0</ele><time>2026-04-26T16:49:24.398Z</time></trkpt><trkpt lat="46.1562736" lon="13.0165244"><ele>184.0</ele><time>2026-04-26T16:49:25.399Z</time></trkpt><trkpt lat="46.1562548" lon="13.0163505"><ele>184.0</ele><time>2026-04-26T16:49:26.398Z</time></trkpt><trkpt lat="46.156233" lon="13.016182"><ele>185.39999999999998</ele><time>2026-04-26T16:49:27.4Z</time></trkpt><trkpt lat="46.1562116" lon="13.0160194"><ele>186.8</ele><time>2026-04-26T16:49:28.399Z</time></trkpt><trkpt lat="46.156186" lon="13.0158633"><ele>188.2</ele><time>2026-04-26T16:49:29.399Z</time></trkpt><trkpt lat="46.1561604" lon="13.0157069"><ele>189.60000000000002</ele><time>2026-04-26T16:49:30.399Z</time></trkpt><trkpt lat="46.156134" lon="13.0155596"><ele>191.0</ele><time>2026-04-26T16:49:31.398Z</time></trkpt><trkpt lat="46.1561098" lon="13.0154241"><ele>191.0</ele><time>2026-04-26T16:49:32.399Z</time></trkpt><trkpt lat="46.1560924" lon="13.0152901"><ele>191.0</ele><time>2026-04-26T16:49:33.398Z</time></trkpt><trkpt lat="46.1560838" lon="13.0151535"><ele>191.0</ele><time>2026-04-26T16:49:34.4Z</time></trkpt><trkpt lat="46.1560847" lon="13.0150079"><ele>191.0</ele><time>2026-04-26T16:49:35.399Z</time></trkpt><trkpt lat="46.156086" lon="13.0148576"><ele>191.0</ele><time>2026-04-26T16:49:36.399Z</time></trkpt><trkpt lat="46.1560918" lon="13.0147144"><ele>190.5</ele><time>2026-04-26T16:49:37.4Z</time></trkpt><trkpt lat="46.1560975" lon="13.0145666"><ele>190.0</ele><time>2026-04-26T16:49:38.399Z</time></trkpt><trkpt lat="46.1561028" lon="13.0144308"><ele>189.5</ele><time>2026-04-26T16:49:39.399Z</time></trkpt><trkpt lat="46.1561078" lon="13.0143107"><ele>189.0</ele><time>2026-04-26T16:49:40.399Z</time></trkpt><trkpt lat="46.1561106" lon="13.0142053"><ele>188.5</ele><time>2026-04-26T16:49:41.398Z</time></trkpt><trkpt lat="46.1561165" lon="13.014105"><ele>188.0</ele><time>2026-04-26T16:49:42.398Z</time></trkpt><trkpt lat="46.1561384" lon="13.0139207"><ele>187.85714285714286</ele><time>2026-04-26T16:49:44.398Z</time></trkpt><trkpt lat="46.1561436" lon="13.0138076"><ele>187.71428571428572</ele><time>2026-04-26T16:49:45.399Z</time></trkpt><trkpt lat="46.1561378" lon="13.0136948"><ele>187.57142857142856</ele><time>2026-04-26T16:49:46.4Z</time></trkpt><trkpt lat="46.1561357" lon="13.0135822"><ele>187.42857142857144</ele><time>2026-04-26T16:49:47.399Z</time></trkpt><trkpt lat="46.1561366" lon="13.0134751"><ele>187.2857142857143</ele><time>2026-04-26T16:49:48.399Z</time></trkpt><trkpt lat="46.15614" lon="13.0133742"><ele>187.14285714285714</ele><time>2026-04-26T16:49:49.399Z</time></trkpt><trkpt lat="46.1561466" lon="13.0132756"><ele>187.0</ele><time>2026-04-26T16:49:50.399Z</time></trkpt><trkpt lat="46.1561522" lon="13.0131754"><ele>188.6</ele><time>2026-04-26T16:49:51.4Z</time></trkpt><trkpt lat="46.156157" lon="13.0130697"><ele>190.2</ele><time>2026-04-26T16:49:52.399Z</time></trkpt><trkpt lat="46.1561591" lon="13.0129545"><ele>191.8</ele><time>2026-04-26T16:49:53.399Z</time></trkpt><trkpt lat="46.1561673" lon="13.0128147"><ele>193.4</ele><time>2026-04-26T16:49:54.399Z</time></trkpt><trkpt lat="46.1561625" lon="13.0126654"><ele>195.0</ele><time>2026-04-26T16:49:55.4Z</time></trkpt><trkpt lat="46.1561453" lon="13.0125184"><ele>195.8</ele><time>2026-04-26T16:49:56.399Z</time></trkpt><trkpt lat="46.1561141" lon="13.0123625"><ele>196.6</ele><time>2026-04-26T16:49:57.398Z</time></trkpt><trkpt lat="46.156085" lon="13.0122099"><ele>197.39999999999998</ele><time>2026-04-26T16:49:58.399Z</time></trkpt><trkpt lat="46.1560649" lon="13.0120722"><ele>198.2</ele><time>2026-04-26T16:49:59.399Z</time></trkpt><trkpt lat="46.1560454" lon="13.0119409"><ele>199.0</ele><time>2026-04-26T16:50:00.4Z</time></trkpt><trkpt lat="46.1560361" lon="13.0118066"><ele>198.99999999999997</ele><time>2026-04-26T16:50:01.399Z</time></trkpt><trkpt lat="46.1560385" lon="13.0116716"><ele>199.0</ele><time>2026-04-26T16:50:02.399Z</time></trkpt><trkpt lat="46.1560478" lon="13.0115497"><ele>199.0</ele><time>2026-04-26T16:50:03.4Z</time></trkpt><trkpt lat="46.1560541" lon="13.0114441"><ele>199.0</ele><time>2026-04-26T16:50:04.399Z</time></trkpt><trkpt lat="46.1560609" lon="13.0113468"><ele>198.99999999999997</ele><time>2026-04-26T16:50:05.399Z</time></trkpt><trkpt lat="46.1560668" lon="13.0111877"><ele>199.0</ele><time>2026-04-26T16:50:07.398Z</time></trkpt><trkpt lat="46.1560658" lon="13.0110711"><ele>199.16666666666666</ele><time>2026-04-26T16:50:09.399Z</time></trkpt><trkpt lat="46.1560638" lon="13.0109628"><ele>199.33333333333331</ele><time>2026-04-26T16:50:12.4Z</time></trkpt><trkpt lat="46.1560328" lon="13.0108732"><ele>199.5</ele><time>2026-04-26T16:50:35.4Z</time></trkpt><trkpt lat="46.1559362" lon="13.0108126"><ele>199.66666666666669</ele><time>2026-04-26T16:50:37.398Z</time></trkpt><trkpt lat="46.1558145" lon="13.0107942"><ele>199.83333333333334</ele><time>2026-04-26T16:50:39.4Z</time></trkpt><trkpt lat="46.1557441" lon="13.0107643"><ele>200.0</ele><time>2026-04-26T16:50:40.399Z</time></trkpt><trkpt lat="46.1556653" lon="13.0107343"><ele>199.16666666666669</ele><time>2026-04-26T16:50:41.398Z</time></trkpt><trkpt lat="46.1555806" lon="13.0106993"><ele>198.33333333333334</ele><time>2026-04-26T16:50:42.399Z</time></trkpt><trkpt lat="46.1554998" lon="13.0106588"><ele>197.5</ele><time>2026-04-26T16:50:43.399Z</time></trkpt><trkpt lat="46.1554245" lon="13.0106168"><ele>196.66666666666669</ele><time>2026-04-26T16:50:44.399Z</time></trkpt><trkpt lat="46.1553445" lon="13.01056"><ele>195.83333333333334</ele><time>2026-04-26T16:50:45.399Z</time></trkpt><trkpt lat="46.1552647" lon="13.0104864"><ele>195.0</ele><time>2026-04-26T16:50:46.398Z</time></trkpt><trkpt lat="46.155187" lon="13.0103882"><ele>195.0</ele><time>2026-04-26T16:50:47.4Z</time></trkpt><trkpt lat="46.1551169" lon="13.010288"><ele>195.0</ele><time>2026-04-26T16:50:48.399Z</time></trkpt><trkpt lat="46.1550494" lon="13.0101961"><ele>195.0</ele><time>2026-04-26T16:50:49.4Z</time></trkpt><trkpt lat="46.154983" lon="13.0101066"><ele>195.0</ele><time>2026-04-26T16:50:50.399Z</time></trkpt><trkpt lat="46.1549134" lon="13.0100184"><ele>195.0</ele><time>2026-04-26T16:50:51.399Z</time></trkpt><trkpt lat="46.1548429" lon="13.0099412"><ele>194.8</ele><time>2026-04-26T16:50:52.399Z</time></trkpt><trkpt lat="46.1547649" lon="13.0098783"><ele>194.6</ele><time>2026-04-26T16:50:53.399Z</time></trkpt><trkpt lat="46.1546834" lon="13.0098193"><ele>194.39999999999998</ele><time>2026-04-26T16:50:54.399Z</time></trkpt><trkpt lat="46.1545969" lon="13.0097672"><ele>194.2</ele><time>2026-04-26T16:50:55.398Z</time></trkpt><trkpt lat="46.1545056" lon="13.0097197"><ele>194.0</ele><time>2026-04-26T16:50:56.399Z</time></trkpt><trkpt lat="46.1544079" lon="13.0096647"><ele>194.0</ele><time>2026-04-26T16:50:57.399Z</time></trkpt><trkpt lat="46.1543096" lon="13.0096082"><ele>194.0</ele><time>2026-04-26T16:50:58.399Z</time></trkpt><trkpt lat="46.1542074" lon="13.009552"><ele>194.0</ele><time>2026-04-26T16:50:59.4Z</time></trkpt><trkpt lat="46.1540994" lon="13.0094927"><ele>194.0</ele><time>2026-04-26T16:51:00.399Z</time></trkpt><trkpt lat="46.1539941" lon="13.0094352"><ele>194.0</ele><time>2026-04-26T16:51:01.398Z</time></trkpt><trkpt lat="46.1538943" lon="13.0093789"><ele>193.66666666666669</ele><time>2026-04-26T16:51:02.398Z</time></trkpt><trkpt lat="46.153803" lon="13.0093305"><ele>193.33333333333334</ele><time>2026-04-26T16:51:03.398Z</time></trkpt><trkpt lat="46.1537215" lon="13.0092918"><ele>193.0</ele><time>2026-04-26T16:51:04.399Z</time></trkpt><trkpt lat="46.1536471" lon="13.0092542"><ele>192.66666666666669</ele><time>2026-04-26T16:51:05.4Z</time></trkpt><trkpt lat="46.1535805" lon="13.0092202"><ele>192.33333333333334</ele><time>2026-04-26T16:51:06.399Z</time></trkpt><trkpt lat="46.1534816" lon="13.0091637"><ele>192.0</ele><time>2026-04-26T16:51:08.399Z</time></trkpt><trkpt lat="46.1534217" lon="13.0091265"><ele>192.0</ele><time>2026-04-26T16:51:10.399Z</time></trkpt><trkpt lat="46.1533553" lon="13.0091016"><ele>192.0</ele><time>2026-04-26T16:51:57.4Z</time></trkpt><trkpt lat="46.1532854" lon="13.0090615"><ele>192.0</ele><time>2026-04-26T16:51:58.398Z</time></trkpt><trkpt lat="46.1532153" lon="13.0090231"><ele>192.0</ele><time>2026-04-26T16:51:59.398Z</time></trkpt><trkpt lat="46.1531348" lon="13.0089786"><ele>192.0</ele><time>2026-04-26T16:52:00.399Z</time></trkpt><trkpt lat="46.1530475" lon="13.0089323"><ele>192.0</ele><time>2026-04-26T16:52:01.399Z</time></trkpt><trkpt lat="46.1529607" lon="13.0088857"><ele>191.39999999999998</ele><time>2026-04-26T16:52:02.4Z</time></trkpt><trkpt lat="46.1528661" lon="13.0088306"><ele>190.79999999999998</ele><time>2026-04-26T16:52:03.399Z</time></trkpt><trkpt lat="46.1527693" lon="13.0087767"><ele>190.2</ele><time>2026-04-26T16:52:04.399Z</time></trkpt><trkpt lat="46.1526728" lon="13.008723"><ele>189.6</ele><time>2026-04-26T16:52:05.399Z</time></trkpt><trkpt lat="46.152572" lon="13.0086658"><ele>189.0</ele><time>2026-04-26T16:52:06.4Z</time></trkpt><trkpt lat="46.1524684" lon="13.0086047"><ele>189.0</ele><time>2026-04-26T16:52:07.4Z</time></trkpt><trkpt lat="46.152361" lon="13.0085452"><ele>189.0</ele><time>2026-04-26T16:52:08.398Z</time></trkpt><trkpt lat="46.1522491" lon="13.0084861"><ele>189.0</ele><time>2026-04-26T16:52:09.399Z</time></trkpt><trkpt lat="46.1521407" lon="13.0084239"><ele>189.0</ele><time>2026-04-26T16:52:10.4Z</time></trkpt><trkpt lat="46.1520336" lon="13.0083631"><ele>189.0</ele><time>2026-04-26T16:52:11.398Z</time></trkpt><trkpt lat="46.1519283" lon="13.0083029"><ele>189.0</ele><time>2026-04-26T16:52:12.399Z</time></trkpt><trkpt lat="46.1518237" lon="13.0082431"><ele>189.0</ele><time>2026-04-26T16:52:13.398Z</time></trkpt><trkpt lat="46.1517188" lon="13.0081841"><ele>189.0</ele><time>2026-04-26T16:52:14.399Z</time></trkpt><trkpt lat="46.1516134" lon="13.0081261"><ele>188.75</ele><time>2026-04-26T16:52:15.4Z</time></trkpt><trkpt lat="46.1515063" lon="13.0080671"><ele>188.5</ele><time>2026-04-26T16:52:16.398Z</time></trkpt><trkpt lat="46.1513985" lon="13.0080061"><ele>188.25</ele><time>2026-04-26T16:52:17.399Z</time></trkpt><trkpt lat="46.1512889" lon="13.007946"><ele>188.0</ele><time>2026-04-26T16:52:18.399Z</time></trkpt><trkpt lat="46.1511772" lon="13.007888"><ele>188.0</ele><time>2026-04-26T16:52:19.399Z</time></trkpt><trkpt lat="46.1510616" lon="13.0078377"><ele>188.0</ele><time>2026-04-26T16:52:20.399Z</time></trkpt><trkpt lat="46.1509442" lon="13.0077951"><ele>188.0</ele><time>2026-04-26T16:52:21.399Z</time></trkpt><trkpt lat="46.150825" lon="13.0077542"><ele>188.0</ele><time>2026-04-26T16:52:22.399Z</time></trkpt><trkpt lat="46.1507045" lon="13.0077156"><ele>187.5</ele><time>2026-04-26T16:52:23.399Z</time></trkpt><trkpt lat="46.1505826" lon="13.007678"><ele>187.0</ele><time>2026-04-26T16:52:24.398Z</time></trkpt><trkpt lat="46.1504593" lon="13.0076432"><ele>186.5</ele><time>2026-04-26T16:52:25.399Z</time></trkpt><trkpt lat="46.1503348" lon="13.0076082"><ele>186.0</ele><time>2026-04-26T16:52:26.399Z</time></trkpt><trkpt lat="46.1502085" lon="13.007572"><ele>186.0</ele><time>2026-04-26T16:52:27.399Z</time></trkpt><trkpt lat="46.1500833" lon="13.0075292"><ele>186.0</ele><time>2026-04-26T16:52:28.399Z</time></trkpt><trkpt lat="46.1499457" lon="13.0074851"><ele>186.0</ele><time>2026-04-26T16:52:29.399Z</time></trkpt><trkpt lat="46.149813" lon="13.0074414"><ele>186.0</ele><time>2026-04-26T16:52:30.398Z</time></trkpt><trkpt lat="46.1496803" lon="13.0074048"><ele>185.75</ele><time>2026-04-26T16:52:31.399Z</time></trkpt><trkpt lat="46.1495509" lon="13.0073661"><ele>185.5</ele><time>2026-04-26T16:52:32.399Z</time></trkpt><trkpt lat="46.1494154" lon="13.007325"><ele>185.25</ele><time>2026-04-26T16:52:33.398Z</time></trkpt><trkpt lat="46.1492757" lon="13.007284"><ele>185.0</ele><time>2026-04-26T16:52:34.397Z</time></trkpt><trkpt lat="46.1491335" lon="13.0072368"><ele>184.75</ele><time>2026-04-26T16:52:35.398Z</time></trkpt><trkpt lat="46.1489894" lon="13.0071907"><ele>184.5</ele><time>2026-04-26T16:52:36.398Z</time></trkpt><trkpt lat="46.1488489" lon="13.0071493"><ele>184.25</ele><time>2026-04-26T16:52:37.398Z</time></trkpt><trkpt lat="46.1487156" lon="13.0071085"><ele>184.0</ele><time>2026-04-26T16:52:38.398Z</time></trkpt><trkpt lat="46.1485875" lon="13.0070702"><ele>184.0</ele><time>2026-04-26T16:52:39.398Z</time></trkpt><trkpt lat="46.1484605" lon="13.007032"><ele>184.0</ele><time>2026-04-26T16:52:40.398Z</time></trkpt><trkpt lat="46.1483341" lon="13.0069942"><ele>184.0</ele><time>2026-04-26T16:52:41.398Z</time></trkpt><trkpt lat="46.1482066" lon="13.0069565"><ele>184.0</ele><time>2026-04-26T16:52:42.399Z</time></trkpt><trkpt lat="46.1480774" lon="13.0069183"><ele>183.5</ele><time>2026-04-26T16:52:43.399Z</time></trkpt><trkpt lat="46.1479455" lon="13.0068783"><ele>183.0</ele><time>2026-04-26T16:52:44.397Z</time></trkpt><trkpt lat="46.1478195" lon="13.0068427"><ele>182.5</ele><time>2026-04-26T16:52:45.398Z</time></trkpt><trkpt lat="46.1476836" lon="13.0067987"><ele>182.0</ele><time>2026-04-26T16:52:46.397Z</time></trkpt><trkpt lat="46.1475484" lon="13.0067596"><ele>182.0</ele><time>2026-04-26T16:52:47.399Z</time></trkpt><trkpt lat="46.1474122" lon="13.0067212"><ele>182.0</ele><time>2026-04-26T16:52:48.398Z</time></trkpt><trkpt lat="46.1472768" lon="13.0066795"><ele>182.0</ele><time>2026-04-26T16:52:49.398Z</time></trkpt><trkpt lat="46.147145" lon="13.0066405"><ele>182.0</ele><time>2026-04-26T16:52:50.398Z</time></trkpt><trkpt lat="46.1470203" lon="13.0066024"><ele>182.0</ele><time>2026-04-26T16:52:51.397Z</time></trkpt><trkpt lat="46.1469075" lon="13.0065693"><ele>182.0</ele><time>2026-04-26T16:52:52.398Z</time></trkpt><trkpt lat="46.1468114" lon="13.006543"><ele>182.0</ele><time>2026-04-26T16:52:53.398Z</time></trkpt><trkpt lat="46.1467272" lon="13.0065156"><ele>182.0</ele><time>2026-04-26T16:52:54.398Z</time></trkpt><trkpt lat="46.146656" lon="13.0064813"><ele>182.0</ele><time>2026-04-26T16:52:55.398Z</time></trkpt><trkpt lat="46.1465985" lon="13.0064362"><ele>182.0</ele><time>2026-04-26T16:52:56.398Z</time></trkpt><trkpt lat="46.1465519" lon="13.0063744"><ele>182.0</ele><time>2026-04-26T16:52:57.398Z</time></trkpt><trkpt lat="46.14652" lon="13.0062932"><ele>182.0</ele><time>2026-04-26T16:52:58.399Z</time></trkpt><trkpt lat="46.1465126" lon="13.0061976"><ele>182.0</ele><time>2026-04-26T16:52:59.398Z</time></trkpt><trkpt lat="46.1465392" lon="13.0061012"><ele>182.0</ele><time>2026-04-26T16:53:00.397Z</time></trkpt><trkpt lat="46.1465976" lon="13.0060133"><ele>182.0</ele><time>2026-04-26T16:53:01.398Z</time></trkpt><trkpt lat="46.1466737" lon="13.0059416"><ele>182.0</ele><time>2026-04-26T16:53:02.398Z</time></trkpt><trkpt lat="46.1467595" lon="13.0058681"><ele>182.0</ele><time>2026-04-26T16:53:03.398Z</time></trkpt><trkpt lat="46.1468484" lon="13.0057866"><ele>182.0</ele><time>2026-04-26T16:53:04.398Z</time></trkpt><trkpt lat="46.1469354" lon="13.0056986"><ele>182.0</ele><time>2026-04-26T16:53:05.399Z</time></trkpt><trkpt lat="46.1470221" lon="13.0056038"><ele>182.0</ele><time>2026-04-26T16:53:06.398Z</time></trkpt><trkpt lat="46.1471124" lon="13.0055031"><ele>182.0</ele><time>2026-04-26T16:53:07.398Z</time></trkpt><trkpt lat="46.1472068" lon="13.0053972"><ele>182.0</ele><time>2026-04-26T16:53:08.399Z</time></trkpt><trkpt lat="46.1473045" lon="13.0052861"><ele>182.0</ele><time>2026-04-26T16:53:09.398Z</time></trkpt><trkpt lat="46.1474031" lon="13.0051722"><ele>182.0</ele><time>2026-04-26T16:53:10.399Z</time></trkpt><trkpt lat="46.1475024" lon="13.0050566"><ele>182.0</ele><time>2026-04-26T16:53:11.397Z</time></trkpt><trkpt lat="46.1475994" lon="13.0049431"><ele>181.75</ele><time>2026-04-26T16:53:12.399Z</time></trkpt><trkpt lat="46.1476955" lon="13.0048307"><ele>181.5</ele><time>2026-04-26T16:53:13.398Z</time></trkpt><trkpt lat="46.1477901" lon="13.0047197"><ele>181.25</ele><time>2026-04-26T16:53:14.399Z</time></trkpt><trkpt lat="46.1478834" lon="13.0046093"><ele>181.0</ele><time>2026-04-26T16:53:15.398Z</time></trkpt><trkpt lat="46.1479754" lon="13.0045008"><ele>181.0</ele><time>2026-04-26T16:53:16.399Z</time></trkpt><trkpt lat="46.1480673" lon="13.0043937"><ele>181.0</ele><time>2026-04-26T16:53:17.399Z</time></trkpt><trkpt lat="46.1481546" lon="13.004292"><ele>181.0</ele><time>2026-04-26T16:53:18.398Z</time></trkpt><trkpt lat="46.1482366" lon="13.0041979"><ele>181.0</ele><time>2026-04-26T16:53:19.397Z</time></trkpt><trkpt lat="46.1483154" lon="13.0041089"><ele>181.0</ele><time>2026-04-26T16:53:20.397Z</time></trkpt><trkpt lat="46.1483966" lon="13.0040161"><ele>181.25</ele><time>2026-04-26T16:53:21.398Z</time></trkpt><trkpt lat="46.1484827" lon="13.0039153"><ele>181.5</ele><time>2026-04-26T16:53:22.397Z</time></trkpt><trkpt lat="46.1485765" lon="13.0038057"><ele>181.75</ele><time>2026-04-26T16:53:23.399Z</time></trkpt><trkpt lat="46.1486807" lon="13.0036885"><ele>182.0</ele><time>2026-04-26T16:53:24.398Z</time></trkpt><trkpt lat="46.1487922" lon="13.0035613"><ele>182.0</ele><time>2026-04-26T16:53:25.398Z</time></trkpt><trkpt lat="46.148909" lon="13.0034292"><ele>182.0</ele><time>2026-04-26T16:53:26.398Z</time></trkpt><trkpt lat="46.1490342" lon="13.0032804"><ele>182.0</ele><time>2026-04-26T16:53:27.397Z</time></trkpt><trkpt lat="46.1491638" lon="13.0031295"><ele>182.66666666666666</ele><time>2026-04-26T16:53:28.398Z</time></trkpt><trkpt lat="46.1493006" lon="13.0029701"><ele>183.33333333333334</ele><time>2026-04-26T16:53:29.397Z</time></trkpt><trkpt lat="46.1494293" lon="13.0028182"><ele>184.0</ele><time>2026-04-26T16:53:30.397Z</time></trkpt><trkpt lat="46.1495536" lon="13.0026751"><ele>184.0</ele><time>2026-04-26T16:53:31.397Z</time></trkpt><trkpt lat="46.1496733" lon="13.0025398"><ele>184.0</ele><time>2026-04-26T16:53:32.398Z</time></trkpt><trkpt lat="46.1497898" lon="13.0024044"><ele>184.0</ele><time>2026-04-26T16:53:33.398Z</time></trkpt><trkpt lat="46.1499094" lon="13.0022699"><ele>184.33333333333334</ele><time>2026-04-26T16:53:34.399Z</time></trkpt><trkpt lat="46.1500281" lon="13.0021349"><ele>184.66666666666666</ele><time>2026-04-26T16:53:35.397Z</time></trkpt><trkpt lat="46.1501461" lon="13.0019941"><ele>185.0</ele><time>2026-04-26T16:53:36.398Z</time></trkpt><trkpt lat="46.1502687" lon="13.001852"><ele>185.0</ele><time>2026-04-26T16:53:37.398Z</time></trkpt><trkpt lat="46.1503902" lon="13.0017106"><ele>185.0</ele><time>2026-04-26T16:53:38.398Z</time></trkpt><trkpt lat="46.1505125" lon="13.0015672"><ele>185.0</ele><time>2026-04-26T16:53:39.398Z</time></trkpt><trkpt lat="46.1506315" lon="13.0014285"><ele>185.0</ele><time>2026-04-26T16:53:40.398Z</time></trkpt><trkpt lat="46.1507456" lon="13.0012958"><ele>185.0</ele><time>2026-04-26T16:53:41.397Z</time></trkpt><trkpt lat="46.1508559" lon="13.0011722"><ele>185.0</ele><time>2026-04-26T16:53:42.399Z</time></trkpt><trkpt lat="46.1509631" lon="13.0010477"><ele>185.0</ele><time>2026-04-26T16:53:43.398Z</time></trkpt><trkpt lat="46.1510679" lon="13.0009255"><ele>185.0</ele><time>2026-04-26T16:53:44.398Z</time></trkpt><trkpt lat="46.1511729" lon="13.0008001"><ele>185.0</ele><time>2026-04-26T16:53:45.398Z</time></trkpt><trkpt lat="46.151276" lon="13.0006737"><ele>185.0</ele><time>2026-04-26T16:53:46.399Z</time></trkpt><trkpt lat="46.1513803" lon="13.0005364"><ele>185.0</ele><time>2026-04-26T16:53:47.398Z</time></trkpt><trkpt lat="46.1514846" lon="13.0003845"><ele>184.5</ele><time>2026-04-26T16:53:48.398Z</time></trkpt><trkpt lat="46.1515846" lon="13.0002276"><ele>184.0</ele><time>2026-04-26T16:53:49.399Z</time></trkpt><trkpt lat="46.1516767" lon="13.0000621"><ele>183.5</ele><time>2026-04-26T16:53:50.398Z</time></trkpt><trkpt lat="46.1517626" lon="12.9998914"><ele>183.0</ele><time>2026-04-26T16:53:51.399Z</time></trkpt><trkpt lat="46.1518423" lon="12.9997155"><ele>183.0</ele><time>2026-04-26T16:53:52.398Z</time></trkpt><trkpt lat="46.1519135" lon="12.9995491"><ele>183.0</ele><time>2026-04-26T16:53:53.399Z</time></trkpt><trkpt lat="46.1519777" lon="12.9993892"><ele>183.0</ele><time>2026-04-26T16:53:54.398Z</time></trkpt><trkpt lat="46.1520328" lon="12.9992357"><ele>183.0</ele><time>2026-04-26T16:53:55.398Z</time></trkpt><trkpt lat="46.1520787" lon="12.999082"><ele>183.0</ele><time>2026-04-26T16:53:56.398Z</time></trkpt><trkpt lat="46.1521178" lon="12.9989185"><ele>183.0</ele><time>2026-04-26T16:53:57.398Z</time></trkpt><trkpt lat="46.1521559" lon="12.998744"><ele>183.0</ele><time>2026-04-26T16:53:58.398Z</time></trkpt><trkpt lat="46.152199" lon="12.9985713"><ele>183.0</ele><time>2026-04-26T16:53:59.399Z</time></trkpt><trkpt lat="46.1522397" lon="12.9983942"><ele>183.25</ele><time>2026-04-26T16:54:00.398Z</time></trkpt><trkpt lat="46.1522792" lon="12.9982132"><ele>183.5</ele><time>2026-04-26T16:54:01.398Z</time></trkpt><trkpt lat="46.152321" lon="12.9980296"><ele>183.75</ele><time>2026-04-26T16:54:02.398Z</time></trkpt><trkpt lat="46.1523631" lon="12.9978448"><ele>184.0</ele><time>2026-04-26T16:54:03.399Z</time></trkpt><trkpt lat="46.1524053" lon="12.9976662"><ele>183.75</ele><time>2026-04-26T16:54:04.398Z</time></trkpt><trkpt lat="46.1524426" lon="12.9974949"><ele>183.5</ele><time>2026-04-26T16:54:05.397Z</time></trkpt><trkpt lat="46.1524797" lon="12.997334"><ele>183.25</ele><time>2026-04-26T16:54:06.398Z</time></trkpt><trkpt lat="46.152515" lon="12.9971823"><ele>183.0</ele><time>2026-04-26T16:54:07.398Z</time></trkpt><trkpt lat="46.1525473" lon="12.9970497"><ele>183.0</ele><time>2026-04-26T16:54:08.398Z</time></trkpt><trkpt lat="46.1525796" lon="12.996932"><ele>183.0</ele><time>2026-04-26T16:54:09.399Z</time></trkpt><trkpt lat="46.152612" lon="12.9968385"><ele>183.0</ele><time>2026-04-26T16:54:10.398Z</time></trkpt><trkpt lat="46.1526663" lon="12.9967058"><ele>183.0</ele><time>2026-04-26T16:54:12.398Z</time></trkpt><trkpt lat="46.1526959" lon="12.9966232"><ele>183.0</ele><time>2026-04-26T16:54:14.398Z</time></trkpt><trkpt lat="46.1526992" lon="12.9965175"><ele>183.0</ele><time>2026-04-26T16:54:52.399Z</time></trkpt><trkpt lat="46.1526559" lon="12.9963897"><ele>183.0</ele><time>2026-04-26T16:54:54.399Z</time></trkpt><trkpt lat="46.1526013" lon="12.9963339"><ele>183.0</ele><time>2026-04-26T16:54:55.397Z</time></trkpt><trkpt lat="46.1525242" lon="12.9962678"><ele>183.0</ele><time>2026-04-26T16:54:56.397Z</time></trkpt><trkpt lat="46.1524247" lon="12.9961899"><ele>183.0</ele><time>2026-04-26T16:54:57.397Z</time></trkpt><trkpt lat="46.1523196" lon="12.9961061"><ele>183.0</ele><time>2026-04-26T16:54:58.397Z</time></trkpt><trkpt lat="46.1522082" lon="12.9960043"><ele>182.5</ele><time>2026-04-26T16:54:59.399Z</time></trkpt><trkpt lat="46.1520963" lon="12.9958941"><ele>182.0</ele><time>2026-04-26T16:55:00.397Z</time></trkpt><trkpt lat="46.1519812" lon="12.9957772"><ele>181.5</ele><time>2026-04-26T16:55:01.399Z</time></trkpt><trkpt lat="46.1518683" lon="12.9956589"><ele>181.0</ele><time>2026-04-26T16:55:02.398Z</time></trkpt><trkpt lat="46.1517543" lon="12.9955403"><ele>180.75</ele><time>2026-04-26T16:55:03.398Z</time></trkpt><trkpt lat="46.1516424" lon="12.9954224"><ele>180.5</ele><time>2026-04-26T16:55:04.399Z</time></trkpt><trkpt lat="46.1515314" lon="12.9953056"><ele>180.25</ele><time>2026-04-26T16:55:05.398Z</time></trkpt><trkpt lat="46.1514231" lon="12.9951867"><ele>180.0</ele><time>2026-04-26T16:55:06.399Z</time></trkpt><trkpt lat="46.1513139" lon="12.9950635"><ele>179.75</ele><time>2026-04-26T16:55:07.398Z</time></trkpt><trkpt lat="46.1512012" lon="12.9949279"><ele>179.5</ele><time>2026-04-26T16:55:08.398Z</time></trkpt><trkpt lat="46.151095" lon="12.994788"><ele>179.25</ele><time>2026-04-26T16:55:09.398Z</time></trkpt><trkpt lat="46.1509961" lon="12.9946398"><ele>179.0</ele><time>2026-04-26T16:55:10.398Z</time></trkpt><trkpt lat="46.1509091" lon="12.9944755"><ele>179.0</ele><time>2026-04-26T16:55:11.399Z</time></trkpt><trkpt lat="46.150831" lon="12.9942887"><ele>179.0</ele><time>2026-04-26T16:55:12.397Z</time></trkpt><trkpt lat="46.1507648" lon="12.9940755"><ele>179.0</ele><time>2026-04-26T16:55:13.398Z</time></trkpt><trkpt lat="46.1507177" lon="12.9938526"><ele>179.0</ele><time>2026-04-26T16:55:14.398Z</time></trkpt><trkpt lat="46.1506851" lon="12.9936249"><ele>179.0</ele><time>2026-04-26T16:55:15.398Z</time></trkpt><trkpt lat="46.1506568" lon="12.9933945"><ele>179.0</ele><time>2026-04-26T16:55:16.397Z</time></trkpt><trkpt lat="46.1506272" lon="12.9931668"><ele>179.0</ele><time>2026-04-26T16:55:17.398Z</time></trkpt><trkpt lat="46.1505855" lon="12.9929446"><ele>179.0</ele><time>2026-04-26T16:55:18.397Z</time></trkpt><trkpt lat="46.1505274" lon="12.992723"><ele>179.0</ele><time>2026-04-26T16:55:19.398Z</time></trkpt><trkpt lat="46.15046" lon="12.992507"><ele>178.66666666666666</ele><time>2026-04-26T16:55:20.398Z</time></trkpt><trkpt lat="46.1503876" lon="12.9922921"><ele>178.33333333333334</ele><time>2026-04-26T16:55:21.398Z</time></trkpt><trkpt lat="46.1503139" lon="12.992081"><ele>178.0</ele><time>2026-04-26T16:55:22.398Z</time></trkpt><trkpt lat="46.1502372" lon="12.9918747"><ele>178.0</ele><time>2026-04-26T16:55:23.398Z</time></trkpt><trkpt lat="46.1501611" lon="12.9916647"><ele>178.0</ele><time>2026-04-26T16:55:24.398Z</time></trkpt><trkpt lat="46.1500859" lon="12.9914602"><ele>178.0</ele><time>2026-04-26T16:55:25.398Z</time></trkpt><trkpt lat="46.1500108" lon="12.9912532"><ele>178.0</ele><time>2026-04-26T16:55:26.397Z</time></trkpt><trkpt lat="46.1499354" lon="12.9910449"><ele>178.0</ele><time>2026-04-26T16:55:27.399Z</time></trkpt><trkpt lat="46.14986" lon="12.9908347"><ele>178.0</ele><time>2026-04-26T16:55:28.398Z</time></trkpt><trkpt lat="46.1497797" lon="12.9906243"><ele>177.0</ele><time>2026-04-26T16:55:29.397Z</time></trkpt><trkpt lat="46.1497014" lon="12.9904155"><ele>176.0</ele><time>2026-04-26T16:55:30.398Z</time></trkpt><trkpt lat="46.1496244" lon="12.9902078"><ele>175.0</ele><time>2026-04-26T16:55:31.399Z</time></trkpt><trkpt lat="46.1495443" lon="12.9900019"><ele>175.0</ele><time>2026-04-26T16:55:32.398Z</time></trkpt><trkpt lat="46.1494588" lon="12.9898004"><ele>175.0</ele><time>2026-04-26T16:55:33.397Z</time></trkpt><trkpt lat="46.149369" lon="12.9895967"><ele>175.0</ele><time>2026-04-26T16:55:34.397Z</time></trkpt><trkpt lat="46.149278" lon="12.989394"><ele>175.0</ele><time>2026-04-26T16:55:35.398Z</time></trkpt><trkpt lat="46.1491843" lon="12.9891879"><ele>175.0</ele><time>2026-04-26T16:55:36.398Z</time></trkpt><trkpt lat="46.149089" lon="12.9889811"><ele>175.0</ele><time>2026-04-26T16:55:37.398Z</time></trkpt><trkpt lat="46.1489915" lon="12.9887795"><ele>174.0</ele><time>2026-04-26T16:55:38.398Z</time></trkpt><trkpt lat="46.1488892" lon="12.9885828"><ele>173.0</ele><time>2026-04-26T16:55:39.398Z</time></trkpt><trkpt lat="46.1487858" lon="12.9883944"><ele>172.0</ele><time>2026-04-26T16:55:40.397Z</time></trkpt><trkpt lat="46.1486825" lon="12.9882083"><ele>171.66666666666669</ele><time>2026-04-26T16:55:41.397Z</time></trkpt><trkpt lat="46.14858" lon="12.9880211"><ele>171.33333333333334</ele><time>2026-04-26T16:55:42.398Z</time></trkpt><trkpt lat="46.1484796" lon="12.9878362"><ele>171.0</ele><time>2026-04-26T16:55:43.398Z</time></trkpt><trkpt lat="46.1483771" lon="12.9876462"><ele>171.33333333333334</ele><time>2026-04-26T16:55:44.399Z</time></trkpt><trkpt lat="46.1482751" lon="12.9874579"><ele>171.66666666666669</ele><time>2026-04-26T16:55:45.397Z</time></trkpt><trkpt lat="46.1481736" lon="12.987268"><ele>172.0</ele><time>2026-04-26T16:55:46.398Z</time></trkpt><trkpt lat="46.1480685" lon="12.9870778"><ele>171.0</ele><time>2026-04-26T16:55:47.397Z</time></trkpt><trkpt lat="46.1479624" lon="12.9868884"><ele>170.0</ele><time>2026-04-26T16:55:48.398Z</time></trkpt><trkpt lat="46.1478534" lon="12.9866995"><ele>169.0</ele><time>2026-04-26T16:55:49.398Z</time></trkpt><trkpt lat="46.1477359" lon="12.9865183"><ele>168.66666666666669</ele><time>2026-04-26T16:55:50.398Z</time></trkpt><trkpt lat="46.1476007" lon="12.9863518"><ele>168.33333333333334</ele><time>2026-04-26T16:55:51.399Z</time></trkpt><trkpt lat="46.1474529" lon="12.9862029"><ele>168.0</ele><time>2026-04-26T16:55:52.397Z</time></trkpt><trkpt lat="46.1472958" lon="12.9860706"><ele>167.33333333333334</ele><time>2026-04-26T16:55:53.397Z</time></trkpt><trkpt lat="46.147138" lon="12.9859412"><ele>166.66666666666669</ele><time>2026-04-26T16:55:54.398Z</time></trkpt><trkpt lat="46.1469795" lon="12.9858144"><ele>166.0</ele><time>2026-04-26T16:55:55.398Z</time></trkpt><trkpt lat="46.1468205" lon="12.9856874"><ele>165.66666666666669</ele><time>2026-04-26T16:55:56.397Z</time></trkpt><trkpt lat="46.1466628" lon="12.9855577"><ele>165.33333333333334</ele><time>2026-04-26T16:55:57.399Z</time></trkpt><trkpt lat="46.146507" lon="12.9854207"><ele>165.0</ele><time>2026-04-26T16:55:58.398Z</time></trkpt><trkpt lat="46.1463586" lon="12.9852719"><ele>164.66666666666666</ele><time>2026-04-26T16:55:59.398Z</time></trkpt><trkpt lat="46.1462211" lon="12.9851053"><ele>164.33333333333331</ele><time>2026-04-26T16:56:00.399Z</time></trkpt><trkpt lat="46.1460941" lon="12.9849246"><ele>164.0</ele><time>2026-04-26T16:56:01.398Z</time></trkpt><trkpt lat="46.1459748" lon="12.9847222"><ele>164.33333333333331</ele><time>2026-04-26T16:56:02.398Z</time></trkpt><trkpt lat="46.1458647" lon="12.98451"><ele>164.66666666666666</ele><time>2026-04-26T16:56:03.397Z</time></trkpt><trkpt lat="46.1457632" lon="12.9842837"><ele>165.0</ele><time>2026-04-26T16:56:04.399Z</time></trkpt><trkpt lat="46.1456803" lon="12.9840478"><ele>165.0</ele><time>2026-04-26T16:56:05.397Z</time></trkpt><trkpt lat="46.1456096" lon="12.9837971"><ele>165.0</ele><time>2026-04-26T16:56:06.398Z</time></trkpt><trkpt lat="46.1455473" lon="12.9835434"><ele>165.0</ele><time>2026-04-26T16:56:07.398Z</time></trkpt><trkpt lat="46.1454931" lon="12.9832945"><ele>165.0</ele><time>2026-04-26T16:56:08.397Z</time></trkpt><trkpt lat="46.1454435" lon="12.9830494"><ele>165.0</ele><time>2026-04-26T16:56:09.399Z</time></trkpt><trkpt lat="46.1453922" lon="12.9828107"><ele>165.0</ele><time>2026-04-26T16:56:10.397Z</time></trkpt><trkpt lat="46.1453432" lon="12.9825759"><ele>164.66666666666666</ele><time>2026-04-26T16:56:11.398Z</time></trkpt><trkpt lat="46.145293" lon="12.9823494"><ele>164.33333333333331</ele><time>2026-04-26T16:56:12.398Z</time></trkpt><trkpt lat="46.1452417" lon="12.98212"><ele>164.0</ele><time>2026-04-26T16:56:13.398Z</time></trkpt><trkpt lat="46.1451855" lon="12.9818849"><ele>164.33333333333331</ele><time>2026-04-26T16:56:14.398Z</time></trkpt><trkpt lat="46.1451255" lon="12.9816526"><ele>164.66666666666666</ele><time>2026-04-26T16:56:15.398Z</time></trkpt><trkpt lat="46.1450575" lon="12.9814219"><ele>165.0</ele><time>2026-04-26T16:56:16.397Z</time></trkpt><trkpt lat="46.144984" lon="12.9811952"><ele>165.0</ele><time>2026-04-26T16:56:17.398Z</time></trkpt><trkpt lat="46.1449061" lon="12.9809721"><ele>165.0</ele><time>2026-04-26T16:56:18.398Z</time></trkpt><trkpt lat="46.1448262" lon="12.9807519"><ele>165.0</ele><time>2026-04-26T16:56:19.398Z</time></trkpt><trkpt lat="46.1447434" lon="12.9805341"><ele>163.66666666666666</ele><time>2026-04-26T16:56:20.397Z</time></trkpt><trkpt lat="46.144658" lon="12.9803208"><ele>162.33333333333331</ele><time>2026-04-26T16:56:21.397Z</time></trkpt><trkpt lat="46.1445706" lon="12.9801101"><ele>161.0</ele><time>2026-04-26T16:56:22.399Z</time></trkpt><trkpt lat="46.1444776" lon="12.9799025"><ele>161.0</ele><time>2026-04-26T16:56:23.398Z</time></trkpt><trkpt lat="46.1443821" lon="12.9796985"><ele>161.0</ele><time>2026-04-26T16:56:24.398Z</time></trkpt><trkpt lat="46.144286" lon="12.979499"><ele>161.0</ele><time>2026-04-26T16:56:25.398Z</time></trkpt><trkpt lat="46.1441906" lon="12.9793044"><ele>160.66666666666666</ele><time>2026-04-26T16:56:26.398Z</time></trkpt><trkpt lat="46.1440982" lon="12.9791157"><ele>160.33333333333334</ele><time>2026-04-26T16:56:27.398Z</time></trkpt><trkpt lat="46.1440028" lon="12.9789284"><ele>160.0</ele><time>2026-04-26T16:56:28.398Z</time></trkpt><trkpt lat="46.1438995" lon="12.9787441"><ele>160.0</ele><time>2026-04-26T16:56:29.397Z</time></trkpt><trkpt lat="46.1437824" lon="12.97857"><ele>160.0</ele><time>2026-04-26T16:56:30.397Z</time></trkpt><trkpt lat="46.1436542" lon="12.9784093"><ele>160.0</ele><time>2026-04-26T16:56:31.397Z</time></trkpt><trkpt lat="46.1435175" lon="12.9782628"><ele>160.0</ele><time>2026-04-26T16:56:32.398Z</time></trkpt><trkpt lat="46.1433752" lon="12.978127"><ele>160.0</ele><time>2026-04-26T16:56:33.398Z</time></trkpt><trkpt lat="46.1432299" lon="12.9780018"><ele>160.0</ele><time>2026-04-26T16:56:34.397Z</time></trkpt><trkpt lat="46.1430836" lon="12.9778812"><ele>160.33333333333334</ele><time>2026-04-26T16:56:35.398Z</time></trkpt><trkpt lat="46.1429371" lon="12.9777638"><ele>160.66666666666666</ele><time>2026-04-26T16:56:36.398Z</time></trkpt><trkpt lat="46.142789" lon="12.9776497"><ele>161.0</ele><time>2026-04-26T16:56:37.397Z</time></trkpt><trkpt lat="46.1426413" lon="12.9775342"><ele>160.66666666666666</ele><time>2026-04-26T16:56:38.398Z</time></trkpt><trkpt lat="46.1424954" lon="12.9774141"><ele>160.33333333333334</ele><time>2026-04-26T16:56:39.399Z</time></trkpt><trkpt lat="46.1423544" lon="12.9772942"><ele>160.0</ele><time>2026-04-26T16:56:40.398Z</time></trkpt><trkpt lat="46.1422188" lon="12.977177"><ele>159.33333333333334</ele><time>2026-04-26T16:56:41.398Z</time></trkpt><trkpt lat="46.142086" lon="12.977061"><ele>158.66666666666666</ele><time>2026-04-26T16:56:42.398Z</time></trkpt><trkpt lat="46.1419518" lon="12.9769445"><ele>158.0</ele><time>2026-04-26T16:56:43.399Z</time></trkpt><trkpt lat="46.1418191" lon="12.9768308"><ele>158.0</ele><time>2026-04-26T16:56:44.398Z</time></trkpt><trkpt lat="46.1416914" lon="12.976725"><ele>158.0</ele><time>2026-04-26T16:56:45.398Z</time></trkpt><trkpt lat="46.141568" lon="12.9766213"><ele>158.0</ele><time>2026-04-26T16:56:46.398Z</time></trkpt><trkpt lat="46.1414422" lon="12.9765145"><ele>158.0</ele><time>2026-04-26T16:56:47.398Z</time></trkpt><trkpt lat="46.1413109" lon="12.9764111"><ele>158.33333333333331</ele><time>2026-04-26T16:56:48.397Z</time></trkpt><trkpt lat="46.1411779" lon="12.9763087"><ele>158.66666666666666</ele><time>2026-04-26T16:56:49.399Z</time></trkpt><trkpt lat="46.1410433" lon="12.9762068"><ele>159.0</ele><time>2026-04-26T16:56:50.398Z</time></trkpt><trkpt lat="46.140908" lon="12.9761035"><ele>159.0</ele><time>2026-04-26T16:56:51.397Z</time></trkpt><trkpt lat="46.1407752" lon="12.9759945"><ele>159.0</ele><time>2026-04-26T16:56:52.397Z</time></trkpt><trkpt lat="46.1406432" lon="12.9758747"><ele>159.0</ele><time>2026-04-26T16:56:53.399Z</time></trkpt><trkpt lat="46.1405096" lon="12.9757506"><ele>158.0</ele><time>2026-04-26T16:56:54.398Z</time></trkpt><trkpt lat="46.1403762" lon="12.9756206"><ele>157.0</ele><time>2026-04-26T16:56:55.398Z</time></trkpt><trkpt lat="46.1402396" lon="12.9754847"><ele>156.0</ele><time>2026-04-26T16:56:56.398Z</time></trkpt><trkpt lat="46.1401007" lon="12.9753455"><ele>156.0</ele><time>2026-04-26T16:56:57.397Z</time></trkpt><trkpt lat="46.13996" lon="12.9752083"><ele>156.0</ele><time>2026-04-26T16:56:58.399Z</time></trkpt><trkpt lat="46.1398162" lon="12.9750685"><ele>156.0</ele><time>2026-04-26T16:56:59.398Z</time></trkpt><trkpt lat="46.1396705" lon="12.9749243"><ele>156.0</ele><time>2026-04-26T16:57:00.398Z</time></trkpt><trkpt lat="46.1395248" lon="12.9747792"><ele>156.0</ele><time>2026-04-26T16:57:01.397Z</time></trkpt><trkpt lat="46.1393794" lon="12.9746337"><ele>156.0</ele><time>2026-04-26T16:57:02.398Z</time></trkpt><trkpt lat="46.1392343" lon="12.9744919"><ele>156.0</ele><time>2026-04-26T16:57:03.398Z</time></trkpt><trkpt lat="46.139093" lon="12.9743504"><ele>156.0</ele><time>2026-04-26T16:57:04.398Z</time></trkpt><trkpt lat="46.1389557" lon="12.9742116"><ele>156.0</ele><time>2026-04-26T16:57:05.399Z</time></trkpt><trkpt lat="46.1388246" lon="12.9740806"><ele>155.0</ele><time>2026-04-26T16:57:06.398Z</time></trkpt><trkpt lat="46.1386957" lon="12.9739548"><ele>154.0</ele><time>2026-04-26T16:57:07.397Z</time></trkpt><trkpt lat="46.1385671" lon="12.9738303"><ele>153.0</ele><time>2026-04-26T16:57:08.397Z</time></trkpt><trkpt lat="46.1384427" lon="12.9737114"><ele>153.0</ele><time>2026-04-26T16:57:09.398Z</time></trkpt><trkpt lat="46.138321" lon="12.9736033"><ele>153.0</ele><time>2026-04-26T16:57:10.398Z</time></trkpt><trkpt lat="46.1381945" lon="12.9735014"><ele>153.0</ele><time>2026-04-26T16:57:11.399Z</time></trkpt><trkpt lat="46.138067" lon="12.9734067"><ele>153.0</ele><time>2026-04-26T16:57:12.398Z</time></trkpt><trkpt lat="46.1379379" lon="12.9733165"><ele>153.5</ele><time>2026-04-26T16:57:13.398Z</time></trkpt><trkpt lat="46.1378043" lon="12.9732263"><ele>154.0</ele><time>2026-04-26T16:57:14.397Z</time></trkpt><trkpt lat="46.1376793" lon="12.9731465"><ele>154.5</ele><time>2026-04-26T16:57:15.398Z</time></trkpt><trkpt lat="46.1375941" lon="12.973089"><ele>155.0</ele><time>2026-04-26T16:57:16.398Z</time></trkpt><trkpt lat="46.1375324" lon="12.9730373"><ele>155.0</ele><time>2026-04-26T16:57:17.398Z</time></trkpt><trkpt lat="46.1374378" lon="12.9729194"><ele>155.0</ele><time>2026-04-26T16:57:19.398Z</time></trkpt><trkpt lat="46.1373767" lon="12.9728681"><ele>155.0</ele><time>2026-04-26T16:57:20.398Z</time></trkpt><trkpt lat="46.1373147" lon="12.9728245"><ele>155.0</ele><time>2026-04-26T16:57:21.398Z</time></trkpt><trkpt lat="46.1372566" lon="12.972784"><ele>155.0</ele><time>2026-04-26T16:57:22.399Z</time></trkpt><trkpt lat="46.1371629" lon="12.9727237"><ele>155.0</ele><time>2026-04-26T16:57:24.397Z</time></trkpt><trkpt lat="46.1370902" lon="12.9726805"><ele>155.0</ele><time>2026-04-26T16:57:26.397Z</time></trkpt><trkpt lat="46.1370299" lon="12.9726422"><ele>155.0</ele><time>2026-04-26T16:57:28.397Z</time></trkpt><trkpt lat="46.1369507" lon="12.9725906"><ele>155.0</ele><time>2026-04-26T16:57:31.398Z</time></trkpt><trkpt lat="46.1368846" lon="12.9725493"><ele>155.0</ele><time>2026-04-26T16:57:34.398Z</time></trkpt><trkpt lat="46.1368168" lon="12.9725148"><ele>155.0</ele><time>2026-04-26T16:57:38.399Z</time></trkpt><trkpt lat="46.1367601" lon="12.9724741"><ele>155.0</ele><time>2026-04-26T16:57:44.397Z</time></trkpt><trkpt lat="46.1366941" lon="12.9723737"><ele>155.2</ele><time>2026-04-26T16:57:53.398Z</time></trkpt><trkpt lat="46.1366839" lon="12.9722058"><ele>155.4</ele><time>2026-04-26T16:57:55.397Z</time></trkpt><trkpt lat="46.13669" lon="12.9720259"><ele>155.6</ele><time>2026-04-26T16:57:57.398Z</time></trkpt><trkpt lat="46.1366925" lon="12.9719207"><ele>155.8</ele><time>2026-04-26T16:57:58.397Z</time></trkpt><trkpt lat="46.1366927" lon="12.9718136"><ele>156.0</ele><time>2026-04-26T16:57:59.398Z</time></trkpt><trkpt lat="46.1366918" lon="12.9717065"><ele>155.8</ele><time>2026-04-26T16:58:00.398Z</time></trkpt><trkpt lat="46.1366919" lon="12.9716019"><ele>155.6</ele><time>2026-04-26T16:58:01.398Z</time></trkpt><trkpt lat="46.1366891" lon="12.971504"><ele>155.4</ele><time>2026-04-26T16:58:02.398Z</time></trkpt><trkpt lat="46.1366917" lon="12.9713296"><ele>155.2</ele><time>2026-04-26T16:58:04.399Z</time></trkpt><trkpt lat="46.1367177" lon="12.9711395"><ele>155.0</ele><time>2026-04-26T16:58:06.397Z</time></trkpt><trkpt lat="46.1367222" lon="12.971034"><ele>155.0</ele><time>2026-04-26T16:58:07.398Z</time></trkpt><trkpt lat="46.1367239" lon="12.9709278"><ele>155.0</ele><time>2026-04-26T16:58:08.398Z</time></trkpt><trkpt lat="46.1367234" lon="12.9708218"><ele>155.0</ele><time>2026-04-26T16:58:09.399Z</time></trkpt><trkpt lat="46.1367239" lon="12.9707182"><ele>155.0</ele><time>2026-04-26T16:58:10.398Z</time></trkpt><trkpt lat="46.1367249" lon="12.9706164"><ele>155.0</ele><time>2026-04-26T16:58:11.399Z</time></trkpt><trkpt lat="46.1367286" lon="12.9705178"><ele>155.0</ele><time>2026-04-26T16:58:12.398Z</time></trkpt><trkpt lat="46.1367293" lon="12.9704227"><ele>155.0</ele><time>2026-04-26T16:58:13.399Z</time></trkpt><trkpt lat="46.13673" lon="12.9703317"><ele>155.2</ele><time>2026-04-26T16:58:14.398Z</time></trkpt><trkpt lat="46.136732" lon="12.9701757"><ele>155.4</ele><time>2026-04-26T16:58:16.397Z</time></trkpt><trkpt lat="46.1367408" lon="12.9700824"><ele>155.6</ele><time>2026-04-26T16:58:18.399Z</time></trkpt><trkpt lat="46.1367429" lon="12.9699559"><ele>155.8</ele><time>2026-04-26T16:59:18.397Z</time></trkpt><trkpt lat="46.1367474" lon="12.969821"><ele>156.0</ele><time>2026-04-26T16:59:20.398Z</time></trkpt><trkpt lat="46.1367519" lon="12.9696392"><ele>156.0</ele><time>2026-04-26T16:59:22.397Z</time></trkpt><trkpt lat="46.1367531" lon="12.9695269"><ele>156.0</ele><time>2026-04-26T16:59:23.397Z</time></trkpt><trkpt lat="46.1367546" lon="12.9694034"><ele>156.0</ele><time>2026-04-26T16:59:24.398Z</time></trkpt><trkpt lat="46.1367578" lon="12.9692754"><ele>156.0</ele><time>2026-04-26T16:59:25.397Z</time></trkpt><trkpt lat="46.1367587" lon="12.9691419"><ele>156.0</ele><time>2026-04-26T16:59:26.397Z</time></trkpt><trkpt lat="46.1367595" lon="12.9690124"><ele>156.0</ele><time>2026-04-26T16:59:27.397Z</time></trkpt><trkpt lat="46.1367616" lon="12.9688725"><ele>155.8</ele><time>2026-04-26T16:59:28.398Z</time></trkpt><trkpt lat="46.136764" lon="12.9687318"><ele>155.6</ele><time>2026-04-26T16:59:29.398Z</time></trkpt><trkpt lat="46.1367662" lon="12.9685901"><ele>155.4</ele><time>2026-04-26T16:59:30.397Z</time></trkpt><trkpt lat="46.1367678" lon="12.9684491"><ele>155.2</ele><time>2026-04-26T16:59:31.398Z</time></trkpt><trkpt lat="46.1367699" lon="12.9683078"><ele>155.0</ele><time>2026-04-26T16:59:32.399Z</time></trkpt><trkpt lat="46.136773" lon="12.9681702"><ele>155.0</ele><time>2026-04-26T16:59:33.398Z</time></trkpt><trkpt lat="46.1367747" lon="12.9680368"><ele>155.0</ele><time>2026-04-26T16:59:34.398Z</time></trkpt><trkpt lat="46.1367768" lon="12.9679076"><ele>155.0</ele><time>2026-04-26T16:59:35.397Z</time></trkpt><trkpt lat="46.1367804" lon="12.9677813"><ele>155.0</ele><time>2026-04-26T16:59:36.399Z</time></trkpt><trkpt lat="46.1367838" lon="12.9676581"><ele>155.0</ele><time>2026-04-26T16:59:37.398Z</time></trkpt><trkpt lat="46.136785" lon="12.9675412"><ele>155.0</ele><time>2026-04-26T16:59:38.398Z</time></trkpt><trkpt lat="46.136788" lon="12.9674377"><ele>155.0</ele><time>2026-04-26T16:59:39.398Z</time></trkpt><trkpt lat="46.1367926" lon="12.9672772"><ele>155.0</ele><time>2026-04-26T16:59:41.398Z</time></trkpt><trkpt lat="46.1367948" lon="12.9671714"><ele>155.0</ele><time>2026-04-26T16:59:43.398Z</time></trkpt><trkpt lat="46.136778" lon="12.9670788"><ele>155.0</ele><time>2026-04-26T16:59:47.398Z</time></trkpt><trkpt lat="46.1367114" lon="12.9670686"><ele>155.0</ele><time>2026-04-26T16:59:51.397Z</time></trkpt><trkpt lat="46.136628" lon="12.9670817"><ele>155.0</ele><time>2026-04-26T16:59:54.398Z</time></trkpt><trkpt lat="46.1365509" lon="12.9671023"><ele>155.0</ele><time>2026-04-26T16:59:56.397Z</time></trkpt><trkpt lat="46.1364531" lon="12.9671227"><ele>155.0</ele><time>2026-04-26T16:59:58.398Z</time></trkpt><trkpt lat="46.1363405" lon="12.9671425"><ele>155.0</ele><time>2026-04-26T17:00:00.397Z</time></trkpt><trkpt lat="46.1362742" lon="12.9671546"><ele>155.0</ele><time>2026-04-26T17:00:01.397Z</time></trkpt><trkpt lat="46.136204" lon="12.9671651"><ele>155.0</ele><time>2026-04-26T17:00:02.399Z</time></trkpt><trkpt lat="46.1361355" lon="12.9671744"><ele>155.0</ele><time>2026-04-26T17:00:03.398Z</time></trkpt><trkpt lat="46.1360703" lon="12.967185"><ele>155.0</ele><time>2026-04-26T17:00:04.398Z</time></trkpt><trkpt lat="46.1359533" lon="12.9671989"><ele>155.0</ele><time>2026-04-26T17:00:06.398Z</time></trkpt><trkpt lat="46.1358359" lon="12.9672191"><ele>155.0</ele><time>2026-04-26T17:00:08.398Z</time></trkpt><trkpt lat="46.1357211" lon="12.9672409"><ele>155.0</ele><time>2026-04-26T17:00:10.398Z</time></trkpt><trkpt lat="46.1356241" lon="12.9672605"><ele>155.0</ele><time>2026-04-26T17:00:12.398Z</time></trkpt><trkpt lat="46.1355454" lon="12.9673118"><ele>155.0</ele><time>2026-04-26T17:00:14.398Z</time></trkpt><trkpt lat="46.1354877" lon="12.9674192"><ele>155.0</ele><time>2026-04-26T17:00:16.397Z</time></trkpt><trkpt lat="46.1354331" lon="12.967566"><ele>155.0</ele><time>2026-04-26T17:00:18.397Z</time></trkpt><trkpt lat="46.1353678" lon="12.9677036"><ele>155.0</ele><time>2026-04-26T17:00:20.398Z</time></trkpt><trkpt lat="46.1353029" lon="12.9678052"><ele>155.0</ele><time>2026-04-26T17:00:22.397Z</time></trkpt><trkpt lat="46.1352385" lon="12.9678559"><ele>155.0</ele><time>2026-04-26T17:00:25.399Z</time></trkpt><trkpt lat="46.1351906" lon="12.9677527"><ele>155.0</ele><time>2026-04-26T17:00:29.399Z</time></trkpt><trkpt lat="46.1351731" lon="12.9675946"><ele>155.0</ele><time>2026-04-26T17:00:31.398Z</time></trkpt><trkpt lat="46.1351635" lon="12.9674928"><ele>155.0</ele><time>2026-04-26T17:00:32.398Z</time></trkpt><trkpt lat="46.1351503" lon="12.9673799"><ele>155.0</ele><time>2026-04-26T17:00:33.397Z</time></trkpt><trkpt lat="46.1351343" lon="12.9672517"><ele>155.0</ele><time>2026-04-26T17:00:34.399Z</time></trkpt><trkpt lat="46.1351167" lon="12.9671212"><ele>154.83333333333331</ele><time>2026-04-26T17:00:35.397Z</time></trkpt><trkpt lat="46.1351013" lon="12.9669917"><ele>154.66666666666666</ele><time>2026-04-26T17:00:36.397Z</time></trkpt><trkpt lat="46.1350876" lon="12.9668639"><ele>154.5</ele><time>2026-04-26T17:00:37.397Z</time></trkpt><trkpt lat="46.1350704" lon="12.9667387"><ele>154.33333333333334</ele><time>2026-04-26T17:00:38.398Z</time></trkpt><trkpt lat="46.1350526" lon="12.966613"><ele>154.16666666666669</ele><time>2026-04-26T17:00:39.399Z</time></trkpt><trkpt lat="46.1350349" lon="12.9664845"><ele>154.0</ele><time>2026-04-26T17:00:40.397Z</time></trkpt><trkpt lat="46.1350171" lon="12.9663523"><ele>154.0</ele><time>2026-04-26T17:00:41.398Z</time></trkpt><trkpt lat="46.1349976" lon="12.966217"><ele>154.0</ele><time>2026-04-26T17:00:42.398Z</time></trkpt><trkpt lat="46.1349752" lon="12.9660825"><ele>154.0</ele><time>2026-04-26T17:00:43.398Z</time></trkpt><trkpt lat="46.1349501" lon="12.9659498"><ele>154.0</ele><time>2026-04-26T17:00:44.397Z</time></trkpt><trkpt lat="46.1349209" lon="12.9658175"><ele>154.0</ele><time>2026-04-26T17:00:45.398Z</time></trkpt><trkpt lat="46.1348877" lon="12.9656867"><ele>154.2</ele><time>2026-04-26T17:00:46.398Z</time></trkpt><trkpt lat="46.1348507" lon="12.9655594"><ele>154.4</ele><time>2026-04-26T17:00:47.398Z</time></trkpt><trkpt lat="46.1348094" lon="12.9654325"><ele>154.6</ele><time>2026-04-26T17:00:48.398Z</time></trkpt><trkpt lat="46.1347663" lon="12.9653051"><ele>154.8</ele><time>2026-04-26T17:00:49.399Z</time></trkpt><trkpt lat="46.1347221" lon="12.9651764"><ele>155.0</ele><time>2026-04-26T17:00:50.398Z</time></trkpt><trkpt lat="46.1346783" lon="12.965049"><ele>154.8</ele><time>2026-04-26T17:00:51.397Z</time></trkpt><trkpt lat="46.1346381" lon="12.9649225"><ele>154.6</ele><time>2026-04-26T17:00:52.398Z</time></trkpt><trkpt lat="46.1346002" lon="12.9647989"><ele>154.4</ele><time>2026-04-26T17:00:53.399Z</time></trkpt><trkpt lat="46.1345617" lon="12.9646713"><ele>154.2</ele><time>2026-04-26T17:00:54.399Z</time></trkpt><trkpt lat="46.1345224" lon="12.9645433"><ele>154.0</ele><time>2026-04-26T17:00:55.398Z</time></trkpt><trkpt lat="46.1344809" lon="12.964413"><ele>154.0</ele><time>2026-04-26T17:00:56.397Z</time></trkpt><trkpt lat="46.1344396" lon="12.9642861"><ele>154.0</ele><time>2026-04-26T17:00:57.398Z</time></trkpt><trkpt lat="46.1344004" lon="12.9641639"><ele>154.0</ele><time>2026-04-26T17:00:58.398Z</time></trkpt><trkpt lat="46.134364" lon="12.9640459"><ele>154.0</ele><time>2026-04-26T17:00:59.398Z</time></trkpt><trkpt lat="46.1343326" lon="12.9639267"><ele>154.0</ele><time>2026-04-26T17:01:00.398Z</time></trkpt><trkpt lat="46.1343114" lon="12.963809"><ele>154.0</ele><time>2026-04-26T17:01:01.399Z</time></trkpt><trkpt lat="46.1342996" lon="12.9636889"><ele>154.0</ele><time>2026-04-26T17:01:02.399Z</time></trkpt><trkpt lat="46.134291" lon="12.9635697"><ele>154.0</ele><time>2026-04-26T17:01:03.398Z</time></trkpt><trkpt lat="46.1342849" lon="12.963452"><ele>154.0</ele><time>2026-04-26T17:01:04.397Z</time></trkpt><trkpt lat="46.1342787" lon="12.9633368"><ele>154.0</ele><time>2026-04-26T17:01:05.398Z</time></trkpt><trkpt lat="46.1342744" lon="12.9632338"><ele>154.0</ele><time>2026-04-26T17:01:06.397Z</time></trkpt><trkpt lat="46.1342703" lon="12.9630773"><ele>153.83333333333334</ele><time>2026-04-26T17:01:08.398Z</time></trkpt><trkpt lat="46.1342579" lon="12.9629666"><ele>153.66666666666669</ele><time>2026-04-26T17:01:11.398Z</time></trkpt><trkpt lat="46.1341864" lon="12.9629365"><ele>153.5</ele><time>2026-04-26T17:01:14.398Z</time></trkpt><trkpt lat="46.1340923" lon="12.9629733"><ele>153.33333333333334</ele><time>2026-04-26T17:01:16.397Z</time></trkpt><trkpt lat="46.1339786" lon="12.9630089"><ele>153.16666666666666</ele><time>2026-04-26T17:01:18.397Z</time></trkpt><trkpt lat="46.1339165" lon="12.9630353"><ele>153.0</ele><time>2026-04-26T17:01:19.398Z</time></trkpt><trkpt lat="46.1338548" lon="12.9630613"><ele>152.83333333333334</ele><time>2026-04-26T17:01:20.397Z</time></trkpt><trkpt lat="46.1337527" lon="12.9631124"><ele>152.66666666666666</ele><time>2026-04-26T17:01:22.398Z</time></trkpt><trkpt lat="46.1336764" lon="12.9631151"><ele>152.5</ele><time>2026-04-26T17:01:24.397Z</time></trkpt><trkpt lat="46.133623" lon="12.9630486"><ele>152.33333333333331</ele><time>2026-04-26T17:01:27.398Z</time></trkpt><trkpt lat="46.1336001" lon="12.9629283"><ele>152.16666666666666</ele><time>2026-04-26T17:01:29.396Z</time></trkpt><trkpt lat="46.1335942" lon="12.9628361"><ele>152.0</ele><time>2026-04-26T17:01:30.396Z</time></trkpt><trkpt lat="46.1335868" lon="12.9627362"><ele>152.0</ele><time>2026-04-26T17:01:31.396Z</time></trkpt><trkpt lat="46.1335791" lon="12.9626374"><ele>152.0</ele><time>2026-04-26T17:01:32.397Z</time></trkpt><trkpt lat="46.1335715" lon="12.9625399"><ele>152.0</ele><time>2026-04-26T17:01:33.397Z</time></trkpt><trkpt lat="46.1335642" lon="12.9624399"><ele>152.0</ele><time>2026-04-26T17:01:34.397Z</time></trkpt><trkpt lat="46.1335528" lon="12.9623316"><ele>152.0</ele><time>2026-04-26T17:01:35.397Z</time></trkpt><trkpt lat="46.1335394" lon="12.9622068"><ele>152.0</ele><time>2026-04-26T17:01:36.397Z</time></trkpt><trkpt lat="46.1335235" lon="12.9620789"><ele>152.0</ele><time>2026-04-26T17:01:37.398Z</time></trkpt><trkpt lat="46.1335086" lon="12.9619489"><ele>152.0</ele><time>2026-04-26T17:01:38.397Z</time></trkpt><trkpt lat="46.1334949" lon="12.9618069"><ele>152.0</ele><time>2026-04-26T17:01:39.397Z</time></trkpt><trkpt lat="46.1334837" lon="12.9616717"><ele>152.0</ele><time>2026-04-26T17:01:40.397Z</time></trkpt><trkpt lat="46.1334734" lon="12.9615407"><ele>152.0</ele><time>2026-04-26T17:01:41.396Z</time></trkpt><trkpt lat="46.1334648" lon="12.9614089"><ele>152.16666666666666</ele><time>2026-04-26T17:01:42.397Z</time></trkpt><trkpt lat="46.1334573" lon="12.9612851"><ele>152.33333333333331</ele><time>2026-04-26T17:01:43.397Z</time></trkpt><trkpt lat="46.1334499" lon="12.9611646"><ele>152.5</ele><time>2026-04-26T17:01:44.396Z</time></trkpt><trkpt lat="46.1334431" lon="12.9610448"><ele>152.66666666666666</ele><time>2026-04-26T17:01:45.397Z</time></trkpt><trkpt lat="46.1334386" lon="12.9609227"><ele>152.83333333333334</ele><time>2026-04-26T17:01:46.398Z</time></trkpt><trkpt lat="46.133435" lon="12.960794"><ele>153.0</ele><time>2026-04-26T17:01:47.397Z</time></trkpt><trkpt lat="46.1334321" lon="12.9606543"><ele>153.0</ele><time>2026-04-26T17:01:48.396Z</time></trkpt><trkpt lat="46.1334306" lon="12.9605088"><ele>153.0</ele><time>2026-04-26T17:01:49.396Z</time></trkpt><trkpt lat="46.13343" lon="12.9603575"><ele>153.0</ele><time>2026-04-26T17:01:50.397Z</time></trkpt><trkpt lat="46.1334294" lon="12.9602092"><ele>153.0</ele><time>2026-04-26T17:01:51.398Z</time></trkpt><trkpt lat="46.1334267" lon="12.9600593"><ele>153.0</ele><time>2026-04-26T17:01:52.397Z</time></trkpt><trkpt lat="46.1334238" lon="12.9599128"><ele>153.0</ele><time>2026-04-26T17:01:53.396Z</time></trkpt><trkpt lat="46.1334213" lon="12.9597759"><ele>153.0</ele><time>2026-04-26T17:01:54.397Z</time></trkpt><trkpt lat="46.1334174" lon="12.9596421"><ele>153.0</ele><time>2026-04-26T17:01:55.397Z</time></trkpt><trkpt lat="46.133413" lon="12.9595065"><ele>153.0</ele><time>2026-04-26T17:01:56.396Z</time></trkpt><trkpt lat="46.1334138" lon="12.9593688"><ele>153.0</ele><time>2026-04-26T17:01:57.396Z</time></trkpt><trkpt lat="46.1334208" lon="12.9592344"><ele>152.83333333333334</ele><time>2026-04-26T17:01:58.397Z</time></trkpt><trkpt lat="46.1334337" lon="12.9591079"><ele>152.66666666666666</ele><time>2026-04-26T17:01:59.397Z</time></trkpt><trkpt lat="46.133455" lon="12.9589892"><ele>152.5</ele><time>2026-04-26T17:02:00.397Z</time></trkpt><trkpt lat="46.133482" lon="12.9588752"><ele>152.33333333333331</ele><time>2026-04-26T17:02:01.397Z</time></trkpt><trkpt lat="46.1335182" lon="12.9587618"><ele>152.16666666666666</ele><time>2026-04-26T17:02:02.397Z</time></trkpt><trkpt lat="46.133558" lon="12.9586592"><ele>152.0</ele><time>2026-04-26T17:02:03.398Z</time></trkpt><trkpt lat="46.1336043" lon="12.9585561"><ele>152.0</ele><time>2026-04-26T17:02:04.397Z</time></trkpt><trkpt lat="46.1336564" lon="12.9584635"><ele>152.0</ele><time>2026-04-26T17:02:05.397Z</time></trkpt><trkpt lat="46.1337113" lon="12.9583783"><ele>152.0</ele><time>2026-04-26T17:02:06.398Z</time></trkpt><trkpt lat="46.1337659" lon="12.958296"><ele>152.0</ele><time>2026-04-26T17:02:07.396Z</time></trkpt><trkpt lat="46.1338162" lon="12.9582105"><ele>152.0</ele><time>2026-04-26T17:02:08.397Z</time></trkpt><trkpt lat="46.1338612" lon="12.9581188"><ele>152.0</ele><time>2026-04-26T17:02:09.397Z</time></trkpt><trkpt lat="46.1339027" lon="12.9580246"><ele>151.6</ele><time>2026-04-26T17:02:10.397Z</time></trkpt><trkpt lat="46.1339422" lon="12.9579278"><ele>151.2</ele><time>2026-04-26T17:02:11.397Z</time></trkpt><trkpt lat="46.1339838" lon="12.9578195"><ele>150.8</ele><time>2026-04-26T17:02:12.398Z</time></trkpt><trkpt lat="46.1340238" lon="12.9576969"><ele>150.4</ele><time>2026-04-26T17:02:13.397Z</time></trkpt><trkpt lat="46.134064" lon="12.957564"><ele>150.0</ele><time>2026-04-26T17:02:14.396Z</time></trkpt><trkpt lat="46.1341008" lon="12.9574278"><ele>149.2</ele><time>2026-04-26T17:02:15.397Z</time></trkpt><trkpt lat="46.1341425" lon="12.9572894"><ele>148.4</ele><time>2026-04-26T17:02:16.397Z</time></trkpt><trkpt lat="46.1341904" lon="12.9571495"><ele>147.6</ele><time>2026-04-26T17:02:17.397Z</time></trkpt><trkpt lat="46.1342464" lon="12.9570144"><ele>146.8</ele><time>2026-04-26T17:02:18.397Z</time></trkpt><trkpt lat="46.1343064" lon="12.9568813"><ele>146.0</ele><time>2026-04-26T17:02:19.396Z</time></trkpt><trkpt lat="46.1343744" lon="12.9567535"><ele>145.8</ele><time>2026-04-26T17:02:20.397Z</time></trkpt><trkpt lat="46.1344412" lon="12.956632"><ele>145.6</ele><time>2026-04-26T17:02:21.397Z</time></trkpt><trkpt lat="46.1345121" lon="12.956512"><ele>145.4</ele><time>2026-04-26T17:02:22.397Z</time></trkpt><trkpt lat="46.1345876" lon="12.9564011"><ele>145.2</ele><time>2026-04-26T17:02:23.398Z</time></trkpt><trkpt lat="46.1346626" lon="12.956293"><ele>145.0</ele><time>2026-04-26T17:02:24.397Z</time></trkpt><trkpt lat="46.1347356" lon="12.9561858"><ele>145.0</ele><time>2026-04-26T17:02:25.397Z</time></trkpt><trkpt lat="46.1348036" lon="12.9560773"><ele>145.0</ele><time>2026-04-26T17:02:26.396Z</time></trkpt><trkpt lat="46.1348708" lon="12.955966"><ele>145.0</ele><time>2026-04-26T17:02:27.397Z</time></trkpt><trkpt lat="46.134936" lon="12.9558593"><ele>145.0</ele><time>2026-04-26T17:02:28.396Z</time></trkpt><trkpt lat="46.1350015" lon="12.9557596"><ele>145.0</ele><time>2026-04-26T17:02:29.398Z</time></trkpt><trkpt lat="46.1350692" lon="12.9556668"><ele>142.4</ele><time>2026-04-26T17:02:30.396Z</time></trkpt><trkpt lat="46.1351418" lon="12.9555826"><ele>139.8</ele><time>2026-04-26T17:02:31.397Z</time></trkpt><trkpt lat="46.1352209" lon="12.9555075"><ele>137.2</ele><time>2026-04-26T17:02:32.397Z</time></trkpt><trkpt lat="46.135307" lon="12.9554347"><ele>134.6</ele><time>2026-04-26T17:02:33.398Z</time></trkpt><trkpt lat="46.1353947" lon="12.9553623"><ele>132.0</ele><time>2026-04-26T17:02:34.398Z</time></trkpt><trkpt lat="46.1354899" lon="12.9552835"><ele>132.0</ele><time>2026-04-26T17:02:35.397Z</time></trkpt><trkpt lat="46.1355771" lon="12.9552123"><ele>132.0</ele><time>2026-04-26T17:02:36.397Z</time></trkpt><trkpt lat="46.1356598" lon="12.9551411"><ele>132.0</ele><time>2026-04-26T17:02:37.396Z</time></trkpt><trkpt lat="46.1357364" lon="12.9550605"><ele>132.0</ele><time>2026-04-26T17:02:38.397Z</time></trkpt><trkpt lat="46.1358052" lon="12.9549608"><ele>132.0</ele><time>2026-04-26T17:02:39.397Z</time></trkpt><trkpt lat="46.135864" lon="12.9548489"><ele>130.79999999999998</ele><time>2026-04-26T17:02:40.396Z</time></trkpt><trkpt lat="46.1359148" lon="12.9547276"><ele>129.6</ele><time>2026-04-26T17:02:41.397Z</time></trkpt><trkpt lat="46.1359563" lon="12.9545924"><ele>128.39999999999998</ele><time>2026-04-26T17:02:42.397Z</time></trkpt><trkpt lat="46.1359899" lon="12.9544548"><ele>127.19999999999999</ele><time>2026-04-26T17:02:43.397Z</time></trkpt><trkpt lat="46.136016" lon="12.9543196"><ele>126.0</ele><time>2026-04-26T17:02:44.397Z</time></trkpt><trkpt lat="46.1360432" lon="12.9541884"><ele>125.33333333333333</ele><time>2026-04-26T17:02:45.398Z</time></trkpt><trkpt lat="46.1360657" lon="12.954065"><ele>124.66666666666666</ele><time>2026-04-26T17:02:46.397Z</time></trkpt><trkpt lat="46.1360867" lon="12.9539418"><ele>124.0</ele><time>2026-04-26T17:02:47.397Z</time></trkpt><trkpt lat="46.1361064" lon="12.9538268"><ele>123.33333333333333</ele><time>2026-04-26T17:02:48.397Z</time></trkpt><trkpt lat="46.1361255" lon="12.9537153"><ele>122.66666666666666</ele><time>2026-04-26T17:02:49.398Z</time></trkpt><trkpt lat="46.1361415" lon="12.9536087"><ele>122.0</ele><time>2026-04-26T17:02:50.397Z</time></trkpt><trkpt lat="46.1361533" lon="12.9535072"><ele>121.99999999999999</ele><time>2026-04-26T17:02:51.397Z</time></trkpt><trkpt lat="46.1361636" lon="12.9534112"><ele>122.0</ele><time>2026-04-26T17:02:52.398Z</time></trkpt><trkpt lat="46.1361716" lon="12.9533163"><ele>122.0</ele><time>2026-04-26T17:02:53.396Z</time></trkpt><trkpt lat="46.136186" lon="12.9531499"><ele>122.0</ele><time>2026-04-26T17:02:55.397Z</time></trkpt><trkpt lat="46.1361962" lon="12.9530122"><ele>121.99999999999999</ele><time>2026-04-26T17:02:57.397Z</time></trkpt><trkpt lat="46.1361988" lon="12.9528954"><ele>122.0</ele><time>2026-04-26T17:02:59.398Z</time></trkpt><trkpt lat="46.1361975" lon="12.9527875"><ele>121.19999999999999</ele><time>2026-04-26T17:03:01.396Z</time></trkpt><trkpt lat="46.1361898" lon="12.9526732"><ele>120.39999999999999</ele><time>2026-04-26T17:03:03.397Z</time></trkpt><trkpt lat="46.1361849" lon="12.9525264"><ele>119.60000000000001</ele><time>2026-04-26T17:03:05.397Z</time></trkpt><trkpt lat="46.1361782" lon="12.9523671"><ele>118.80000000000001</ele><time>2026-04-26T17:03:07.397Z</time></trkpt><trkpt lat="46.1361745" lon="12.9522252"><ele>118.0</ele><time>2026-04-26T17:03:09.397Z</time></trkpt><trkpt lat="46.1361702" lon="12.9520844"><ele>117.80000000000001</ele><time>2026-04-26T17:03:11.397Z</time></trkpt><trkpt lat="46.1361819" lon="12.9519466"><ele>117.60000000000001</ele><time>2026-04-26T17:03:13.397Z</time></trkpt><trkpt lat="46.1361978" lon="12.9517962"><ele>117.39999999999999</ele><time>2026-04-26T17:03:15.397Z</time></trkpt><trkpt lat="46.136218" lon="12.9516224"><ele>117.19999999999999</ele><time>2026-04-26T17:03:17.397Z</time></trkpt><trkpt lat="46.1362538" lon="12.9514579"><ele>117.0</ele><time>2026-04-26T17:03:19.396Z</time></trkpt><trkpt lat="46.1363083" lon="12.9513073"><ele>117.0</ele><time>2026-04-26T17:03:21.397Z</time></trkpt><trkpt lat="46.1363837" lon="12.9511977"><ele>117.0</ele><time>2026-04-26T17:03:23.397Z</time></trkpt><trkpt lat="46.1364818" lon="12.9511069"><ele>117.0</ele><time>2026-04-26T17:03:25.398Z</time></trkpt><trkpt lat="46.1365962" lon="12.9510574"><ele>117.0</ele><time>2026-04-26T17:03:27.397Z</time></trkpt><trkpt lat="46.1367163" lon="12.951025"><ele>117.0</ele><time>2026-04-26T17:03:29.396Z</time></trkpt><trkpt lat="46.136836" lon="12.9509899"><ele>117.0</ele><time>2026-04-26T17:03:31.397Z</time></trkpt><trkpt lat="46.1369012" lon="12.9509669"><ele>117.0</ele><time>2026-04-26T17:03:32.397Z</time></trkpt><trkpt lat="46.136966" lon="12.9509448"><ele>117.0</ele><time>2026-04-26T17:03:33.397Z</time></trkpt><trkpt lat="46.1370272" lon="12.9509196"><ele>117.0</ele><time>2026-04-26T17:03:34.398Z</time></trkpt><trkpt lat="46.1370872" lon="12.9508865"><ele>117.0</ele><time>2026-04-26T17:03:35.396Z</time></trkpt><trkpt lat="46.1371512" lon="12.9508513"><ele>117.14285714285715</ele><time>2026-04-26T17:03:36.397Z</time></trkpt><trkpt lat="46.1372152" lon="12.9508092"><ele>117.2857142857143</ele><time>2026-04-26T17:03:37.397Z</time></trkpt><trkpt lat="46.1372753" lon="12.9507653"><ele>117.42857142857143</ele><time>2026-04-26T17:03:38.397Z</time></trkpt><trkpt lat="46.1373376" lon="12.9507207"><ele>117.57142857142858</ele><time>2026-04-26T17:03:39.397Z</time></trkpt><trkpt lat="46.137399" lon="12.9506832"><ele>117.71428571428572</ele><time>2026-04-26T17:03:40.396Z</time></trkpt><trkpt lat="46.1374587" lon="12.9506489"><ele>117.85714285714286</ele><time>2026-04-26T17:03:41.397Z</time></trkpt><trkpt lat="46.1375206" lon="12.9506178"><ele>118.0</ele><time>2026-04-26T17:03:42.397Z</time></trkpt><trkpt lat="46.1375839" lon="12.9505895"><ele>118.0</ele><time>2026-04-26T17:03:43.397Z</time></trkpt><trkpt lat="46.1376478" lon="12.9505649"><ele>118.0</ele><time>2026-04-26T17:03:44.396Z</time></trkpt><trkpt lat="46.1377191" lon="12.9505356"><ele>118.0</ele><time>2026-04-26T17:03:45.397Z</time></trkpt><trkpt lat="46.1377903" lon="12.950502"><ele>118.0</ele><time>2026-04-26T17:03:46.397Z</time></trkpt><trkpt lat="46.1378604" lon="12.950468"><ele>118.0</ele><time>2026-04-26T17:03:47.397Z</time></trkpt><trkpt lat="46.1379283" lon="12.9504336"><ele>118.0</ele><time>2026-04-26T17:03:48.396Z</time></trkpt><trkpt lat="46.1379914" lon="12.9503997"><ele>118.0</ele><time>2026-04-26T17:03:49.396Z</time></trkpt><trkpt lat="46.1380497" lon="12.9503636"><ele>118.0</ele><time>2026-04-26T17:03:50.397Z</time></trkpt><trkpt lat="46.1381622" lon="12.9502956"><ele>118.0</ele><time>2026-04-26T17:03:52.397Z</time></trkpt><trkpt lat="46.1382719" lon="12.950227"><ele>118.0</ele><time>2026-04-26T17:03:54.396Z</time></trkpt><trkpt lat="46.1383789" lon="12.9501546"><ele>118.0</ele><time>2026-04-26T17:03:56.397Z</time></trkpt><trkpt lat="46.1384806" lon="12.9500873"><ele>117.83333333333334</ele><time>2026-04-26T17:03:58.397Z</time></trkpt><trkpt lat="46.138576" lon="12.9500628"><ele>117.66666666666667</ele><time>2026-04-26T17:04:00.397Z</time></trkpt><trkpt lat="46.1386702" lon="12.9500717"><ele>117.5</ele><time>2026-04-26T17:04:02.397Z</time></trkpt><trkpt lat="46.1387532" lon="12.9500895"><ele>117.33333333333334</ele><time>2026-04-26T17:04:04.398Z</time></trkpt><trkpt lat="46.1388222" lon="12.9501034"><ele>117.16666666666667</ele><time>2026-04-26T17:04:06.397Z</time></trkpt><trkpt lat="46.1389049" lon="12.9501089"><ele>117.0</ele><time>2026-04-26T17:04:09.398Z</time></trkpt><trkpt lat="46.138969" lon="12.9500358"><ele>117.16666666666667</ele><time>2026-04-26T17:04:40.397Z</time></trkpt><trkpt lat="46.1389727" lon="12.9499103"><ele>117.33333333333334</ele><time>2026-04-26T17:04:42.396Z</time></trkpt><trkpt lat="46.1389968" lon="12.949795"><ele>117.5</ele><time>2026-04-26T17:04:44.396Z</time></trkpt><trkpt lat="46.1390757" lon="12.9497033"><ele>117.66666666666667</ele><time>2026-04-26T17:04:46.396Z</time></trkpt><trkpt lat="46.1391562" lon="12.9496493"><ele>117.83333333333334</ele><time>2026-04-26T17:04:47.396Z</time></trkpt><trkpt lat="46.1392285" lon="12.949609"><ele>118.0</ele><time>2026-04-26T17:04:48.397Z</time></trkpt><trkpt lat="46.1393051" lon="12.949576"><ele>118.0</ele><time>2026-04-26T17:04:49.398Z</time></trkpt><trkpt lat="46.1393893" lon="12.9495498"><ele>118.00000000000001</ele><time>2026-04-26T17:04:50.396Z</time></trkpt><trkpt lat="46.1394649" lon="12.9495311"><ele>118.00000000000001</ele><time>2026-04-26T17:04:51.398Z</time></trkpt><trkpt lat="46.139549" lon="12.9495019"><ele>118.0</ele><time>2026-04-26T17:04:52.396Z</time></trkpt><trkpt lat="46.1396543" lon="12.949466"><ele>118.0</ele><time>2026-04-26T17:04:53.397Z</time></trkpt><trkpt lat="46.1397499" lon="12.9494428"><ele>118.0</ele><time>2026-04-26T17:04:54.397Z</time></trkpt><trkpt lat="46.1398385" lon="12.9494235"><ele>118.00000000000001</ele><time>2026-04-26T17:04:55.397Z</time></trkpt><trkpt lat="46.1399325" lon="12.9494101"><ele>118.00000000000001</ele><time>2026-04-26T17:04:56.398Z</time></trkpt><trkpt lat="46.1400271" lon="12.9494065"><ele>118.0</ele><time>2026-04-26T17:04:57.396Z</time></trkpt><trkpt lat="46.1401434" lon="12.9494092"><ele>118.0</ele><time>2026-04-26T17:04:58.398Z</time></trkpt><trkpt lat="46.1402742" lon="12.9494138"><ele>118.2</ele><time>2026-04-26T17:04:59.397Z</time></trkpt><trkpt lat="46.1403932" lon="12.9494198"><ele>118.4</ele><time>2026-04-26T17:05:00.397Z</time></trkpt><trkpt lat="46.1405042" lon="12.9494252"><ele>118.60000000000001</ele><time>2026-04-26T17:05:01.398Z</time></trkpt><trkpt lat="46.1405965" lon="12.9494276"><ele>118.80000000000001</ele><time>2026-04-26T17:05:02.397Z</time></trkpt><trkpt lat="46.1406846" lon="12.9494333"><ele>119.0</ele><time>2026-04-26T17:05:03.397Z</time></trkpt><trkpt lat="46.1407943" lon="12.9494346"><ele>119.66666666666666</ele><time>2026-04-26T17:05:04.397Z</time></trkpt><trkpt lat="46.140885" lon="12.9494371"><ele>120.33333333333333</ele><time>2026-04-26T17:05:05.396Z</time></trkpt><trkpt lat="46.1409715" lon="12.9494409"><ele>121.0</ele><time>2026-04-26T17:05:06.397Z</time></trkpt><trkpt lat="46.1410522" lon="12.9494482"><ele>121.66666666666666</ele><time>2026-04-26T17:05:07.396Z</time></trkpt><trkpt lat="46.1411322" lon="12.9494594"><ele>122.33333333333333</ele><time>2026-04-26T17:05:08.397Z</time></trkpt><trkpt lat="46.1412046" lon="12.9494742"><ele>123.0</ele><time>2026-04-26T17:05:09.397Z</time></trkpt><trkpt lat="46.1413223" lon="12.9495139"><ele>123.0</ele><time>2026-04-26T17:05:11.397Z</time></trkpt><trkpt lat="46.1414349" lon="12.94959"><ele>123.00000000000001</ele><time>2026-04-26T17:05:13.398Z</time></trkpt><trkpt lat="46.141543" lon="12.9497075"><ele>123.00000000000001</ele><time>2026-04-26T17:05:15.397Z</time></trkpt><trkpt lat="46.1415963" lon="12.9497779"><ele>123.0</ele><time>2026-04-26T17:05:16.397Z</time></trkpt><trkpt lat="46.1416498" lon="12.949838"><ele>123.0</ele><time>2026-04-26T17:05:17.397Z</time></trkpt><trkpt lat="46.1417044" lon="12.9498915"><ele>122.83333333333333</ele><time>2026-04-26T17:05:18.397Z</time></trkpt><trkpt lat="46.1417627" lon="12.9499513"><ele>122.66666666666666</ele><time>2026-04-26T17:05:19.397Z</time></trkpt><trkpt lat="46.141827" lon="12.9500102"><ele>122.5</ele><time>2026-04-26T17:05:20.396Z</time></trkpt><trkpt lat="46.1418828" lon="12.9500662"><ele>122.33333333333333</ele><time>2026-04-26T17:05:21.396Z</time></trkpt><trkpt lat="46.1419375" lon="12.9501185"><ele>122.16666666666666</ele><time>2026-04-26T17:05:22.398Z</time></trkpt><trkpt lat="46.1420402" lon="12.9501795"><ele>122.0</ele><time>2026-04-26T17:05:24.397Z</time></trkpt><trkpt lat="46.1421324" lon="12.9502155"><ele>121.99999999999999</ele><time>2026-04-26T17:05:26.397Z</time></trkpt><trkpt lat="46.1422185" lon="12.95023"><ele>122.0</ele><time>2026-04-26T17:05:28.397Z</time></trkpt><trkpt lat="46.1423225" lon="12.9502093"><ele>122.0</ele><time>2026-04-26T17:05:30.396Z</time></trkpt><trkpt lat="46.142402" lon="12.9502021"><ele>122.0</ele><time>2026-04-26T17:05:32.396Z</time></trkpt><trkpt lat="46.1424959" lon="12.9501699"><ele>121.99999999999999</ele><time>2026-04-26T17:05:34.398Z</time></trkpt><trkpt lat="46.1425565" lon="12.9501403"><ele>122.0</ele><time>2026-04-26T17:05:35.397Z</time></trkpt><trkpt lat="46.1426561" lon="12.9500926"><ele>122.16666666666666</ele><time>2026-04-26T17:05:37.397Z</time></trkpt><trkpt lat="46.1427404" lon="12.9500485"><ele>122.33333333333333</ele><time>2026-04-26T17:05:39.397Z</time></trkpt><trkpt lat="46.1428319" lon="12.9500109"><ele>122.5</ele><time>2026-04-26T17:05:41.397Z</time></trkpt><trkpt lat="46.1428956" lon="12.949992"><ele>122.66666666666666</ele><time>2026-04-26T17:05:42.397Z</time></trkpt><trkpt lat="46.1429629" lon="12.94997"><ele>122.83333333333333</ele><time>2026-04-26T17:05:43.397Z</time></trkpt><trkpt lat="46.1430429" lon="12.9499342"><ele>123.0</ele><time>2026-04-26T17:05:44.397Z</time></trkpt><trkpt lat="46.143134" lon="12.9498939"><ele>123.0</ele><time>2026-04-26T17:05:45.397Z</time></trkpt><trkpt lat="46.1432114" lon="12.9498658"><ele>123.0</ele><time>2026-04-26T17:05:46.397Z</time></trkpt><trkpt lat="46.1432909" lon="12.949837"><ele>123.0</ele><time>2026-04-26T17:05:47.397Z</time></trkpt><trkpt lat="46.1433605" lon="12.9498082"><ele>123.0</ele><time>2026-04-26T17:05:48.397Z</time></trkpt><trkpt lat="46.1434248" lon="12.9497751"><ele>123.0</ele><time>2026-04-26T17:05:49.397Z</time></trkpt><trkpt lat="46.1434851" lon="12.9497441"><ele>123.0</ele><time>2026-04-26T17:05:50.396Z</time></trkpt><trkpt lat="46.1435788" lon="12.9496916"><ele>122.66666666666667</ele><time>2026-04-26T17:05:52.398Z</time></trkpt><trkpt lat="46.1436611" lon="12.9496328"><ele>122.33333333333334</ele><time>2026-04-26T17:05:54.397Z</time></trkpt><trkpt lat="46.1437388" lon="12.94957"><ele>122.0</ele><time>2026-04-26T17:05:56.396Z</time></trkpt><trkpt lat="46.1438032" lon="12.9495195"><ele>121.66666666666667</ele><time>2026-04-26T17:05:58.398Z</time></trkpt><trkpt lat="46.1438782" lon="12.9494667"><ele>121.33333333333334</ele><time>2026-04-26T17:06:01.397Z</time></trkpt><trkpt lat="46.1439407" lon="12.9494394"><ele>121.0</ele><time>2026-04-26T17:06:03.398Z</time></trkpt><trkpt lat="46.1440029" lon="12.9493948"><ele>121.00000000000001</ele><time>2026-04-26T17:06:06.397Z</time></trkpt><trkpt lat="46.1439943" lon="12.9493042"><ele>121.0</ele><time>2026-04-26T17:07:53.396Z</time></trkpt><trkpt lat="46.1439286" lon="12.949327"><ele>121.0</ele><time>2026-04-26T17:07:57.397Z</time></trkpt><trkpt lat="46.1438677" lon="12.9494458"><ele>121.0</ele><time>2026-04-26T17:07:59.396Z</time></trkpt><trkpt lat="46.1438031" lon="12.9495189"><ele>121.00000000000001</ele><time>2026-04-26T17:08:00.397Z</time></trkpt><trkpt lat="46.1437215" lon="12.9495931"><ele>121.0</ele><time>2026-04-26T17:08:01.397Z</time></trkpt><trkpt lat="46.1436136" lon="12.949678"><ele>121.0</ele><time>2026-04-26T17:08:02.398Z</time></trkpt><trkpt lat="46.1435059" lon="12.9497443"><ele>121.0</ele><time>2026-04-26T17:08:03.397Z</time></trkpt><trkpt lat="46.1433803" lon="12.9498064"><ele>121.0</ele><time>2026-04-26T17:08:04.397Z</time></trkpt><trkpt lat="46.1432552" lon="12.9498601"><ele>121.0</ele><time>2026-04-26T17:08:05.397Z</time></trkpt><trkpt lat="46.1431385" lon="12.9499065"><ele>121.4</ele><time>2026-04-26T17:08:06.398Z</time></trkpt><trkpt lat="46.1430284" lon="12.9499523"><ele>121.8</ele><time>2026-04-26T17:08:07.397Z</time></trkpt><trkpt lat="46.1429252" lon="12.9499909"><ele>122.20000000000002</ele><time>2026-04-26T17:08:08.398Z</time></trkpt><trkpt lat="46.1428286" lon="12.950028"><ele>122.60000000000001</ele><time>2026-04-26T17:08:09.397Z</time></trkpt><trkpt lat="46.1427359" lon="12.9500601"><ele>123.0</ele><time>2026-04-26T17:08:10.397Z</time></trkpt><trkpt lat="46.1426425" lon="12.9500992"><ele>123.00000000000001</ele><time>2026-04-26T17:08:11.397Z</time></trkpt><trkpt lat="46.1425659" lon="12.9501281"><ele>123.0</ele><time>2026-04-26T17:08:12.397Z</time></trkpt><trkpt lat="46.1424993" lon="12.9501521"><ele>123.00000000000001</ele><time>2026-04-26T17:08:13.397Z</time></trkpt><trkpt lat="46.1424351" lon="12.9501757"><ele>123.00000000000001</ele><time>2026-04-26T17:08:14.396Z</time></trkpt><trkpt lat="46.142363" lon="12.9501903"><ele>123.0</ele><time>2026-04-26T17:08:15.397Z</time></trkpt><trkpt lat="46.1422942" lon="12.9501966"><ele>123.00000000000001</ele><time>2026-04-26T17:08:16.397Z</time></trkpt><trkpt lat="46.1422125" lon="12.9501896"><ele>123.00000000000001</ele><time>2026-04-26T17:08:17.397Z</time></trkpt><trkpt lat="46.1421417" lon="12.950174"><ele>122.83333333333333</ele><time>2026-04-26T17:08:18.397Z</time></trkpt><trkpt lat="46.1420679" lon="12.9501456"><ele>122.66666666666666</ele><time>2026-04-26T17:08:19.396Z</time></trkpt><trkpt lat="46.1419939" lon="12.9501038"><ele>122.5</ele><time>2026-04-26T17:08:20.397Z</time></trkpt><trkpt lat="46.141925" lon="12.9500629"><ele>122.33333333333333</ele><time>2026-04-26T17:08:21.397Z</time></trkpt><trkpt lat="46.1418664" lon="12.9500249"><ele>122.16666666666666</ele><time>2026-04-26T17:08:22.397Z</time></trkpt><trkpt lat="46.1417933" lon="12.9499771"><ele>122.0</ele><time>2026-04-26T17:08:23.397Z</time></trkpt><trkpt lat="46.1416935" lon="12.9498825"><ele>121.99999999999999</ele><time>2026-04-26T17:08:25.397Z</time></trkpt><trkpt lat="46.1416292" lon="12.949816"><ele>122.0</ele><time>2026-04-26T17:08:26.396Z</time></trkpt><trkpt lat="46.1415741" lon="12.9497565"><ele>122.0</ele><time>2026-04-26T17:08:27.397Z</time></trkpt><trkpt lat="46.1415185" lon="12.9496853"><ele>122.0</ele><time>2026-04-26T17:08:28.397Z</time></trkpt><trkpt lat="46.1414587" lon="12.9496219"><ele>121.99999999999999</ele><time>2026-04-26T17:08:29.396Z</time></trkpt><trkpt lat="46.1413912" lon="12.9495635"><ele>122.0</ele><time>2026-04-26T17:08:30.396Z</time></trkpt><trkpt lat="46.1413139" lon="12.9495156"><ele>122.16666666666666</ele><time>2026-04-26T17:08:31.397Z</time></trkpt><trkpt lat="46.1412332" lon="12.9494827"><ele>122.33333333333333</ele><time>2026-04-26T17:08:32.397Z</time></trkpt><trkpt lat="46.1411442" lon="12.9494649"><ele>122.5</ele><time>2026-04-26T17:08:33.396Z</time></trkpt><trkpt lat="46.1410603" lon="12.9494516"><ele>122.66666666666666</ele><time>2026-04-26T17:08:34.397Z</time></trkpt><trkpt lat="46.1409696" lon="12.949441"><ele>122.83333333333333</ele><time>2026-04-26T17:08:35.397Z</time></trkpt><trkpt lat="46.140876" lon="12.9494331"><ele>123.0</ele><time>2026-04-26T17:08:36.397Z</time></trkpt><trkpt lat="46.1407868" lon="12.9494276"><ele>122.33333333333333</ele><time>2026-04-26T17:08:37.396Z</time></trkpt><trkpt lat="46.1406948" lon="12.9494237"><ele>121.66666666666666</ele><time>2026-04-26T17:08:38.398Z</time></trkpt><trkpt lat="46.1406109" lon="12.9494228"><ele>121.0</ele><time>2026-04-26T17:08:39.397Z</time></trkpt><trkpt lat="46.1405204" lon="12.9494274"><ele>120.33333333333333</ele><time>2026-04-26T17:08:40.397Z</time></trkpt><trkpt lat="46.1404355" lon="12.9494266"><ele>119.66666666666666</ele><time>2026-04-26T17:08:41.396Z</time></trkpt><trkpt lat="46.140347" lon="12.9494131"><ele>119.0</ele><time>2026-04-26T17:08:42.398Z</time></trkpt><trkpt lat="46.1402642" lon="12.9494028"><ele>118.99999999999999</ele><time>2026-04-26T17:08:43.396Z</time></trkpt><trkpt lat="46.1401817" lon="12.9493944"><ele>119.0</ele><time>2026-04-26T17:08:44.398Z</time></trkpt><trkpt lat="46.1401007" lon="12.9493918"><ele>119.0</ele><time>2026-04-26T17:08:45.397Z</time></trkpt><trkpt lat="46.140023" lon="12.9493857"><ele>119.0</ele><time>2026-04-26T17:08:46.398Z</time></trkpt><trkpt lat="46.1399409" lon="12.9493855"><ele>118.99999999999999</ele><time>2026-04-26T17:08:47.397Z</time></trkpt><trkpt lat="46.1398604" lon="12.9493985"><ele>119.0</ele><time>2026-04-26T17:08:48.396Z</time></trkpt><trkpt lat="46.1397854" lon="12.9494139"><ele>118.83333333333333</ele><time>2026-04-26T17:08:49.396Z</time></trkpt><trkpt lat="46.1397135" lon="12.9494314"><ele>118.66666666666666</ele><time>2026-04-26T17:08:50.397Z</time></trkpt><trkpt lat="46.1396375" lon="12.9494571"><ele>118.5</ele><time>2026-04-26T17:08:51.397Z</time></trkpt><trkpt lat="46.139559" lon="12.949484"><ele>118.33333333333334</ele><time>2026-04-26T17:08:52.397Z</time></trkpt><trkpt lat="46.1394863" lon="12.949507"><ele>118.16666666666667</ele><time>2026-04-26T17:08:53.397Z</time></trkpt><trkpt lat="46.1394137" lon="12.9495325"><ele>118.0</ele><time>2026-04-26T17:08:54.396Z</time></trkpt><trkpt lat="46.1393427" lon="12.9495572"><ele>118.0</ele><time>2026-04-26T17:08:55.397Z</time></trkpt><trkpt lat="46.1392773" lon="12.949588"><ele>118.0</ele><time>2026-04-26T17:08:56.398Z</time></trkpt><trkpt lat="46.1392004" lon="12.9496314"><ele>118.0</ele><time>2026-04-26T17:08:57.396Z</time></trkpt><trkpt lat="46.1391282" lon="12.9496712"><ele>118.0</ele><time>2026-04-26T17:08:58.398Z</time></trkpt><trkpt lat="46.1390574" lon="12.9497052"><ele>118.0</ele><time>2026-04-26T17:08:59.397Z</time></trkpt><trkpt lat="46.1389889" lon="12.9497395"><ele>118.0</ele><time>2026-04-26T17:09:00.398Z</time></trkpt><trkpt lat="46.138922" lon="12.9497761"><ele>118.0</ele><time>2026-04-26T17:09:01.396Z</time></trkpt><trkpt lat="46.1388356" lon="12.949812"><ele>117.83333333333334</ele><time>2026-04-26T17:09:02.397Z</time></trkpt><trkpt lat="46.1387393" lon="12.9498528"><ele>117.66666666666667</ele><time>2026-04-26T17:09:03.398Z</time></trkpt><trkpt lat="46.1386573" lon="12.9498954"><ele>117.5</ele><time>2026-04-26T17:09:04.396Z</time></trkpt><trkpt lat="46.1385828" lon="12.9499441"><ele>117.33333333333334</ele><time>2026-04-26T17:09:05.396Z</time></trkpt><trkpt lat="46.138509" lon="12.9499984"><ele>117.16666666666667</ele><time>2026-04-26T17:09:06.398Z</time></trkpt><trkpt lat="46.1384359" lon="12.9500549"><ele>117.0</ele><time>2026-04-26T17:09:07.397Z</time></trkpt><trkpt lat="46.138363" lon="12.9501156"><ele>117.0</ele><time>2026-04-26T17:09:08.397Z</time></trkpt><trkpt lat="46.1382822" lon="12.9501692"><ele>117.0</ele><time>2026-04-26T17:09:09.398Z</time></trkpt><trkpt lat="46.1382101" lon="12.950223"><ele>117.0</ele><time>2026-04-26T17:09:10.397Z</time></trkpt><trkpt lat="46.138129" lon="12.9502762"><ele>117.0</ele><time>2026-04-26T17:09:11.397Z</time></trkpt><trkpt lat="46.1380487" lon="12.9503283"><ele>117.0</ele><time>2026-04-26T17:09:12.397Z</time></trkpt><trkpt lat="46.1379675" lon="12.9503757"><ele>117.0</ele><time>2026-04-26T17:09:13.397Z</time></trkpt><trkpt lat="46.1378752" lon="12.9504181"><ele>117.19999999999999</ele><time>2026-04-26T17:09:14.397Z</time></trkpt><trkpt lat="46.1377815" lon="12.9504651"><ele>117.39999999999999</ele><time>2026-04-26T17:09:15.397Z</time></trkpt><trkpt lat="46.1376904" lon="12.9505076"><ele>117.60000000000001</ele><time>2026-04-26T17:09:16.397Z</time></trkpt><trkpt lat="46.1376016" lon="12.950545"><ele>117.80000000000001</ele><time>2026-04-26T17:09:17.397Z</time></trkpt><trkpt lat="46.1375192" lon="12.950587"><ele>118.0</ele><time>2026-04-26T17:09:18.396Z</time></trkpt><trkpt lat="46.1374398" lon="12.950624"><ele>118.00000000000001</ele><time>2026-04-26T17:09:19.398Z</time></trkpt><trkpt lat="46.1373682" lon="12.9506685"><ele>118.0</ele><time>2026-04-26T17:09:20.397Z</time></trkpt><trkpt lat="46.1372914" lon="12.9507197"><ele>118.0</ele><time>2026-04-26T17:09:21.398Z</time></trkpt><trkpt lat="46.1372119" lon="12.9507699"><ele>118.0</ele><time>2026-04-26T17:09:22.396Z</time></trkpt><trkpt lat="46.137129" lon="12.9508192"><ele>118.00000000000001</ele><time>2026-04-26T17:09:23.397Z</time></trkpt><trkpt lat="46.1370428" lon="12.9508647"><ele>118.0</ele><time>2026-04-26T17:09:24.397Z</time></trkpt><trkpt lat="46.1369567" lon="12.9509012"><ele>117.83333333333334</ele><time>2026-04-26T17:09:25.397Z</time></trkpt><trkpt lat="46.1368696" lon="12.950932"><ele>117.66666666666667</ele><time>2026-04-26T17:09:26.397Z</time></trkpt><trkpt lat="46.1367838" lon="12.9509643"><ele>117.5</ele><time>2026-04-26T17:09:27.398Z</time></trkpt><trkpt lat="46.1367006" lon="12.9509903"><ele>117.33333333333334</ele><time>2026-04-26T17:09:28.397Z</time></trkpt><trkpt lat="46.1366172" lon="12.951017"><ele>117.16666666666667</ele><time>2026-04-26T17:09:29.397Z</time></trkpt><trkpt lat="46.1365429" lon="12.9510457"><ele>117.0</ele><time>2026-04-26T17:09:30.396Z</time></trkpt><trkpt lat="46.1364774" lon="12.9510752"><ele>117.0</ele><time>2026-04-26T17:09:31.396Z</time></trkpt><trkpt lat="46.1364127" lon="12.9511167"><ele>116.99999999999999</ele><time>2026-04-26T17:09:32.398Z</time></trkpt><trkpt lat="46.1363165" lon="12.9512093"><ele>116.99999999999999</ele><time>2026-04-26T17:09:34.397Z</time></trkpt><trkpt lat="46.1362516" lon="12.9513572"><ele>117.0</ele><time>2026-04-26T17:09:36.397Z</time></trkpt><trkpt lat="46.1362285" lon="12.9514766"><ele>117.0</ele><time>2026-04-26T17:09:37.397Z</time></trkpt><trkpt lat="46.1362126" lon="12.9516056"><ele>117.0</ele><time>2026-04-26T17:09:38.397Z</time></trkpt><trkpt lat="46.136199" lon="12.9517223"><ele>117.0</ele><time>2026-04-26T17:09:39.398Z</time></trkpt><trkpt lat="46.136188" lon="12.9518324"><ele>117.0</ele><time>2026-04-26T17:09:40.396Z</time></trkpt><trkpt lat="46.1361802" lon="12.9519385"><ele>117.0</ele><time>2026-04-26T17:09:41.396Z</time></trkpt><trkpt lat="46.1361759" lon="12.9520514"><ele>117.0</ele><time>2026-04-26T17:09:42.396Z</time></trkpt><trkpt lat="46.1361731" lon="12.9521583"><ele>117.0</ele><time>2026-04-26T17:09:43.397Z</time></trkpt><trkpt lat="46.136177" lon="12.9522697"><ele>117.0</ele><time>2026-04-26T17:09:44.397Z</time></trkpt><trkpt lat="46.1361772" lon="12.9523783"><ele>117.0</ele><time>2026-04-26T17:09:45.397Z</time></trkpt><trkpt lat="46.1361774" lon="12.952493"><ele>117.0</ele><time>2026-04-26T17:09:46.397Z</time></trkpt><trkpt lat="46.1361773" lon="12.9526112"><ele>117.0</ele><time>2026-04-26T17:09:47.397Z</time></trkpt><trkpt lat="46.1361783" lon="12.9527252"><ele>117.0</ele><time>2026-04-26T17:09:48.397Z</time></trkpt><trkpt lat="46.1361793" lon="12.952841"><ele>117.0</ele><time>2026-04-26T17:09:49.398Z</time></trkpt><trkpt lat="46.1361791" lon="12.9529705"><ele>117.19999999999999</ele><time>2026-04-26T17:09:50.397Z</time></trkpt><trkpt lat="46.1361782" lon="12.9531063"><ele>117.39999999999999</ele><time>2026-04-26T17:09:51.397Z</time></trkpt><trkpt lat="46.1361689" lon="12.9532437"><ele>117.60000000000001</ele><time>2026-04-26T17:09:52.397Z</time></trkpt><trkpt lat="46.136157" lon="12.9533887"><ele>117.80000000000001</ele><time>2026-04-26T17:09:53.397Z</time></trkpt><trkpt lat="46.1361443" lon="12.9535217"><ele>118.0</ele><time>2026-04-26T17:09:54.397Z</time></trkpt><trkpt lat="46.1361319" lon="12.9536535"><ele>118.80000000000001</ele><time>2026-04-26T17:09:55.397Z</time></trkpt><trkpt lat="46.136106" lon="12.9537769"><ele>119.60000000000001</ele><time>2026-04-26T17:09:56.398Z</time></trkpt><trkpt lat="46.1360774" lon="12.9539024"><ele>120.39999999999999</ele><time>2026-04-26T17:09:57.397Z</time></trkpt><trkpt lat="46.1360629" lon="12.9540412"><ele>121.19999999999999</ele><time>2026-04-26T17:09:58.398Z</time></trkpt><trkpt lat="46.1360308" lon="12.9541803"><ele>122.0</ele><time>2026-04-26T17:09:59.397Z</time></trkpt><trkpt lat="46.1360055" lon="12.9543115"><ele>122.8</ele><time>2026-04-26T17:10:00.396Z</time></trkpt><trkpt lat="46.1359802" lon="12.9544586"><ele>123.6</ele><time>2026-04-26T17:10:01.397Z</time></trkpt><trkpt lat="46.1359509" lon="12.954596"><ele>124.39999999999999</ele><time>2026-04-26T17:10:02.397Z</time></trkpt><trkpt lat="46.135907" lon="12.9547189"><ele>125.19999999999999</ele><time>2026-04-26T17:10:03.398Z</time></trkpt><trkpt lat="46.1358611" lon="12.9548378"><ele>126.0</ele><time>2026-04-26T17:10:04.397Z</time></trkpt><trkpt lat="46.1358019" lon="12.954953"><ele>127.0</ele><time>2026-04-26T17:10:05.396Z</time></trkpt><trkpt lat="46.1357245" lon="12.9550513"><ele>128.0</ele><time>2026-04-26T17:10:06.397Z</time></trkpt><trkpt lat="46.1356401" lon="12.9551452"><ele>129.0</ele><time>2026-04-26T17:10:07.397Z</time></trkpt><trkpt lat="46.1355521" lon="12.9552345"><ele>130.0</ele><time>2026-04-26T17:10:08.396Z</time></trkpt><trkpt lat="46.1354451" lon="12.9553236"><ele>131.0</ele><time>2026-04-26T17:10:09.397Z</time></trkpt><trkpt lat="46.1353444" lon="12.9554028"><ele>131.2</ele><time>2026-04-26T17:10:10.397Z</time></trkpt><trkpt lat="46.1352496" lon="12.9554641"><ele>131.39999999999998</ele><time>2026-04-26T17:10:11.396Z</time></trkpt><trkpt lat="46.1351607" lon="12.9555394"><ele>131.6</ele><time>2026-04-26T17:10:12.398Z</time></trkpt><trkpt lat="46.1350781" lon="12.9556364"><ele>131.79999999999998</ele><time>2026-04-26T17:10:13.397Z</time></trkpt><trkpt lat="46.1349927" lon="12.9557513"><ele>132.0</ele><time>2026-04-26T17:10:14.396Z</time></trkpt><trkpt lat="46.1349111" lon="12.9558716"><ele>135.25</ele><time>2026-04-26T17:10:15.397Z</time></trkpt><trkpt lat="46.1348335" lon="12.9559892"><ele>138.5</ele><time>2026-04-26T17:10:16.396Z</time></trkpt><trkpt lat="46.1347508" lon="12.9561131"><ele>141.75</ele><time>2026-04-26T17:10:17.398Z</time></trkpt><trkpt lat="46.1346719" lon="12.9562361"><ele>145.0</ele><time>2026-04-26T17:10:18.396Z</time></trkpt><trkpt lat="46.1345862" lon="12.9563604"><ele>145.0</ele><time>2026-04-26T17:10:19.397Z</time></trkpt><trkpt lat="46.1345037" lon="12.956473"><ele>145.0</ele><time>2026-04-26T17:10:20.397Z</time></trkpt><trkpt lat="46.1344343" lon="12.9565898"><ele>145.0</ele><time>2026-04-26T17:10:21.397Z</time></trkpt><trkpt lat="46.1343728" lon="12.9567039"><ele>145.0</ele><time>2026-04-26T17:10:22.397Z</time></trkpt><trkpt lat="46.1343084" lon="12.9568342"><ele>145.0</ele><time>2026-04-26T17:10:23.397Z</time></trkpt><trkpt lat="46.134257" lon="12.9569708"><ele>145.2</ele><time>2026-04-26T17:10:24.396Z</time></trkpt><trkpt lat="46.1341973" lon="12.9570954"><ele>145.4</ele><time>2026-04-26T17:10:25.398Z</time></trkpt><trkpt lat="46.1341412" lon="12.9572366"><ele>145.6</ele><time>2026-04-26T17:10:26.397Z</time></trkpt><trkpt lat="46.1340915" lon="12.9573853"><ele>145.8</ele><time>2026-04-26T17:10:27.396Z</time></trkpt><trkpt lat="46.1340542" lon="12.9575106"><ele>146.0</ele><time>2026-04-26T17:10:28.398Z</time></trkpt><trkpt lat="46.1340131" lon="12.9576485"><ele>146.8</ele><time>2026-04-26T17:10:29.397Z</time></trkpt><trkpt lat="46.1339679" lon="12.9577811"><ele>147.6</ele><time>2026-04-26T17:10:30.397Z</time></trkpt><trkpt lat="46.1339167" lon="12.9579234"><ele>148.4</ele><time>2026-04-26T17:10:31.396Z</time></trkpt><trkpt lat="46.1338627" lon="12.9580539"><ele>149.2</ele><time>2026-04-26T17:10:32.397Z</time></trkpt><trkpt lat="46.1337973" lon="12.9581864"><ele>150.0</ele><time>2026-04-26T17:10:33.397Z</time></trkpt><trkpt lat="46.1337191" lon="12.9583108"><ele>150.4</ele><time>2026-04-26T17:10:34.397Z</time></trkpt><trkpt lat="46.1336473" lon="12.9584253"><ele>150.8</ele><time>2026-04-26T17:10:35.398Z</time></trkpt><trkpt lat="46.1335802" lon="12.9585419"><ele>151.2</ele><time>2026-04-26T17:10:36.395Z</time></trkpt><trkpt lat="46.1335258" lon="12.9586634"><ele>151.6</ele><time>2026-04-26T17:10:37.396Z</time></trkpt><trkpt lat="46.1334827" lon="12.9587911"><ele>152.0</ele><time>2026-04-26T17:10:38.396Z</time></trkpt><trkpt lat="46.1334517" lon="12.9589088"><ele>152.0</ele><time>2026-04-26T17:10:39.396Z</time></trkpt><trkpt lat="46.1334265" lon="12.9590132"><ele>152.0</ele><time>2026-04-26T17:10:40.397Z</time></trkpt><trkpt lat="46.1334118" lon="12.9591107"><ele>152.0</ele><time>2026-04-26T17:10:41.396Z</time></trkpt><trkpt lat="46.1334021" lon="12.9592177"><ele>152.0</ele><time>2026-04-26T17:10:42.396Z</time></trkpt><trkpt lat="46.1334024" lon="12.9593398"><ele>152.0</ele><time>2026-04-26T17:10:43.397Z</time></trkpt><trkpt lat="46.1334026" lon="12.9594882"><ele>152.0</ele><time>2026-04-26T17:10:44.396Z</time></trkpt><trkpt lat="46.1334008" lon="12.959649"><ele>152.25</ele><time>2026-04-26T17:10:45.397Z</time></trkpt><trkpt lat="46.1334085" lon="12.9598294"><ele>152.5</ele><time>2026-04-26T17:10:46.396Z</time></trkpt><trkpt lat="46.1334104" lon="12.9600163"><ele>152.75</ele><time>2026-04-26T17:10:47.396Z</time></trkpt><trkpt lat="46.1334109" lon="12.9601915"><ele>153.0</ele><time>2026-04-26T17:10:48.396Z</time></trkpt><trkpt lat="46.133415" lon="12.9603729"><ele>153.0</ele><time>2026-04-26T17:10:49.396Z</time></trkpt><trkpt lat="46.1334196" lon="12.9605581"><ele>153.0</ele><time>2026-04-26T17:10:50.396Z</time></trkpt><trkpt lat="46.1334287" lon="12.960734"><ele>153.0</ele><time>2026-04-26T17:10:51.395Z</time></trkpt><trkpt lat="46.1334351" lon="12.9609178"><ele>153.0</ele><time>2026-04-26T17:10:52.396Z</time></trkpt><trkpt lat="46.1334357" lon="12.9611086"><ele>153.25</ele><time>2026-04-26T17:10:53.396Z</time></trkpt><trkpt lat="46.1334404" lon="12.9612823"><ele>153.5</ele><time>2026-04-26T17:10:54.396Z</time></trkpt><trkpt lat="46.1334565" lon="12.9614602"><ele>153.75</ele><time>2026-04-26T17:10:55.397Z</time></trkpt><trkpt lat="46.1334723" lon="12.9616456"><ele>154.0</ele><time>2026-04-26T17:10:56.395Z</time></trkpt><trkpt lat="46.1334901" lon="12.9618231"><ele>153.5</ele><time>2026-04-26T17:10:57.396Z</time></trkpt><trkpt lat="46.1335071" lon="12.9619978"><ele>153.0</ele><time>2026-04-26T17:10:58.395Z</time></trkpt><trkpt lat="46.1335226" lon="12.9621662"><ele>152.5</ele><time>2026-04-26T17:10:59.397Z</time></trkpt><trkpt lat="46.1335371" lon="12.9623279"><ele>152.0</ele><time>2026-04-26T17:11:00.396Z</time></trkpt><trkpt lat="46.133549" lon="12.9624847"><ele>152.0</ele><time>2026-04-26T17:11:01.397Z</time></trkpt><trkpt lat="46.1335598" lon="12.9626385"><ele>152.0</ele><time>2026-04-26T17:11:02.396Z</time></trkpt><trkpt lat="46.1335705" lon="12.9627855"><ele>152.0</ele><time>2026-04-26T17:11:03.396Z</time></trkpt><trkpt lat="46.133585" lon="12.9629208"><ele>152.0</ele><time>2026-04-26T17:11:04.396Z</time></trkpt><trkpt lat="46.1335988" lon="12.9630536"><ele>152.0</ele><time>2026-04-26T17:11:05.395Z</time></trkpt><trkpt lat="46.1336067" lon="12.9631952"><ele>152.0</ele><time>2026-04-26T17:11:06.396Z</time></trkpt><trkpt lat="46.1336116" lon="12.9633403"><ele>152.0</ele><time>2026-04-26T17:11:07.396Z</time></trkpt><trkpt lat="46.1336125" lon="12.9634881"><ele>152.0</ele><time>2026-04-26T17:11:08.396Z</time></trkpt><trkpt lat="46.1336166" lon="12.9636399"><ele>152.0</ele><time>2026-04-26T17:11:09.397Z</time></trkpt><trkpt lat="46.1336195" lon="12.9638015"><ele>152.0</ele><time>2026-04-26T17:11:10.396Z</time></trkpt><trkpt lat="46.1336178" lon="12.9639625"><ele>152.2</ele><time>2026-04-26T17:11:11.397Z</time></trkpt><trkpt lat="46.1336152" lon="12.9641251"><ele>152.39999999999998</ele><time>2026-04-26T17:11:12.396Z</time></trkpt><trkpt lat="46.133612" lon="12.9642828"><ele>152.60000000000002</ele><time>2026-04-26T17:11:13.397Z</time></trkpt><trkpt lat="46.1336079" lon="12.9644345"><ele>152.8</ele><time>2026-04-26T17:11:14.395Z</time></trkpt><trkpt lat="46.1336014" lon="12.964585"><ele>153.0</ele><time>2026-04-26T17:11:15.395Z</time></trkpt><trkpt lat="46.1335926" lon="12.9647367"><ele>153.20000000000002</ele><time>2026-04-26T17:11:16.396Z</time></trkpt><trkpt lat="46.133588" lon="12.9648898"><ele>153.4</ele><time>2026-04-26T17:11:17.395Z</time></trkpt><trkpt lat="46.1335809" lon="12.9650459"><ele>153.60000000000002</ele><time>2026-04-26T17:11:18.397Z</time></trkpt><trkpt lat="46.1335754" lon="12.965201"><ele>153.8</ele><time>2026-04-26T17:11:19.395Z</time></trkpt><trkpt lat="46.1335737" lon="12.9653584"><ele>154.0</ele><time>2026-04-26T17:11:20.396Z</time></trkpt><trkpt lat="46.1335725" lon="12.9655167"><ele>154.25</ele><time>2026-04-26T17:11:21.396Z</time></trkpt><trkpt lat="46.1335692" lon="12.9656787"><ele>154.5</ele><time>2026-04-26T17:11:22.396Z</time></trkpt><trkpt lat="46.1335618" lon="12.9658407"><ele>154.75</ele><time>2026-04-26T17:11:23.395Z</time></trkpt><trkpt lat="46.1335475" lon="12.9660048"><ele>155.0</ele><time>2026-04-26T17:11:24.396Z</time></trkpt><trkpt lat="46.1335291" lon="12.9661711"><ele>155.0</ele><time>2026-04-26T17:11:25.397Z</time></trkpt><trkpt lat="46.1335077" lon="12.9663381"><ele>155.0</ele><time>2026-04-26T17:11:26.396Z</time></trkpt><trkpt lat="46.1334806" lon="12.9665082"><ele>155.0</ele><time>2026-04-26T17:11:27.397Z</time></trkpt><trkpt lat="46.1334505" lon="12.9666791"><ele>155.0</ele><time>2026-04-26T17:11:28.396Z</time></trkpt><trkpt lat="46.1334205" lon="12.9668458"><ele>154.75</ele><time>2026-04-26T17:11:29.396Z</time></trkpt><trkpt lat="46.1333798" lon="12.9670126"><ele>154.5</ele><time>2026-04-26T17:11:30.395Z</time></trkpt><trkpt lat="46.1333275" lon="12.9671662"><ele>154.25</ele><time>2026-04-26T17:11:31.396Z</time></trkpt><trkpt lat="46.1332707" lon="12.9673181"><ele>154.0</ele><time>2026-04-26T17:11:32.397Z</time></trkpt><trkpt lat="46.1332189" lon="12.967467"><ele>153.8</ele><time>2026-04-26T17:11:33.396Z</time></trkpt><trkpt lat="46.1331775" lon="12.9676089"><ele>153.60000000000002</ele><time>2026-04-26T17:11:34.397Z</time></trkpt><trkpt lat="46.1331466" lon="12.9677505"><ele>153.4</ele><time>2026-04-26T17:11:35.395Z</time></trkpt><trkpt lat="46.133137" lon="12.9678931"><ele>153.20000000000002</ele><time>2026-04-26T17:11:36.396Z</time></trkpt><trkpt lat="46.1331422" lon="12.9680338"><ele>153.0</ele><time>2026-04-26T17:11:37.395Z</time></trkpt><trkpt lat="46.1331548" lon="12.9681694"><ele>153.0</ele><time>2026-04-26T17:11:38.397Z</time></trkpt><trkpt lat="46.1331733" lon="12.9683158"><ele>153.0</ele><time>2026-04-26T17:11:39.396Z</time></trkpt><trkpt lat="46.1331801" lon="12.9684555"><ele>153.0</ele><time>2026-04-26T17:11:40.396Z</time></trkpt><trkpt lat="46.1331869" lon="12.9685838"><ele>153.0</ele><time>2026-04-26T17:11:41.396Z</time></trkpt><trkpt lat="46.1331901" lon="12.9687046"><ele>153.0</ele><time>2026-04-26T17:11:42.397Z</time></trkpt><trkpt lat="46.1331934" lon="12.9688156"><ele>153.0</ele><time>2026-04-26T17:11:43.396Z</time></trkpt><trkpt lat="46.1331937" lon="12.9689212"><ele>153.0</ele><time>2026-04-26T17:11:44.397Z</time></trkpt><trkpt lat="46.1331912" lon="12.9690197"><ele>153.0</ele><time>2026-04-26T17:11:45.396Z</time></trkpt><trkpt lat="46.1331897" lon="12.969165"><ele>153.0</ele><time>2026-04-26T17:11:47.395Z</time></trkpt><trkpt lat="46.1331971" lon="12.9692738"><ele>153.0</ele><time>2026-04-26T17:11:49.397Z</time></trkpt><trkpt lat="46.1332149" lon="12.9693653"><ele>153.0</ele><time>2026-04-26T17:11:52.396Z</time></trkpt><trkpt lat="46.1332806" lon="12.9693623"><ele>153.0</ele><time>2026-04-26T17:12:36.397Z</time></trkpt><trkpt lat="46.1332335" lon="12.9692779"><ele>153.0</ele><time>2026-04-26T17:12:39.396Z</time></trkpt><trkpt lat="46.1332061" lon="12.9691779"><ele>153.0</ele><time>2026-04-26T17:12:43.396Z</time></trkpt><trkpt lat="46.1332097" lon="12.9690508"><ele>153.0</ele><time>2026-04-26T17:12:45.396Z</time></trkpt><trkpt lat="46.1332101" lon="12.9688865"><ele>153.0</ele><time>2026-04-26T17:12:47.396Z</time></trkpt><trkpt lat="46.1332058" lon="12.9687941"><ele>153.0</ele><time>2026-04-26T17:12:48.395Z</time></trkpt><trkpt lat="46.1331995" lon="12.9687008"><ele>153.0</ele><time>2026-04-26T17:12:49.396Z</time></trkpt><trkpt lat="46.1331835" lon="12.9685343"><ele>153.0</ele><time>2026-04-26T17:12:51.396Z</time></trkpt><trkpt lat="46.1331927" lon="12.9684112"><ele>153.0</ele><time>2026-04-26T17:12:53.397Z</time></trkpt><trkpt lat="46.1332707" lon="12.9683706"><ele>153.0</ele><time>2026-04-26T17:12:55.395Z</time></trkpt><trkpt lat="46.1333777" lon="12.9683753"><ele>153.0</ele><time>2026-04-26T17:12:57.396Z</time></trkpt><trkpt lat="46.1335" lon="12.9683709"><ele>153.20000000000002</ele><time>2026-04-26T17:12:59.396Z</time></trkpt><trkpt lat="46.1336165" lon="12.9683686"><ele>153.4</ele><time>2026-04-26T17:13:01.396Z</time></trkpt><trkpt lat="46.1337188" lon="12.9683687"><ele>153.60000000000002</ele><time>2026-04-26T17:13:03.396Z</time></trkpt><trkpt lat="46.1338319" lon="12.9683403"><ele>153.8</ele><time>2026-04-26T17:13:05.397Z</time></trkpt><trkpt lat="46.133929" lon="12.9683098"><ele>154.0</ele><time>2026-04-26T17:13:07.396Z</time></trkpt><trkpt lat="46.1340298" lon="12.9682658"><ele>154.0</ele><time>2026-04-26T17:13:09.396Z</time></trkpt><trkpt lat="46.1341559" lon="12.9682321"><ele>154.0</ele><time>2026-04-26T17:13:11.396Z</time></trkpt><trkpt lat="46.1342256" lon="12.9682165"><ele>154.0</ele><time>2026-04-26T17:13:12.395Z</time></trkpt><trkpt lat="46.1342984" lon="12.9682049"><ele>154.0</ele><time>2026-04-26T17:13:13.397Z</time></trkpt><trkpt lat="46.1343766" lon="12.9682006"><ele>154.0</ele><time>2026-04-26T17:13:14.395Z</time></trkpt><trkpt lat="46.1344502" lon="12.9681898"><ele>154.0</ele><time>2026-04-26T17:13:15.397Z</time></trkpt><trkpt lat="46.1345203" lon="12.9681829"><ele>154.0</ele><time>2026-04-26T17:13:16.396Z</time></trkpt><trkpt lat="46.134592" lon="12.968175"><ele>154.0</ele><time>2026-04-26T17:13:17.396Z</time></trkpt><trkpt lat="46.1346652" lon="12.9681662"><ele>154.0</ele><time>2026-04-26T17:13:18.395Z</time></trkpt><trkpt lat="46.1347358" lon="12.968157"><ele>154.0</ele><time>2026-04-26T17:13:19.396Z</time></trkpt><trkpt lat="46.134801" lon="12.9681476"><ele>154.0</ele><time>2026-04-26T17:13:20.397Z</time></trkpt><trkpt lat="46.1348968" lon="12.9681321"><ele>154.0</ele><time>2026-04-26T17:13:22.395Z</time></trkpt><trkpt lat="46.1349641" lon="12.9681944"><ele>155.0</ele><time>2026-04-26T17:13:24.395Z</time></trkpt><trkpt lat="46.1349837" lon="12.9683273"><ele>155.0</ele><time>2026-04-26T17:13:26.396Z</time></trkpt><trkpt lat="46.1349793" lon="12.9684563"><ele>154.0</ele><time>2026-04-26T17:13:28.396Z</time></trkpt><trkpt lat="46.1349939" lon="12.9685452"><ele>154.0</ele><time>2026-04-26T17:13:30.397Z</time></trkpt></trkseg></trk></gpx>